GFSCGP_con_mlcape_000.txt.gz
CAPE
0 0 0 0 0 0 0 0 9 4 43 132 243 680 268 296 457 303 293 797 877 985 1166 1526 1834 1961 2024 2109 2262 2461 2535 2589 2453 2306 2148 2097 2050 2031 1827 1827 1857 1970 1991 2033
0 0 0 0 0 0 0 0 0 6 62 123 576 663 655 398 124 372 357 653 766 972 1081 1578 1676 1889 1986 2174 2311 2490 2673 2748 2762 2396 2398 2155 1776 1486 1562 1934 1876 1648 1364 1365
0 0 0 0 0 0 0 0 0 0 166 185 589 603 1063 753 695 457 714 699 1014 1134 1210 1403 1539 1748 1862 2072 2440 2527 2699 2732 3089 2786 1921 1137 550 904 446 532 370 718 921 763
0 0 0 0 0 0 0 0 0 0 174 30 253 53 865 873 905 790 552 972 1046 1249 1400 1364 1333 1590 1657 1965 2344 3127 3341 2967 2065 1142 597 578 24 79 174 161 134 319 282 457
0 0 0 0 0 0 0 0 9 37 110 147 388 107 63 658 818 726 787 715 816 1056 1288 1302 990 1194 1469 2298 2620 2397 1792 1225 769 692 283 44 47 0 32 11 11 91 100 217
0 0 0 0 0 0 0 21 47 55 28 7 17 17 1 41 301 398 736 931 1012 993 1128 1361 1148 1402 1992 1886 1592 817 819 597 476 207 172 133 84 13 0 7 9 7 14 42
0 0 0 0 0 0 0 0 0 0 0 0 2 0 0 3 257 296 459 947 1093 948 984 1167 1538 1836 1580 1606 777 392 571 488 432 5 0 2 4 8 1 25 0 0 0 3
0 0 0 0 0 0 0 0 0 0 0 0 12 0 0 107 142 100 378 724 988 909 734 1009 1657 1522 1525 1175 465 326 547 462 57 41 131 104 58 0 0 1 0 0 0 0
0 0 0 0 0 0 0 0 0 0 0 0 0 0 0 33 82 125 390 701 1065 660 630 999 1360 1321 1190 480 399 430 494 339 52 45 224 172 113 67 2 6 32 4 0 0
0 0 0 0 0 0 0 1 0 0 0 0 0 0 0 0 0 87 187 566 1139 556 595 926 1039 1058 594 323 331 368 425 325 118 118 118 0 0 20 2 0 0 17 31 29
0 0 0 0 0 0 0 0 0 4 0 0 0 0 0 0 0 0 187 590 1022 561 389 720 997 1095 355 284 212 236 318 258 128 132 46 8 0 0 0 0 4 25 35 80
0 0 0 0 0 0 0 0 4 8 28 5 0 0 0 0 0 0 20 526 799 934 189 162 868 980 296 281 40 51 106 107 34 28 5 0 0 0 0 0 0 2 0 65
0 0 0 0 0 0 0 0 8 16 29 13 2 13 23 11 43 59 56 332 779 1080 457 99 443 585 328 296 97 19 64 0 0 0 0 0 0 0 0 0 0 0 29 73
0 0 0 0 0 0 0 0 8 13 16 23 21 1 7 11 13 5 95 316 596 882 667 322 319 378 386 286 276 238 63 0 0 0 0 0 0 0 0 0 0 34 131 211
0 0 0 0 0 0 1 2 2 11 13 10 14 25 0 0 0 0 0 21 386 482 591 535 445 389 516 446 403 273 99 22 9 0 0 0 0 47 0 64 175 201 168 135
11 13 3 0 0 0 0 0 0 6 19 28 23 2 0 0 0 0 0 0 107 405 533 616 570 503 567 470 335 55 69 3 37 92 11 0 73 234 320 175 241 211 117 92
62 83 52 14 2 4 3 2 2 17 18 8 0 0 0 0 0 0 0 0 5 164 474 476 547 578 563 364 8 6 8 0 84 176 46 58 274 301 286 76 142 148 243 274
179 145 104 102 66 17 34 16 1 15 12 0 0 0 0 0 0 0 0 0 0 17 342 491 546 598 478 44 0 1 0 42 163 179 154 164 276 325 330 144 106 139 279 236
71 133 85 103 65 33 24 0 0 6 22 0 1 0 0 0 0 0 0 0 38 146 419 551 582 508 149 12 0 15 68 66 80 107 172 156 267 372 416 278 264 320 265 123
43 95 73 56 23 32 73 46 4 11 7 0 0 0 0 0 0 11 1 3 162 303 522 604 436 186 103 64 29 142 169 202 123 101 135 82 235 447 355 331 291 279 267 168
35 39 8 7 23 19 88 8 0 0 16 0 0 0 0 0 34 187 165 54 211 328 427 481 304 106 92 281 294 170 253 262 231 151 87 104 465 701 710 350 348 299 410 371
103 74 33 21 49 52 2 0 0 88 0 0 0 0 0 50 358 237 321 333 313 322 307 383 270 196 313 648 777 712 651 605 424 287 352 684 726 689 254 623 447 314 431 140
16 58 128 82 177 42 0 5 0 0 0 0 31 93 140 297 290 302 413 475 428 383 309 291 373 642 874 920 1100 993 1050 1002 856 1205 789 350 119 371 793 662 535 355 280 212
0 0 1 0 50 0 0 0 0 0 0 10 13 17 188 442 249 337 469 500 492 486 475 484 550 587 594 615 804 1004 1132 1383 885 593 290 304 598 724 777 441 364 345 192 290
2 0 0 0 0 0 0 0 0 0 0 0 0 24 255 316 181 116 89 122 166 232 256 256 322 455 557 773 857 767 685 457 440 431 452 600 503 477 473 499 184 205 0 26
0 0 0 0 0 0 0 0 0 0 0 0 71 135 163 139 26 0 8 128 193 321 303 376 407 459 473 376 383 455 514 546 579 520 396 328 255 213 131 175 29 0 0 0

GFSCGP_con_mlcape_003.txt.gz
CAPE
0 0 0 0 0 0 6 0 7 16 11 44 64 57 264 392 222 204 408 655 572 594 649 835 1077 1346 1594 1837 2159 2245 2467 2579 2564 2304 2301 2253 2258 2162 2065 1807 2052 1874 1930 1948
0 0 0 0 0 0 0 0 7 9 25 10 20 176 75 167 255 166 190 376 332 379 458 866 1148 1329 1454 1644 1834 2154 2342 2687 2827 2522 2649 2579 2149 1391 1037 1335 1556 1654 1209 1171
0 0 0 0 0 0 0 0 0 5 3 0 33 22 215 77 118 194 118 182 242 318 303 555 912 1050 1130 1619 2124 2197 2465 2753 3194 3152 2313 1817 1249 1248 548 303 463 639 639 375
0 0 0 0 0 0 0 0 0 0 15 18 0 21 154 348 68 9 143 177 230 253 214 232 386 608 738 1256 1895 2445 2831 3171 2507 1656 785 781 70 3 237 29 4 144 64 195
0 0 0 0 0 0 0 0 0 0 0 4 20 12 127 2 399 215 38 181 331 378 370 347 141 393 538 1163 1625 2400 2749 1509 1032 695 214 36 0 0 0 0 0 20 176 164
0 0 0 0 0 0 0 0 0 1 2 18 49 14 52 211 508 482 290 43 121 356 404 529 379 482 735 1283 1751 2102 1410 989 634 267 185 88 16 10 0 14 1 0 0 8
0 0 0 0 0 0 0 0 0 2 16 27 4 10 51 5 92 18 166 250 168 192 334 539 632 887 1202 1314 1520 1033 987 825 591 130 0 0 8 14 37 83 0 0 0 3
0 0 0 0 0 0 0 0 0 1 9 15 0 0 0 0 4 49 106 171 339 511 449 509 812 1101 1526 1301 1167 418 843 897 520 77 189 249 246 0 5 2 29 0 0 0
0 0 0 0 0 0 0 0 0 0 0 0 7 5 0 0 0 26 46 150 561 631 761 666 862 1529 1370 1226 817 435 616 671 320 87 510 447 257 176 68 93 102 1 11 12
0 0 0 0 0 0 0 0 0 0 0 6 7 2 2 13 0 0 20 85 245 791 990 722 776 1532 1204 1215 533 276 377 481 272 193 291 3 0 38 133 72 61 68 56 65
0 0 0 0 0 0 0 0 1 6 8 15 12 14 0 0 0 0 0 1 175 625 1122 660 837 1178 1161 972 429 95 299 376 361 293 255 38 0 0 24 1 1 18 73 118
0 0 0 0 0 0 0 0 0 4 8 0 1 2 0 0 0 12 0 0 64 834 1270 790 964 1075 1072 638 402 102 55 157 220 128 142 2 16 39 2 0 0 0 2 9
0 0 0 0 1 0 0 0 6 5 14 28 44 28 3 0 0 17 16 0 60 623 1192 885 980 1157 1279 617 523 125 17 20 35 58 111 15 54 86 92 93 3 0 0 17
0 0 0 0 0 5 0 0 0 0 28 41 41 47 25 27 28 11 9 15 50 362 931 829 680 1153 1610 757 648 115 46 22 17 27 0 0 35 198 183 132 50 102 133 140
0 0 0 0 0 20 6 1 0 12 5 1 19 6 8 5 0 1 0 0 12 245 777 1006 561 745 1625 870 817 318 104 55 24 23 16 16 72 257 367 277 189 161 149 110
0 0 0 0 1 0 18 28 26 14 20 18 17 33 22 0 0 0 0 0 0 0 468 1032 975 719 1217 866 727 469 142 115 193 211 144 81 87 216 345 345 258 214 157 102
35 10 6 5 27 14 22 14 25 38 53 32 41 50 32 0 0 0 0 0 0 0 114 604 1103 1159 1105 880 807 425 128 196 119 315 333 229 281 485 470 217 188 166 194 243
177 124 71 87 65 59 43 39 47 49 67 87 55 35 2 0 0 0 0 0 11 4 0 406 922 1213 1019 1002 778 122 126 254 208 399 440 395 416 475 463 370 265 245 277 390
23 186 146 97 77 125 83 70 28 58 82 105 64 21 10 0 0 0 0 22 176 247 261 404 835 1066 1104 926 423 77 134 129 316 497 543 557 472 498 556 470 442 314 488 298
20 44 122 148 124 28 24 58 63 34 31 43 69 57 0 0 0 155 117 148 314 526 702 819 919 1047 1109 686 51 103 292 379 353 550 509 481 426 391 563 528 546 513 557 332
146 55 30 16 70 118 94 161 5 26 120 29 4 0 0 0 2 347 223 274 435 615 916 1007 994 999 953 305 100 217 345 482 592 543 469 523 463 492 550 787 647 298 600 515
206 65 27 42 93 75 254 97 76 345 128 33 16 16 0 0 9 75 293 375 447 643 862 952 896 721 470 331 487 574 887 963 871 812 636 529 530 702 239 415 789 907 573 535
45 109 270 418 296 291 228 238 97 69 56 12 5 11 12 15 2 96 245 619 637 670 753 791 741 616 475 505 942 1321 1469 1527 1386 1175 1005 830 1076 458 365 466 968 777 522 447
55 90 105 266 308 120 6 11 17 5 5 5 9 29 72 49 152 269 586 818 871 803 737 664 673 708 897 1271 1558 1725 1638 1500 1627 1661 1570 1518 1072 917 864 907 694 426 323 184
167 40 59 68 280 113 150 0 0 0 23 33 77 138 186 273 223 601 872 1108 1065 1028 947 909 907 843 876 1266 1309 1400 1565 1867 1641 1243 896 647 517 646 544 599 317 226 0 3
78 79 34 190 1 6 15 0 0 0 14 24 79 314 533 712 758 722 824 697 720 751 592 576 345 476 1041 1004 1106 1105 1086 1072 1015 843 686 476 372 311 172 178 4 0 0 0

GFSCGP_con_mlcape_006.txt.gz
CAPE
0 0 0 0 0 0 22 5 0 12 24 63 26 47 99 42 119 358 442 363 340 286 785 923 1297 1558 1393 1399 1642 1866 2084 2350 2378 2109 1641 1934 1754 2005 2001 2182 1705 1812 1771 1611
0 0 0 0 0 0 0 0 0 2 11 50 87 111 88 49 44 200 433 459 337 402 363 398 530 577 719 1740 2004 1893 2275 2216 2582 2292 2685 2415 1984 2053 1736 1584 2043 1824 1471 1470
0 0 0 0 0 0 0 0 0 3 8 1 36 82 53 63 76 78 141 327 325 296 343 529 696 711 898 1248 1716 1790 2351 2206 2442 2627 2646 1851 1921 1070 814 940 1113 810 401 284
0 0 0 0 0 0 0 0 0 0 0 2 0 0 27 19 2 58 38 97 175 187 282 484 666 897 962 1368 1725 2073 2321 2681 2895 2097 903 637 113 0 354 140 267 21 60 250
0 0 0 0 0 0 0 0 0 0 0 0 0 0 85 58 4 15 21 43 73 132 173 224 359 517 669 1375 1633 2458 2822 2506 1757 895 168 163 34 0 0 0 0 1 9 176
0 0 0 0 0 0 0 0 0 0 0 0 0 13 66 43 203 36 52 80 48 89 164 157 245 371 484 1077 1477 2447 2588 1342 743 418 214 56 0 1 0 43 22 79 19 2
0 0 0 0 0 0 0 0 0 0 0 0 0 1 36 50 37 125 60 2 56 132 256 311 238 374 531 1071 1587 2403 1805 1117 683 233 79 0 0 6 44 163 137 11 0 3
0 0 0 0 0 0 0 0 0 0 0 1 3 2 29 25 109 131 341 257 69 17 313 457 643 535 993 1323 1859 1733 1472 982 632 229 35 19 66 70 127 315 223 26 0 36
0 0 0 0 0 0 0 0 0 0 0 0 0 0 0 0 0 0 13 0 207 119 75 417 748 940 1283 1438 1706 1430 1289 1177 720 205 401 476 349 229 123 185 157 64 199 105
0 0 0 0 0 0 0 0 0 0 0 1 4 1 0 17 0 0 0 0 35 185 292 263 523 1174 1667 1589 1608 1188 1127 1336 560 383 565 580 264 180 275 218 118 152 140 166
0 0 0 0 0 0 0 0 0 0 0 0 5 3 4 5 0 0 0 0 0 19 298 733 758 1389 1811 1413 1448 807 899 1159 585 275 449 175 0 0 120 111 67 63 190 223
0 0 0 0 0 0 0 0 3 0 5 0 6 0 0 0 0 0 0 0 0 88 164 1143 1010 1660 1790 1440 1289 666 506 705 581 419 405 278 86 21 15 21 48 61 91 91
0 0 0 0 0 0 0 1 0 0 0 3 19 35 0 0 0 0 0 0 39 50 612 1456 1291 1210 1772 1593 1396 697 331 344 429 410 303 175 112 147 189 185 210 131 104 70
1 0 0 0 0 0 0 0 0 0 16 2 10 114 5 1 4 0 0 0 0 214 203 1348 1411 1295 1627 1669 1297 784 338 119 193 246 296 256 228 279 318 308 405 174 256 312
0 0 0 0 0 1 3 0 0 0 0 0 34 1 11 0 0 0 0 0 0 15 304 1118 1279 1484 1699 1712 1159 927 391 174 98 69 72 79 168 313 465 496 386 320 324 414
0 0 0 0 0 0 0 0 20 0 0 0 6 20 1 29 0 0 0 0 0 0 0 180 1491 1233 2154 1880 1278 773 378 355 87 176 151 170 259 356 434 603 699 528 550 399
15 0 0 0 0 0 0 0 1 22 17 1 8 65 141 11 0 0 0 0 0 0 0 9 634 1479 2342 1825 1289 636 517 350 171 309 269 299 352 393 515 612 544 554 354 331
41 26 1 0 2 29 0 13 34 36 20 1 49 0 4 12 0 0 0 0 0 0 1 20 440 1135 1858 1634 1175 1055 648 294 478 547 607 587 591 613 724 739 545 512 518 479
2 125 44 26 0 4 51 125 152 36 44 83 141 92 80 8 0 62 18 0 11 65 263 312 106 757 1790 1479 1179 1109 575 465 625 646 711 820 758 770 822 879 717 582 562 408
0 1 7 15 183 48 69 207 65 35 0 40 39 60 42 13 0 225 173 132 130 207 414 444 547 944 1818 1497 1355 1009 474 621 631 678 915 1020 951 965 921 896 681 712 616 369
0 17 39 98 79 0 51 87 28 0 0 43 19 7 6 6 11 199 245 154 211 321 701 994 1019 1332 1797 1448 1142 621 406 605 806 922 1033 999 1087 1079 956 957 876 821 463 42
82 130 18 0 2 0 147 268 45 279 7 57 53 35 22 8 6 26 68 244 191 299 672 1026 1369 1656 1592 1272 1010 411 551 834 1211 1139 1042 1116 1178 976 796 787 671 503 406 506
139 114 0 247 223 120 307 380 97 83 71 3 1 2 9 13 14 0 0 138 354 353 582 1024 1266 1488 1341 974 539 909 1225 1542 1678 1661 1551 1312 1284 1005 1019 813 405 623 643 550
269 87 186 3 0 0 13 12 23 27 0 0 0 0 0 7 16 39 59 395 599 381 662 697 1211 1417 873 1232 1476 1847 1963 1862 1867 1940 2119 1774 1535 1468 1239 767 911 774 686 272
53 0 0 169 4 14 0 1 1 5 0 0 0 0 1 51 121 222 277 723 832 621 646 352 831 787 400 189 150 304 1056 1533 2199 2282 2096 1708 1483 1187 903 163 81 349 0 0
43 24 69 17 0 0 0 0 0 0 0 0 0 0 13 146 381 850 1343 1166 1017 20 771 211 205 184 0 0 66 2 6 753 1219 1238 1140 1009 915 411 506 101 0 0 0 0

GFSCGP_con_mlcape_009.txt.gz
CAPE
0 0 0 0 0 0 0 0 0 0 0 0 22 227 349 337 314 280 590 608 706 815 964 912 775 641 799 795 921 987 1509 1725 1840 1765 1297 1384 1204 1361 1421 1373 1642 1675 1424 1329
0 0 0 0 0 0 0 5 3 35 2 7 12 100 113 119 142 227 353 278 475 493 1114 1115 965 735 987 1066 1218 1348 1606 2052 1935 1932 1663 1947 2014 1653 1736 1379 1697 1649 1390 1320
0 0 0 0 0 0 0 0 22 50 48 52 39 59 104 14 70 186 297 209 235 359 886 1250 1290 1031 1387 1506 1450 1376 1576 1497 1891 1509 2096 2122 1359 1582 789 693 886 336 116 154
0 0 0 0 0 0 0 0 0 7 57 18 87 43 55 1 1 115 267 236 183 365 242 511 735 855 1681 1558 1666 1722 1702 1451 1794 2151 2270 1713 922 50 237 187 3 0 66 6
0 0 0 0 0 0 0 0 0 0 0 7 48 3 16 25 4 61 136 290 201 215 200 314 376 441 1184 1554 1486 1737 1738 1851 2162 1411 277 64 0 0 0 0 0 0 0 64
0 0 0 0 0 0 0 0 0 0 0 0 0 0 20 7 55 42 67 80 131 168 256 353 516 566 1039 1317 1643 1719 2095 2125 1380 365 0 0 0 0 0 0 0 2 0 31
0 0 0 0 0 0 0 0 0 0 0 0 0 0 0 56 46 9 17 14 24 74 218 357 501 657 1197 1379 1763 2118 2007 1443 599 14 0 0 0 0 0 0 0 6 0 34
0 0 0 0 0 0 0 0 0 0 0 0 0 0 0 101 98 49 25 15 27 36 61 179 307 425 1089 1396 1951 2076 1813 1390 141 84 3 0 0 0 0 204 77 0 0 0
0 0 0 0 0 0 0 0 0 0 0 0 4 1 3 34 49 58 126 46 3 0 38 47 171 292 948 1348 1948 1754 1731 845 185 31 0 0 1 0 45 16 0 0 118 0
0 0 0 0 0 0 0 0 0 0 0 0 0 21 2 4 25 51 95 83 62 8 60 117 170 402 959 1434 1728 1653 1433 528 105 231 7 64 167 104 11 21 0 0 0 0
0 0 0 0 0 0 0 0 0 0 0 0 1 1 46 2 0 0 0 14 78 103 185 303 490 532 1023 1500 1582 1418 1161 674 152 238 71 211 328 148 36 36 0 0 0 123
0 0 0 0 0 0 0 0 0 0 0 0 7 10 0 0 0 0 0 0 0 50 95 132 216 712 1252 1474 1343 1156 1026 643 140 262 185 279 2 0 5 11 0 0 0 0
0 0 0 0 0 0 0 0 0 2 0 0 0 10 2 0 0 0 0 0 0 0 127 200 98 53 1411 1349 1076 1003 915 711 270 69 307 175 49 15 6 6 4 7 4 3
0 0 0 0 0 0 0 0 0 0 0 0 0 36 6 1 0 0 0 0 2 0 422 653 944 1059 1254 1316 981 834 684 525 311 178 223 178 74 18 22 40 66 84 58 24
0 0 0 0 0 0 0 0 0 0 0 0 15 65 5 6 0 0 0 0 0 34 302 1067 1189 1687 1439 1317 933 713 413 359 312 279 233 187 91 47 90 104 151 257 73 106
0 0 0 0 0 0 0 0 0 2 0 0 0 76 22 62 3 0 0 0 0 0 0 228 1372 1380 1546 1418 994 684 319 214 143 211 192 159 105 43 54 87 150 206 153 116
10 7 0 0 0 0 0 0 0 0 3 1 0 10 118 22 2 0 0 0 0 0 0 0 0 1173 1472 1494 1162 540 140 89 166 156 113 44 14 14 67 166 249 460 399 450
66 74 2 0 0 0 0 0 0 8 33 25 33 65 45 20 0 0 0 0 0 0 0 0 0 513 1737 1511 1037 449 274 101 5 0 48 58 64 122 168 280 346 351 398 221
90 105 108 12 0 0 0 0 116 131 58 44 109 162 34 0 3 10 0 0 0 30 131 164 132 1082 1784 1561 1070 566 283 68 21 1 56 171 170 178 274 434 528 520 474 330
93 57 82 60 52 17 4 62 125 157 136 74 39 74 87 0 2 2 2 50 97 122 159 107 198 835 1495 1437 844 632 376 298 240 153 274 371 444 465 534 629 656 713 569 394
24 25 55 18 3 0 28 157 99 22 14 38 6 0 1 69 219 165 82 118 189 183 288 324 362 1323 1661 1217 888 597 452 535 340 339 502 680 726 752 751 772 774 765 617 384
64 133 45 61 14 0 99 289 275 237 138 103 96 61 2 0 0 3 0 61 200 251 382 586 1011 1379 1697 1183 904 606 595 615 582 642 819 919 1045 1050 981 941 933 864 606 228
38 30 191 393 189 3 0 9 2 0 0 0 0 0 0 6 0 0 0 0 0 287 334 807 1564 1627 1205 844 641 272 0 1 356 1241 1235 1366 1408 1292 1111 1023 811 501 141 105
67 29 59 271 33 0 0 0 0 0 0 6 10 0 1 3 2 7 8 36 163 872 905 969 795 388 75 3 132 0 0 1 0 1 110 3 19 1292 1096 539 345 321 219 109
2 6 76 125 16 0 0 0 0 0 0 0 0 0 0 10 168 421 512 721 818 970 743 769 286 187 131 57 94 0 0 0 0 0 0 0 720 684 274 89 112 135 0 0
45 0 0 0 0 0 0 0 0 0 0 0 0 0 3 44 588 1039 1209 962 651 510 338 98 87 19 1 34 10 0 0 0 1 6 25 619 649 579 187 0 0 0 0 0

GFSCGP_con_mlcape_012.txt.gz
CAPE
0 0 0 0 0 0 0 0 0 1 1 45 23 232 287 325 306 264 301 285 302 278 255 260 334 343 412 383 409 484 862 1317 1641 1544 1371 1326 1484 1387 1274 1158 1274 1380 1276 1115
0 0 0 0 0 0 0 0 0 17 0 7 144 178 237 334 419 489 498 512 449 410 368 380 403 461 455 399 411 619 998 1383 1574 1577 1369 1204 1178 1168 1187 1340 1340 1356 1066 1031
0 0 0 0 0 0 0 0 8 24 18 19 125 105 184 213 355 333 462 621 611 694 636 564 513 507 494 558 690 809 1155 1389 1572 1452 1429 1588 1620 1454 1049 610 830 582 195 117
0 0 0 0 0 0 0 0 0 21 44 25 58 16 60 111 80 93 160 504 573 689 736 845 759 538 680 816 876 1129 1547 1493 1683 1666 1501 1448 786 534 103 245 2 0 0 0
0 0 0 0 0 0 0 0 0 18 59 50 28 33 18 23 36 55 64 189 196 582 728 869 921 663 798 1103 1053 1215 1261 1272 1321 1398 1368 1551 875 0 26 0 0 0 0 0
0 0 0 0 0 0 0 0 0 4 17 29 20 3 3 37 77 15 34 144 131 426 694 909 987 741 992 1216 1352 1260 1062 991 1323 1393 1083 344 0 0 0 0 0 0 0 0
0 0 0 0 0 0 0 0 0 0 0 0 0 37 0 2 33 44 18 95 141 217 467 773 782 848 1189 1289 1437 1449 1161 880 1293 963 86 0 0 0 0 0 0 0 0 0
0 0 0 0 0 0 0 0 0 0 0 0 0 0 0 0 1 15 0 70 113 198 209 383 290 402 946 1197 1301 1582 1245 1076 1243 674 38 0 0 0 0 0 0 0 0 0
0 0 0 0 0 0 0 0 0 0 0 0 0 0 0 0 0 16 1 36 89 120 130 199 289 347 870 1220 1228 1394 1301 1150 791 486 0 0 0 0 0 0 0 0 0 0
0 0 0 0 0 0 0 0 0 0 0 0 0 0 0 24 20 33 9 5 9 44 102 130 278 411 837 1265 1358 1511 1247 1123 678 130 0 0 0 0 0 0 0 0 0 0
0 0 0 0 0 0 0 0 0 0 0 0 0 0 0 25 32 42 53 50 0 0 60 199 282 348 738 1146 1592 1565 1350 1112 677 0 0 0 0 0 0 0 0 0 0 0
0 0 0 0 0 0 0 0 0 0 0 0 0 0 0 7 10 39 68 78 34 0 3 90 141 223 649 1054 1748 1588 1337 1072 636 0 0 0 13 105 55 16 8 0 0 7
0 0 0 0 0 0 0 0 0 0 0 0 0 0 0 0 0 0 0 0 17 49 39 41 96 151 542 937 1527 1539 1346 1154 375 0 0 0 106 134 38 16 16 5 0 0
0 0 0 0 0 0 0 0 0 0 0 0 0 0 0 0 0 0 0 0 0 0 55 166 231 241 563 1015 1480 1517 1291 1059 395 46 0 38 151 15 5 11 27 0 0 0
0 0 0 0 0 0 0 0 0 0 0 0 0 0 2 0 0 0 0 0 0 0 14 49 129 222 658 1095 1305 1323 1224 990 457 213 149 155 114 46 12 3 2 1 7 23
0 0 0 0 0 0 0 0 0 0 0 0 0 0 8 1 0 0 0 0 0 0 37 205 214 165 100 1016 1255 1191 1137 940 513 323 221 182 122 145 40 36 13 31 49 135
0 0 0 0 0 0 0 0 0 0 0 0 0 0 50 1 1 0 0 0 0 0 0 0 355 808 823 767 1167 962 842 652 646 436 237 191 184 211 118 86 66 49 68 168
1 0 0 0 0 0 0 0 0 10 7 0 0 0 0 15 43 12 0 0 0 0 0 0 0 82 723 1250 1207 870 326 446 611 356 301 346 305 224 188 100 72 116 198 313
89 2 7 0 0 0 0 29 25 5 6 10 1 14 40 34 37 8 0 0 0 0 0 0 0 31 306 1217 1253 822 353 478 466 288 291 324 375 284 179 131 90 244 343 422
48 34 27 41 2 0 18 116 98 61 54 24 100 75 29 25 24 9 0 0 0 14 2 0 4 102 662 1153 1219 847 579 359 335 240 247 337 320 187 160 215 282 391 450 483
67 82 35 29 5 0 19 74 125 119 111 5 2 16 43 30 42 72 33 30 18 16 22 43 257 454 799 1211 1064 892 474 397 241 169 185 142 209 231 303 388 459 493 481 250
56 185 102 28 52 41 0 59 102 1 0 9 0 9 77 90 206 130 12 25 126 155 173 362 768 729 1154 1014 751 507 288 189 120 107 165 301 390 541 540 582 666 489 334 254
0 31 23 103 4 0 0 0 0 0 0 0 0 0 0 0 0 0 0 0 3 27 199 704 729 750 979 777 563 539 88 52 30 60 88 63 15 0 36 628 845 541 217 106
4 20 0 0 0 0 0 0 0 0 0 0 0 0 0 0 5 73 45 14 149 439 508 563 798 910 757 346 90 0 0 0 0 20 0 1 0 0 0 26 445 420 274 111
67 9 38 12 0 0 0 0 0 0 0 0 0 0 0 0 2 384 494 698 799 762 674 615 769 679 369 0 0 0 0 0 0 0 0 0 0 23 165 82 103 166 0 0
47 58 64 20 0 0 0 0 0 0 0 0 0 0 0 0 0 455 638 1007 1017 1065 616 675 416 323 183 5 0 0 0 0 0 0 0 0 0 117 99 6 0 0 0 0

GFSCGP_con_mlcape_015.txt.gz
CAPE
0 0 0 0 0 0 0 0 26 46 84 91 106 103 28 157 126 97 112 107 110 150 142 198 319 207 235 629 842 978 977 962 1031 1139 1185 1213 1219 1358 1283 1151 1191 1200 1177 1091
0 0 0 0 0 0 0 0 0 17 18 90 86 87 45 106 85 97 134 144 145 152 154 130 223 242 158 325 600 793 854 927 1113 1236 1257 1218 1044 1079 1080 1019 1158 1315 1157 937
0 0 0 0 0 0 0 0 0 0 21 45 75 93 133 121 116 121 138 155 128 136 168 150 167 192 227 245 257 388 750 829 1066 1283 1361 1326 1286 1397 1015 923 905 1193 1088 1026
0 0 0 0 0 0 0 0 0 0 9 8 65 2 120 179 216 239 246 206 183 162 180 195 219 246 290 305 293 319 598 814 1147 1360 1462 1290 956 632 321 352 203 185 22 0
0 0 0 0 0 0 0 0 0 0 10 19 46 22 31 117 152 231 287 308 337 290 266 223 271 347 369 332 392 499 755 993 1294 1443 1436 1427 1052 521 79 47 0 0 0 0
0 0 0 0 0 0 0 0 0 0 0 5 15 14 0 17 93 96 152 139 359 422 459 382 340 349 398 419 486 704 785 1043 1258 1359 1404 1175 908 420 33 0 0 0 0 0
0 0 0 0 0 0 0 0 0 0 0 0 0 17 5 10 53 58 75 76 173 316 545 622 599 568 495 547 651 868 866 986 1015 1112 959 995 556 51 0 0 0 0 0 0
0 0 0 0 0 0 0 0 0 0 0 0 0 1 6 9 18 58 55 34 87 139 579 732 759 746 620 687 821 1040 1042 892 895 865 801 543 26 0 0 0 0 0 0 0
0 0 0 0 0 0 0 0 0 0 0 0 0 0 0 0 0 11 20 5 45 93 439 695 842 799 699 786 900 1052 1189 1094 827 584 566 103 0 0 0 0 0 0 0 0
0 0 0 0 0 0 0 0 0 0 0 0 0 0 0 0 0 0 8 1 16 54 221 571 845 800 854 979 1017 1170 1368 1256 962 432 512 82 0 0 0 0 0 0 0 0
0 0 0 0 0 0 0 0 0 0 0 0 0 0 0 0 0 0 0 3 17 41 107 269 586 639 732 1157 1228 1229 1511 1373 886 633 475 49 0 0 0 0 0 0 0 0
0 0 0 0 0 0 0 0 0 0 0 0 0 0 0 0 0 0 0 5 18 48 78 168 303 417 415 810 1190 1307 1437 1308 864 642 392 8 0 0 0 0 0 0 0 0
0 0 0 0 0 0 0 0 0 0 0 0 0 0 0 0 0 5 0 0 0 16 57 121 203 336 448 537 897 1352 1492 1243 773 541 266 0 0 0 0 0 0 0 0 0
0 0 0 0 0 0 0 0 0 0 0 0 0 0 0 0 0 0 9 0 1 0 4 49 204 318 390 451 797 1410 1532 1279 716 407 223 0 0 0 10 6 0 0 0 0
0 0 0 0 0 0 0 0 0 0 0 0 0 0 0 0 1 6 11 8 0 0 0 17 68 176 281 371 723 1382 1490 1247 819 527 240 0 0 0 42 116 49 12 3 0
0 0 0 0 0 0 0 0 0 0 0 0 0 0 0 0 0 0 0 0 0 0 0 48 75 87 194 372 736 1173 1374 1232 839 630 229 0 0 3 8 75 0 5 0 3
0 0 0 0 0 0 0 0 0 0 0 0 0 0 0 0 0 0 0 0 0 0 0 2 72 125 203 517 859 1039 1197 1143 848 419 127 1 11 66 0 0 3 0 0 0
16 0 0 0 0 0 0 0 0 0 0 0 0 0 0 0 0 0 0 0 0 0 5 67 144 267 308 273 629 906 1044 1054 847 297 146 20 0 55 32 22 76 50 7 36
0 0 0 0 0 0 8 21 31 6 2 0 0 0 2 0 0 0 0 0 0 0 0 0 0 4 161 400 573 775 840 897 758 363 277 284 215 23 24 69 192 146 156 134
2 0 0 0 0 0 9 3 20 11 23 3 0 0 0 0 11 7 0 0 0 0 0 0 0 14 47 220 764 868 841 869 891 396 188 190 85 53 84 163 257 244 197 211
58 59 2 4 2 32 0 0 0 43 2 0 0 0 0 5 0 2 0 2 6 24 32 75 207 146 228 526 655 682 788 825 591 351 200 171 58 110 119 82 127 175 221 166
74 161 85 60 20 48 0 0 15 1 0 0 0 0 0 0 0 0 0 0 10 83 168 337 347 496 647 778 515 686 750 441 342 340 347 217 155 205 110 85 6 0 4 37
0 60 71 42 3 0 0 0 0 0 0 0 0 0 3 43 27 16 8 0 39 155 70 91 270 462 587 631 759 833 437 151 115 117 60 8 0 3 5 9 1 0 0 10
36 57 0 4 0 0 0 0 0 0 0 0 0 0 0 0 30 99 204 290 228 304 249 246 331 360 509 350 341 313 71 78 136 113 10 0 0 0 0 0 0 8 5 50
8 34 39 12 0 0 0 0 0 0 0 0 0 0 0 0 0 22 80 429 545 458 502 527 554 515 437 269 180 62 47 114 123 38 0 0 0 0 0 0 0 1 3 2
58 149 79 20 0 0 0 0 0 0 0 0 0 0 0 0 0 0 0 177 693 678 601 686 645 535 309 40 3 0 0 0 0 0 0 0 0 0 0 0 0 0 0 0

GFSCGP_con_mlcape_018.txt.gz
CAPE
0 0 0 0 0 0 0 26 22 32 36 60 89 112 70 139 200 207 263 351 486 485 432 473 462 597 520 569 664 697 850 979 989 871 979 1101 1175 1231 1227 1156 1270 1155 1118 1003
0 0 0 0 0 0 0 5 10 23 13 59 90 125 64 130 117 108 114 107 151 194 140 126 304 326 341 594 623 709 905 908 951 985 1012 1005 1064 1048 1191 1055 1013 1047 1125 1085
0 0 0 0 0 0 0 0 0 10 14 35 55 80 81 95 111 79 62 51 51 69 65 51 107 212 207 458 483 611 773 818 944 909 878 1004 946 854 736 751 971 1075 1102 934
0 0 0 0 0 0 0 0 0 0 4 1 57 5 46 57 73 106 99 94 75 70 78 71 83 132 189 237 350 569 624 733 824 773 897 1127 1141 690 612 379 312 571 787 779
0 0 0 0 0 0 0 0 0 0 4 20 44 12 16 55 43 96 116 102 96 79 91 99 90 93 135 194 182 315 435 529 761 881 1049 1004 1091 829 253 100 105 87 6 0
0 0 0 0 0 0 0 0 0 0 0 0 0 0 0 0 61 89 155 169 154 122 112 117 97 89 111 158 203 218 244 327 565 829 972 1089 1099 830 291 52 0 0 0 0
0 0 0 0 0 0 0 0 0 0 0 0 0 0 5 1 41 65 107 167 208 183 164 178 142 148 173 183 243 330 307 344 525 778 927 1218 1071 778 337 130 0 0 0 0
0 0 0 0 0 0 0 0 0 0 0 0 0 0 0 8 20 42 92 113 155 161 260 314 274 250 220 264 317 385 415 444 609 771 962 1079 1048 694 379 49 0 0 0 0
0 0 0 0 0 0 0 0 0 0 0 0 0 0 0 0 0 0 5 39 84 87 224 332 403 348 317 291 407 451 465 560 702 803 880 700 693 496 112 0 0 0 0 0
0 0 0 0 0 0 0 0 0 0 0 0 0 0 0 0 0 0 0 0 20 25 145 301 466 449 441 430 485 565 530 566 724 774 653 491 483 267 0 0 0 0 0 0
0 0 0 0 0 0 0 0 0 0 0 0 0 0 0 0 0 0 0 0 2 8 65 228 515 597 620 602 559 703 721 730 774 673 503 364 318 7 0 0 0 0 0 0
0 0 0 0 0 0 0 0 0 0 0 0 0 0 0 0 0 0 0 10 0 0 39 148 482 659 788 766 702 819 901 982 926 706 497 307 230 5 0 0 0 0 0 0
0 0 0 0 0 0 0 0 0 0 0 0 0 0 0 0 0 0 0 7 0 0 37 80 267 547 724 779 867 974 1052 1176 1136 775 523 311 232 0 0 0 0 0 0 0
0 0 0 0 0 0 0 0 0 0 0 0 0 0 0 0 0 0 0 0 0 0 20 41 120 296 500 530 808 1082 1203 1279 1137 779 631 404 196 0 0 5 0 8 3 0
0 0 0 0 0 0 0 0 0 0 0 0 0 0 0 0 0 0 0 0 0 0 6 46 104 160 279 362 455 731 1100 1282 1105 826 568 154 0 0 0 0 4 5 0 3
0 0 0 0 0 0 0 0 0 0 0 0 0 0 0 0 0 0 0 0 0 0 9 17 73 187 236 298 398 601 873 1182 1044 675 359 68 14 0 0 0 0 0 0 2
0 0 0 0 0 0 0 0 0 0 0 0 0 0 0 0 0 0 0 0 25 28 38 11 25 80 122 208 355 566 806 1070 997 693 218 42 7 0 0 0 0 0 12 47
22 0 0 0 0 0 0 0 0 0 0 0 0 0 0 0 0 0 0 0 14 33 35 55 47 26 32 186 359 468 712 924 913 717 331 44 0 0 0 0 0 0 1 0
0 0 0 0 0 0 0 0 0 0 0 0 0 0 0 0 0 0 0 0 0 0 0 35 43 95 150 172 257 474 711 879 880 717 458 127 0 0 0 1 0 0 0 1
0 0 0 0 0 0 0 0 0 0 5 0 0 0 0 0 0 0 0 0 0 0 0 0 15 40 99 141 279 262 470 685 739 628 491 257 24 0 5 7 19 4 1 10
0 3 0 0 0 0 0 0 0 23 15 0 0 0 0 7 0 0 0 0 0 1 2 16 31 41 96 231 279 340 526 678 637 558 462 282 144 40 15 42 19 17 14 47
0 47 25 0 17 42 0 0 15 2 0 0 0 0 0 0 0 0 0 0 31 49 94 196 297 330 436 476 383 282 495 550 471 472 435 338 235 208 81 86 46 59 99 36
5 26 8 0 0 0 0 0 0 0 0 0 0 0 3 35 72 82 16 4 5 48 59 145 139 189 302 428 486 529 352 385 450 369 350 307 163 116 63 86 43 12 7 0
83 6 1 0 0 0 0 0 0 0 0 0 0 0 0 0 0 10 40 67 40 81 83 125 199 243 389 419 538 535 370 421 353 268 128 62 100 35 0 0 0 0 0 0
86 88 17 0 0 0 0 0 0 0 0 0 0 0 0 0 0 0 16 181 180 181 274 334 303 414 498 447 471 365 396 307 276 192 7 0 0 0 0 0 0 0 0 0
0 54 8 2 0 0 0 0 0 0 0 0 0 0 0 0 0 0 0 242 441 540 385 253 258 525 396 380 376 240 142 146 194 80 0 0 0 0 0 0 0 0 0 0

GFSCGP_con_mlcape_021.txt.gz
CAPE
0 0 0 0 0 0 0 9 17 87 51 46 60 99 105 354 562 568 729 721 685 808 955 1028 1073 1151 1173 1137 1091 961 1056 1326 1595 1355 1213 1377 1441 1774 1867 1833 1374 1465 1129 1058
0 0 0 0 0 0 0 12 35 32 42 27 35 11 90 171 320 512 621 689 733 813 908 1007 1001 968 1083 1074 1000 1032 1040 1211 1404 1624 1536 1494 1686 1741 1809 1852 1871 1882 1871 1710
0 0 0 0 0 0 0 0 23 24 29 78 58 14 40 111 180 280 400 379 416 617 656 612 676 799 809 927 1042 1055 1101 1111 1250 1510 1708 1548 1468 1411 1454 1641 1742 1691 1721 1752
0 0 0 0 0 0 0 0 40 68 41 18 65 12 33 102 118 156 182 200 183 191 340 369 340 508 644 744 975 1030 1121 1148 1282 1584 1489 1390 1316 1432 1578 1438 1389 1790 1787 1601
0 0 0 0 0 0 0 0 0 43 49 42 20 28 19 11 68 92 124 175 147 122 139 143 168 266 377 527 757 870 1044 1047 1294 1527 1431 1406 1409 1628 1727 969 622 791 1046 1459
0 0 0 0 0 0 0 0 0 4 24 5 0 4 0 0 24 76 123 157 169 142 152 145 128 158 294 398 521 780 914 857 1153 1384 1376 1325 1385 1652 1285 799 384 436 371 262
0 0 0 0 0 0 0 0 0 0 0 0 0 1 0 22 25 65 116 115 137 159 133 151 200 200 298 378 457 573 749 746 1010 1201 1315 1400 1467 1704 1423 1050 400 231 147 54
0 0 0 0 0 0 0 0 0 0 0 0 0 0 1 41 59 50 93 143 149 130 139 169 244 278 345 397 509 557 597 677 864 902 1097 1497 1650 1711 1371 1193 467 210 99 28
0 0 0 0 0 0 0 0 0 0 0 0 0 0 0 0 0 0 14 50 99 153 224 194 274 354 434 513 538 638 684 725 805 915 1069 1269 1517 1578 1276 989 461 208 24 13
0 0 0 0 0 0 0 0 0 0 0 0 0 0 0 0 0 0 0 3 48 114 233 328 417 483 546 621 675 737 782 768 863 967 1144 1341 1418 1336 1373 623 179 3 16 22
0 0 0 0 0 0 0 0 0 0 0 0 0 0 0 0 0 0 0 0 0 32 123 281 548 648 646 687 791 859 885 930 1015 1004 1105 1252 1223 1062 496 416 9 0 0 0
0 0 0 0 0 0 0 0 0 0 0 0 0 0 0 0 0 0 0 0 0 0 35 242 602 767 755 820 834 888 1001 1036 1079 1181 1216 1075 763 344 594 159 7 0 0 0
0 0 0 0 0 0 0 0 0 0 0 0 0 0 0 0 0 0 0 0 0 16 33 183 528 738 836 909 976 998 1112 1175 1300 1383 1263 947 231 395 295 0 0 0 2 17
0 0 0 0 0 0 0 0 0 0 0 0 0 0 0 0 0 0 0 0 0 20 68 142 339 684 905 1054 1102 1152 1214 1348 1471 1556 1263 697 209 351 213 0 0 0 0 0
0 0 0 0 0 0 0 0 0 0 0 0 0 0 0 0 0 0 0 21 31 21 79 126 173 394 804 1052 1170 1290 1392 1521 1535 1769 1327 851 329 247 99 0 0 0 0 0
0 0 0 0 0 0 0 0 0 0 0 0 0 0 0 0 0 0 0 5 22 42 86 116 193 353 556 819 932 1266 1481 1655 1766 1607 1322 817 388 360 174 1 0 0 0 0
15 0 0 0 0 0 0 0 0 0 0 0 0 0 0 0 0 0 0 0 0 72 98 163 243 363 484 617 827 928 1235 1674 1727 1507 1232 599 520 514 278 1 0 0 0 0
24 17 0 0 0 0 0 0 0 0 0 0 0 0 0 0 0 0 0 0 0 88 189 241 230 341 452 533 659 890 1248 1534 1462 1351 1000 674 561 487 274 14 0 0 0 0
40 37 54 21 5 0 0 0 0 0 0 0 0 0 0 0 0 0 0 0 0 21 86 142 148 203 201 361 661 938 1222 1426 1469 1227 937 801 653 527 239 27 0 0 0 12
26 43 108 12 2 0 0 0 0 0 0 0 0 0 0 0 0 5 0 0 0 22 102 177 212 296 393 382 739 716 851 1027 1018 1153 977 845 686 526 284 87 14 11 2 1
153 120 93 23 0 0 0 0 15 0 0 0 0 0 0 4 3 1 0 4 25 60 138 242 381 355 394 453 393 362 516 542 876 1139 998 802 641 435 294 169 111 102 93 135
92 120 127 131 0 0 0 14 112 16 0 0 0 0 0 10 35 67 111 217 279 304 364 370 241 283 472 588 684 485 563 1155 1169 928 880 799 680 428 326 265 285 298 308 285
40 36 4 2 5 0 0 4 0 1 23 51 280 334 183 154 181 170 107 74 99 157 198 265 174 269 533 657 647 492 392 638 705 932 878 735 603 489 387 345 458 448 368 454
89 39 28 2 0 0 0 0 0 0 0 0 0 0 23 36 89 172 223 212 187 258 261 394 236 195 377 577 541 644 573 779 799 824 796 735 716 675 621 596 544 431 271 243
20 85 0 1 0 0 0 0 0 0 0 0 0 0 0 28 137 186 289 323 361 413 343 326 418 491 499 574 678 624 467 389 614 667 638 597 394 233 0 0 0 0 0 0
6 0 11 0 1 0 0 0 0 0 0 0 0 0 0 0 2 25 64 419 538 488 430 487 494 506 449 448 467 392 267 359 421 342 225 169 59 0 0 0 0 0 0 0

GFSCGP_con_mlcape_024.txt.gz
CAPE
0 0 0 0 0 0 5 0 5 38 191 200 159 200 270 597 540 401 506 479 343 451 587 808 959 989 1083 1195 1226 1281 1274 1414 1873 1814 1604 1462 1482 1482 1802 1848 1968 1701 1638 1314
0 0 0 0 0 0 0 0 6 83 175 152 130 180 183 209 583 446 351 445 480 453 604 783 947 963 1093 1264 1356 1487 1500 1715 2091 1875 1753 1488 1474 1515 1524 1769 1971 2100 2054 1826
0 0 0 0 0 0 0 0 4 68 164 154 87 86 112 54 162 635 487 314 385 522 445 634 812 958 1026 1245 1487 1579 1815 1788 2162 1946 1946 2076 2039 2045 1888 1683 1727 1669 2045 2005
0 0 0 0 0 0 0 0 2 82 100 55 142 22 25 75 160 371 585 276 310 493 656 615 663 823 1018 1106 1458 1684 1955 2153 2121 2317 1838 1849 1579 1165 840 980 815 917 1664 1806
0 0 0 0 0 0 0 0 0 51 74 90 108 106 36 77 129 225 461 342 105 146 131 231 381 429 719 961 1150 1549 1957 2302 2254 2277 2230 1943 1989 1263 1332 1364 1560 1286 1509 1844
0 0 0 0 0 0 0 0 0 12 69 78 73 62 15 37 145 125 227 380 155 39 54 51 66 125 386 640 838 1170 1858 2349 2438 2293 2492 2351 1927 1788 1268 1717 1542 661 469 1096
0 0 0 0 0 0 0 0 0 17 21 37 57 23 0 3 6 63 47 209 311 151 15 39 50 42 95 342 675 990 1755 2298 2390 2221 2223 2481 2404 2260 2199 2248 1754 378 176 195
0 0 0 0 0 0 0 0 0 5 12 28 11 0 0 46 40 17 9 48 170 337 213 89 185 239 304 476 827 1092 1579 2131 2280 2058 2219 2437 2539 2310 2282 2356 1606 687 62 104
0 0 0 0 0 0 0 0 0 13 25 21 0 0 0 14 36 0 9 29 76 269 354 340 357 487 542 772 1133 1426 1677 2048 2144 1959 2291 2376 2527 2399 1979 2065 2307 1105 540 144
0 0 0 0 0 0 0 0 0 0 13 16 0 2 0 1 0 0 0 13 49 104 268 379 477 547 738 891 1137 1490 1835 1853 1952 1867 2026 2050 2279 2433 2338 2366 2155 1151 657 213
0 0 0 0 0 0 0 0 0 0 0 5 0 0 0 0 0 0 0 0 6 34 136 362 511 589 861 983 1117 1496 1768 1935 1981 1938 1952 2019 2020 2237 2486 2179 1913 1205 511 208
0 0 0 0 0 0 0 0 0 0 0 0 1 0 0 0 0 0 0 0 0 0 54 174 527 686 797 1108 1172 1371 1602 1824 1983 2044 2277 2129 2069 2200 2243 2007 1272 641 125 12
0 0 0 0 0 0 0 0 0 0 0 0 0 0 0 0 0 0 0 0 0 196 159 174 459 763 934 1176 1428 1380 1608 1698 1842 2015 2146 2168 2168 2091 1683 1191 782 163 0 0
0 0 0 0 0 0 0 0 0 0 0 0 0 15 0 0 0 0 0 0 0 25 359 445 534 807 1136 1311 1718 1782 1640 1690 1788 1922 2073 2255 2302 1876 1467 1370 461 12 0 0
0 0 0 0 0 0 0 0 0 0 0 0 0 0 0 0 0 0 0 0 0 223 566 566 730 1015 1392 1566 1801 1951 1844 1840 1786 1951 2058 2252 2360 1649 1280 1612 583 20 0 0
0 0 0 0 0 0 0 0 0 0 0 0 0 0 0 0 0 0 0 0 0 69 659 768 900 1153 1574 1791 2031 2079 2004 1947 1963 2080 2260 2404 2227 1367 1499 1297 607 130 2 0
0 0 0 1 7 1 18 0 0 0 0 0 0 0 0 0 0 0 0 0 0 4 348 662 920 1083 1625 1861 2100 2129 2149 2108 2220 2349 2577 2480 2197 1635 1389 1291 867 442 34 1
0 1 0 2 44 53 0 0 0 0 0 0 0 0 0 0 0 0 0 0 14 34 97 669 1006 1218 1619 1702 1933 1957 2116 2316 2468 2605 2633 2476 2207 1653 1518 1380 1008 511 77 16
0 53 29 42 106 49 12 1 0 0 0 0 0 0 0 0 0 0 0 5 45 70 240 574 997 1198 1534 1441 1671 1844 1992 2301 2526 2552 2503 2344 1858 1743 1638 1455 1143 621 333 112
0 17 180 179 106 93 215 137 128 108 0 0 0 0 0 0 0 0 21 91 1 35 392 837 816 949 1327 1394 1588 1884 2118 2363 2308 2251 2270 2050 1838 1805 1725 1267 1146 816 579 333
100 81 48 66 153 182 139 68 202 23 38 118 0 0 0 0 0 93 129 168 250 455 738 877 915 1081 1319 1480 1833 2037 2074 2101 2183 2179 2101 2023 1855 1608 1408 1305 937 739 615 467
79 76 62 183 208 175 32 225 199 354 520 229 188 134 51 118 226 360 534 600 619 831 1020 1306 1526 1540 1312 1813 2071 2092 2067 2246 2283 2159 1927 1723 1662 1446 1166 992 702 503 383 335
196 171 175 395 397 38 35 174 209 356 407 707 421 311 320 361 467 558 654 775 816 921 1009 1218 1402 1553 1762 1938 1942 1526 1420 1764 1648 1731 1747 1417 1115 1135 992 775 702 535 479 489
627 576 385 169 28 31 7 0 6 12 70 204 582 611 511 428 402 394 406 485 588 685 736 880 1083 1297 1413 1546 1733 1363 1532 1711 1488 1621 1459 1118 978 825 725 772 728 692 618 601
44 359 355 106 9 0 0 0 0 0 0 3 140 374 556 649 737 791 853 776 823 890 1131 1324 1416 1247 1449 1669 1471 1538 1343 1485 1443 1337 1201 940 762 589 352 5 65 343 12 159
5 20 388 80 7 15 0 0 0 0 0 0 0 1 9 50 131 375 758 985 998 812 1005 956 1153 1289 1171 1404 1164 985 1377 1206 1218 1141 1041 864 736 620 537 89 0 0 0 0

GFSCGP_con_mlcape_027.txt.gz
CAPE
0 0 0 0 0 0 31 75 10 39 1 69 129 134 228 497 508 241 119 64 28 42 262 345 528 309 596 741 876 1073 1213 1406 1441 1378 1393 1319 1301 1495 1573 1299 1680 1917 1966 1886
0 0 0 0 0 0 0 43 49 29 43 4 121 178 171 434 534 381 255 137 26 10 62 344 574 467 646 829 1089 1295 1526 1819 1861 1591 1495 1202 1009 943 1510 1405 1102 2182 1844 1994
0 0 0 0 0 0 0 16 58 42 136 81 133 136 155 174 358 542 370 205 166 35 38 284 576 675 744 865 1200 1626 1960 2162 2198 1953 1817 1560 1902 1492 1331 536 568 757 1296 1015
0 0 0 0 0 0 0 0 15 48 47 80 24 141 106 93 112 224 499 480 165 123 55 145 517 717 686 843 1243 1745 2237 2460 2448 2339 1869 1668 1449 921 487 498 565 575 726 670
0 0 0 0 0 0 0 0 11 45 78 96 73 77 46 24 45 23 275 582 412 240 138 79 218 536 675 755 1040 1520 2420 2753 2590 2596 2107 1862 1544 783 764 642 1347 1107 1081 808
0 0 0 0 0 0 0 0 38 44 68 70 114 99 68 10 52 87 149 353 522 242 306 306 202 327 579 673 856 1238 2282 2971 3188 2943 2896 2551 2238 1287 1067 860 1398 863 398 738
0 0 0 0 0 0 0 0 13 24 34 37 45 98 19 66 84 89 73 114 355 468 196 294 262 199 428 643 846 1027 1982 2968 3476 3195 2993 2890 2795 2612 2051 1894 1307 1057 231 227
0 0 0 0 0 0 0 0 1 8 14 20 34 41 50 91 79 28 7 57 114 443 332 163 201 117 215 446 873 1092 1539 2785 3417 3328 3147 3242 3290 2328 2076 1920 1394 1008 264 96
0 0 0 0 0 0 0 0 0 10 30 41 40 30 11 14 9 82 40 21 49 185 359 320 220 169 92 262 715 1016 1322 2513 3224 3171 3469 3326 3313 2806 1749 1737 2231 1691 755 165
0 0 0 0 0 0 0 0 0 0 3 22 31 24 16 36 0 38 40 6 0 16 111 336 349 306 254 155 477 1028 1396 2528 3081 3101 3403 3151 3150 3169 2801 2734 2604 1952 1290 407
0 0 0 0 0 0 0 0 0 0 0 12 34 41 49 38 14 0 0 0 11 16 44 153 424 495 600 471 518 994 1652 2265 3051 3108 3090 2904 2952 2875 2970 2599 2660 2502 1930 1037
0 0 0 0 0 0 0 0 0 0 0 1 16 31 35 0 20 8 25 27 19 8 16 43 174 498 663 945 729 804 1227 1776 2551 2716 3161 3032 3023 2893 2795 2854 2805 2930 2180 1411
0 0 0 0 0 0 0 0 0 0 0 0 8 0 0 3 13 6 10 0 0 1 29 38 75 295 746 1219 1231 1073 1331 1227 1845 2602 2751 3145 3169 2980 2733 2955 2958 2847 2226 1364
0 0 0 0 0 0 0 0 0 0 0 0 0 18 34 6 10 16 1 0 0 0 2 195 167 65 776 1182 1609 1618 1470 1222 1566 2001 2394 2916 3273 3196 3034 3161 2942 2677 1939 1123
0 0 0 0 0 0 0 0 0 0 0 0 0 5 16 22 16 20 3 0 0 0 0 303 676 575 1329 1404 1997 1963 2091 1919 1727 2257 2536 2954 3414 3394 3381 2979 2829 2450 1716 822
0 0 0 0 0 0 0 0 0 0 0 0 0 0 18 28 20 18 0 0 0 0 0 173 900 984 1244 1662 2135 2493 2315 2329 2314 2594 2751 3011 3505 3516 3242 2873 2788 2219 1378 668
0 0 0 0 0 7 4 0 0 0 0 0 0 0 0 0 0 0 0 0 0 0 0 0 772 1289 1588 1784 2283 2523 2681 2651 2623 3018 2882 3238 3572 3492 3152 2760 2537 2316 1397 773
0 0 1 3 18 36 0 0 0 2 1 0 0 0 0 0 0 0 0 0 0 0 0 2 238 1202 1516 1819 2086 2447 2591 2802 2966 2941 3213 3459 3369 3312 2798 2422 2660 2361 1736 954
0 18 4 14 18 26 13 15 21 35 1 0 2 0 0 0 0 0 0 0 0 0 0 8 0 738 1453 1848 2335 2688 2842 2924 3091 3110 3361 3321 3318 3137 2783 2260 2415 2293 1957 1258
7 48 58 23 12 12 21 356 334 148 1 7 25 35 0 0 0 0 0 0 0 0 0 12 75 398 1467 2053 2176 2787 2811 3069 3165 3151 3323 3286 3077 2780 2436 2282 2207 2142 1771 1389
0 13 36 87 65 26 541 260 177 44 116 672 520 312 152 57 0 0 68 4 54 36 230 271 607 980 2018 2292 2436 2742 2794 2971 3042 3041 2975 2973 2659 2508 2489 2137 2198 1627 1168 843
0 0 5 28 56 95 198 356 190 501 1022 1087 820 538 347 374 8 0 320 349 474 466 775 731 1115 1402 2083 2353 2696 2813 3032 3135 2859 2632 2576 2597 2597 2375 2261 1884 1528 1197 865 867
0 0 3 44 23 605 340 924 548 527 706 945 918 712 595 454 483 579 765 815 915 1214 1395 1304 1550 2014 2134 2653 2989 2919 3071 2907 2777 2651 2681 2727 2550 2066 1743 1263 1060 930 804 970
15 2 110 638 479 242 68 129 132 364 546 890 959 862 833 780 840 952 1172 1261 1410 1782 2096 2255 2065 2351 2593 2829 2976 3028 2874 2911 2746 2792 2342 2009 1715 1533 1293 986 893 982 841 798
0 0 431 615 158 110 23 0 25 160 609 939 1097 1178 1197 1141 1069 1008 1020 1069 1062 1205 1601 1866 2115 2234 2384 2405 2378 2499 2493 2534 2328 1973 1867 1520 1459 1399 926 207 405 961 437 429
0 9 90 373 236 249 6 16 21 20 43 119 230 291 451 896 1252 1323 1241 1360 1466 1565 1711 2023 2128 2088 2199 2184 2138 2284 2237 2100 1889 1609 1463 1069 923 797 696 394 5 0 0 0

GFSCGP_con_mlcape_030.txt.gz
CAPE
0 0 0 0 0 0 0 0 0 4 5 20 121 73 0 0 128 9 0 0 17 37 74 181 283 397 445 681 1040 1101 1296 1242 2243 2106 1748 1328 1569 1351 1522 1082 2027 1819 1652 1812
0 0 0 0 0 0 0 0 24 24 27 0 17 211 171 22 136 59 16 0 0 4 45 188 383 412 416 682 951 1471 1374 1980 1549 1658 1413 1176 1322 1584 1741 1679 1679 1438 1885 1747
0 0 0 0 0 0 0 0 1 2 5 7 16 25 113 296 226 78 56 33 5 0 0 242 426 459 424 817 1158 1340 1543 2049 1570 1868 1216 1578 1902 2004 1756 1903 1500 2132 1905 1678
0 0 0 0 0 0 0 0 0 19 2 6 19 37 76 134 417 194 73 63 76 18 2 33 325 657 536 833 1399 1576 1774 1850 2229 1486 2201 1634 1241 1739 842 430 634 1218 1560 1009
0 0 0 0 0 0 0 0 0 0 3 21 58 10 56 173 148 246 91 83 70 124 35 13 202 509 626 858 1340 1893 2052 2148 2455 1683 2233 2114 1543 685 1328 803 1136 940 989 654
0 0 0 0 0 0 0 0 0 0 0 2 55 0 0 58 72 74 43 7 316 110 128 44 66 462 722 797 1261 1706 2304 2350 2542 2679 1885 2163 1876 1254 1130 1005 1620 1199 1192 865
0 0 0 0 0 0 0 0 0 0 0 0 18 31 23 57 50 11 0 10 337 447 212 199 99 278 853 907 958 1682 2614 2654 2674 2915 2917 1852 2291 2176 1041 1712 1914 1185 609 939
0 0 0 0 0 0 0 0 0 0 0 4 1 12 12 81 6 0 0 16 63 324 328 385 364 252 785 955 1065 1335 2366 2885 3056 2797 3257 3011 2092 2786 2577 1826 2050 1204 1118 608
0 0 0 0 0 0 0 0 0 0 0 3 18 22 3 69 52 0 3 34 13 30 337 324 623 661 587 1025 1120 1245 2231 2786 3187 3404 3300 3403 3282 2441 2681 2319 1726 2071 1052 1295
0 0 0 0 0 0 0 0 0 0 0 0 0 6 21 70 29 2 1 25 19 1 259 347 331 655 627 843 1221 1367 1643 2830 3342 3523 3558 3360 3590 3412 2801 2423 2178 1531 1927 1135
0 0 0 0 0 0 0 0 0 0 0 0 0 2 25 13 93 64 10 18 20 0 255 405 370 419 525 589 1001 1319 1583 2496 3304 3654 3611 3554 3512 3785 3160 2734 2287 2624 1743 1419
0 0 0 0 0 0 0 0 0 0 0 0 0 0 1 84 79 65 27 6 21 0 0 37 420 527 630 527 715 1119 1497 1624 2924 3506 3489 3597 3738 3729 3590 2545 3044 2955 2338 2091
0 0 0 0 0 0 0 0 0 0 0 0 0 0 0 0 0 0 0 0 0 6 8 33 266 610 775 678 596 779 1157 1477 2194 3191 3366 3544 3639 3583 3414 3308 2528 3046 2855 2576
0 0 0 0 0 0 0 0 0 0 0 0 0 0 0 33 1 3 0 5 18 12 23 55 26 360 799 954 896 895 1089 1517 1833 2782 3086 3273 3612 3494 3362 3384 3296 3080 3332 3003
0 0 0 0 0 0 0 0 0 0 0 0 0 0 0 1 53 11 24 0 9 3 4 7 82 277 411 1389 1387 1291 1290 1403 1721 2350 2840 3194 3665 3592 3578 3420 3486 3326 3366 3135
0 0 0 0 0 0 0 0 0 0 0 0 0 0 0 0 33 159 4 0 0 15 6 100 213 540 474 1619 1919 1607 1595 1566 1577 1881 2567 2935 3369 3792 3795 3664 3536 3425 3300 2955
0 0 0 0 0 0 0 0 0 0 0 0 0 0 0 0 2 62 125 11 142 38 0 32 576 895 1118 1847 2229 2073 1912 2121 1652 2003 2319 2738 3266 3786 3843 3827 3598 3508 3276 2725
30 0 0 0 0 0 0 0 0 0 0 0 0 0 0 0 0 0 0 35 55 74 2 5 0 894 1449 1727 2051 2823 2449 2475 2327 2439 2772 3065 3572 3972 4031 3893 3692 3400 3185 2436
0 4 0 0 0 0 0 0 0 1 0 2 0 0 0 0 0 0 0 0 0 0 17 97 22 31 1091 1525 1861 2423 3071 2704 2827 2822 3519 3627 3873 4264 4097 3813 3521 3089 3061 2201
0 28 6 0 1 0 0 0 2 8 1 4 2 5 4 45 11 0 0 0 0 0 0 0 15 18 162 1292 2136 2604 2803 3222 2973 3457 3466 3936 4303 4163 3919 3559 3151 3058 3044 2223
0 0 0 4 3 0 3 29 91 103 272 782 487 298 165 143 217 323 164 37 0 2 0 0 5 224 588 1558 2205 2940 3106 3367 3383 3706 3916 4059 4033 3994 3736 3018 2518 2468 2502 2214
28 27 11 37 28 19 124 278 109 684 974 1048 977 803 627 521 335 254 488 146 331 434 468 310 399 511 2519 2259 2617 3407 3554 3699 3692 3597 3911 3824 3758 3211 2985 2523 2046 2113 2013 1734
4 0 7 25 67 356 163 1031 874 601 643 961 871 659 485 433 407 165 1006 1062 821 969 1344 1341 1013 2490 3300 3506 3503 3555 3860 3683 3641 3575 3550 3214 2835 2675 2384 2085 2025 1539 1310 1123
52 67 124 27 14 401 346 169 473 639 836 964 971 801 701 635 512 830 1306 1497 1531 1853 2179 2186 2638 3138 3635 3692 3739 3971 3701 3394 3213 3186 3070 2931 2481 2116 1825 1600 1371 1074 922 905
18 0 66 135 475 538 388 347 363 604 893 1052 1455 1610 1797 1732 1859 1907 2012 1994 1967 2283 2762 2815 3112 3273 3682 3848 3721 3632 3388 3258 3096 2989 2434 2041 1711 1409 608 186 332 888 383 586
4 4 2 183 109 52 178 167 462 472 600 726 912 1160 1353 1640 1659 1703 1786 1993 2159 2462 2589 2775 2913 2949 3130 3032 2779 2467 2909 3060 2589 2071 1759 1460 1158 737 404 382 157 0 0 0

GFSCGP_con_mlcape_033.txt.gz
CAPE
0 0 0 0 0 0 0 0 0 0 15 10 28 6 0 0 0 0 12 22 53 39 44 117 126 388 500 635 764 619 845 1400 1314 1331 1157 1281 1476 1049 1081 1340 1551 1334 1303 1386
0 0 0 0 0 0 0 0 0 15 28 6 2 1 0 0 2 0 0 0 12 29 13 116 127 197 377 491 764 677 773 1294 1436 1315 1251 1192 1174 1114 728 815 1446 1526 1333 1084
0 0 0 0 0 0 0 0 0 2 1 0 0 0 0 0 2 36 0 0 0 22 30 63 119 197 277 423 698 810 860 1143 1483 1605 1422 1122 985 875 1117 1395 1412 1458 1309 1288
0 0 0 0 0 0 0 0 0 0 0 0 1 6 8 0 40 43 13 0 0 1 24 56 204 244 325 491 742 853 968 1156 1414 1567 1295 908 808 1547 1476 1529 1495 1525 1365 1468
0 0 0 0 0 0 0 0 0 0 0 21 8 0 42 101 126 29 0 0 0 0 0 50 170 247 373 502 720 1039 996 1313 1231 1261 1292 817 785 1097 1284 990 1063 1351 1516 1204
0 0 0 0 0 0 0 0 0 0 0 12 0 0 1 8 97 74 36 38 2 1 0 7 102 322 304 599 890 1151 1066 1153 1391 1126 1081 1693 1468 985 514 614 942 1187 944 850
0 0 0 0 0 0 0 0 0 0 0 0 0 0 0 43 0 188 154 31 27 1 0 0 67 320 426 518 1131 1269 1212 1161 1504 1371 1064 1334 1961 1422 717 1262 837 626 501 403
0 0 0 0 0 0 0 0 0 0 0 0 0 4 8 6 9 105 69 71 9 68 1 0 0 170 517 545 1020 1560 1529 1370 1593 1630 1268 1018 1650 2218 1383 1186 1685 940 775 449
0 0 0 0 0 0 0 0 0 0 0 0 0 0 0 0 62 21 28 0 4 5 112 24 22 62 477 564 1032 1440 1846 1688 1819 1860 1707 1327 1120 1433 2225 2051 1223 1629 863 685
0 0 0 0 0 0 0 0 0 0 0 0 0 0 0 27 41 26 12 16 0 3 10 89 37 46 454 632 778 1368 2113 2027 2012 1974 2170 2024 1668 1616 1772 2343 2147 1210 1618 1158
0 0 0 0 0 0 0 0 0 0 0 0 0 0 0 11 75 35 37 46 16 0 3 87 266 162 365 735 881 1035 2019 2270 2382 2262 2202 2376 2452 2139 2026 1900 2294 1662 1424 1455
0 0 0 0 0 0 0 0 0 0 0 0 0 0 0 0 95 53 67 29 30 14 40 11 265 444 325 758 978 1119 1994 2246 2545 2596 2600 2480 2613 2968 2564 2230 2038 1999 1654 1497
0 0 0 0 0 0 0 0 0 0 0 0 0 0 0 0 22 84 89 0 13 4 4 22 150 533 711 819 1097 1201 1752 2190 2394 2745 2878 2911 2811 2818 3030 2698 2575 2151 2009 1662
2 0 0 0 0 0 0 0 0 0 0 0 0 0 0 0 5 60 109 22 2 0 0 28 253 288 659 684 1069 1213 1427 2094 2457 2788 2913 2913 2962 2955 2960 3324 2825 2678 2523 2158
0 0 0 0 0 0 0 0 0 0 0 0 0 0 0 0 0 130 93 46 5 2 39 17 285 413 564 568 715 1064 1392 1470 2326 2544 2850 2857 3016 3143 3259 3269 3284 2596 2812 2600
0 0 0 0 0 0 0 0 0 0 0 0 0 0 0 0 12 65 136 37 28 61 41 78 196 588 625 616 594 803 1122 1425 1435 2314 2533 2969 2915 3287 3355 3312 3254 3125 2595 2891
0 0 0 0 0 0 0 0 0 0 0 0 0 0 0 0 0 0 89 53 35 10 22 28 64 199 683 764 793 800 855 1095 1383 1409 2341 2763 2979 3115 3324 3370 3295 3305 3044 3077
0 0 0 0 0 0 0 0 0 0 0 0 0 0 0 0 0 8 11 44 19 18 24 3 157 243 332 1004 1183 990 969 1073 1408 1670 1901 2548 2755 3144 3402 3491 3443 3398 3320 3168
0 0 0 0 0 0 0 0 0 0 0 0 0 0 0 0 0 0 0 0 0 0 1 39 329 427 563 1434 1662 1617 1308 1352 1271 1662 1989 2496 2754 3166 3446 3596 3617 3497 3364 3042
0 0 0 0 0 0 0 0 0 0 0 31 9 0 0 0 0 0 58 7 0 0 0 0 0 0 821 1063 2189 2083 1834 1839 1644 1600 2021 2340 2795 3252 3591 3708 3679 3412 3166 2838
0 0 0 0 0 0 0 0 0 0 14 437 235 159 95 45 105 68 24 119 47 24 0 0 0 0 109 790 1888 2346 2314 2064 2410 2388 2907 2909 3236 3638 3861 3720 3495 3309 2850 2522
33 3 0 0 6 1 0 3 134 959 883 790 593 464 264 190 52 24 430 562 658 768 819 775 132 40 116 109 1497 1795 2417 2672 2757 3399 3513 3884 3935 3945 3651 3370 3090 2823 2545 2177
6 3 2 15 49 207 657 705 731 663 761 628 696 438 289 188 12 827 1147 1063 961 959 1074 1348 1897 1696 1905 1553 1429 1683 2750 3470 3539 3693 3867 3959 3672 3362 3089 2798 2208 2040 2112 1853
14 11 0 47 27 56 39 48 186 502 806 1436 1691 1430 1370 1389 1598 1692 1582 1639 2155 2308 2387 2519 2862 2537 3000 3587 3511 3550 3809 3739 3676 3695 3481 3044 2821 2514 2124 1618 1611 1611 1541 1428
0 1 0 19 41 438 323 1 48 261 1382 1496 1637 1737 1750 1562 1794 1782 1850 2213 2705 2790 3314 3496 3490 3762 3792 3824 3866 3770 3668 3567 3396 3056 2440 2054 1697 1254 900 660 977 1159 757 923
0 1 3 1 1 0 3 0 38 974 885 1059 1325 1483 1570 1732 1796 1742 1900 2313 2529 2699 2923 3370 3705 3735 3706 3611 3478 3295 3047 2757 2520 2029 1724 1251 878 754 648 501 126 0 19 60

GFSCGP_con_mlcape_036.txt.gz
CAPE
0 0 0 0 0 0 0 0 0 0 0 2 0 0 0 239 335 364 338 256 193 86 120 54 430 464 307 198 460 629 714 606 392 513 394 380 312 406 1017 1023 761 981 1014 1243
0 0 0 0 0 0 0 0 0 0 5 7 3 0 0 1 147 185 225 188 157 103 84 100 185 355 300 218 472 517 652 618 573 709 645 613 455 661 792 1012 1171 1182 1178 978
0 0 0 0 0 0 0 0 0 0 0 6 8 6 0 0 0 0 81 107 80 58 27 66 75 224 319 236 419 425 548 768 767 913 955 792 726 779 895 964 843 1080 1124 982
0 0 0 0 0 0 0 0 0 0 0 1 0 0 2 0 0 0 0 40 45 37 10 21 82 163 279 301 389 400 562 900 922 1041 1026 837 771 672 594 656 937 1125 1245 1180
0 0 0 0 0 0 0 0 0 0 0 0 2 0 0 0 0 0 0 0 25 15 15 8 55 74 172 259 432 461 508 905 1003 1091 1045 891 756 522 617 987 1276 1207 1215 1203
0 0 0 0 0 0 0 0 0 0 0 0 0 0 0 0 2 1 0 0 0 5 0 0 21 36 49 222 424 543 576 785 976 1068 1069 968 860 559 522 1059 1135 1064 1241 1258
0 0 0 0 0 0 0 0 0 0 0 0 0 0 0 0 1 25 0 7 3 0 0 0 0 30 56 173 431 614 651 781 902 1051 1079 998 796 596 434 689 986 714 849 1072
0 0 0 0 0 0 0 0 0 0 0 0 0 0 0 0 0 2 18 7 15 0 0 0 0 30 43 175 497 730 683 784 897 930 1062 1175 1006 717 634 827 618 696 694 936
0 0 0 0 0 0 0 0 0 0 0 0 0 0 0 0 0 3 26 52 6 0 0 0 0 1 70 187 545 719 766 767 1029 982 861 921 1115 1298 1372 1184 979 832 606 430
0 0 0 0 0 0 0 0 0 0 0 0 0 0 0 0 0 0 1 69 3 0 0 0 0 5 132 176 540 755 848 799 949 1137 1096 1005 890 1080 1601 1563 1313 971 496 503
0 0 0 0 0 0 0 0 0 0 0 0 0 0 0 0 0 0 22 80 43 6 9 0 0 0 77 329 464 1008 978 983 1041 1235 1322 1272 1095 829 1276 1739 1901 1495 1155 865
0 0 0 0 0 0 0 0 0 0 0 0 0 0 0 0 0 0 0 45 72 19 29 27 42 53 29 257 444 962 1311 1216 1207 1390 1416 1485 1451 1276 835 1288 1688 1910 1718 1222
0 0 0 0 0 0 0 0 0 0 0 0 0 0 0 0 0 0 12 3 22 21 0 37 108 31 25 206 461 795 1341 1516 1538 1686 1638 1763 1847 1776 1502 1173 1209 1449 1682 1542
0 0 0 0 0 0 0 0 0 0 0 0 0 0 0 0 0 0 0 51 59 33 25 1 25 101 160 290 512 601 1082 1799 1857 2001 1938 1848 1977 2099 2007 1907 1612 1491 1622 1721
0 0 0 0 0 0 0 0 0 0 0 0 0 0 0 0 0 0 1 38 108 85 9 13 0 0 132 328 612 731 837 1673 2080 2272 2241 2121 2144 2298 2361 2385 2278 2002 1780 1790
0 0 0 0 0 0 0 0 0 0 0 0 0 0 0 0 0 0 0 3 57 13 0 0 0 0 96 307 692 808 925 1548 1995 2294 2392 2523 2542 2562 2520 2597 2694 2439 2184 2160
0 0 0 0 0 0 0 0 0 0 0 0 0 0 0 0 0 0 0 0 5 27 0 22 3 3 215 422 723 887 1029 1292 2050 2130 2434 2646 2757 2725 2726 2727 2842 2743 2455 2495
0 0 0 0 0 0 0 0 0 0 0 0 0 0 0 0 0 0 0 0 0 0 4 15 126 219 319 438 550 910 1105 1306 1635 2320 2403 2745 2810 2757 2863 2941 2879 2880 2706 2534
0 0 0 0 0 0 0 0 0 0 0 0 0 0 0 0 0 0 0 0 0 0 0 0 48 387 563 569 446 620 855 1201 1544 1766 2247 2422 2728 2688 2950 2923 2946 2944 2985 2701
0 0 0 0 0 0 0 0 0 0 0 0 0 0 0 0 0 0 0 0 0 0 0 0 17 318 211 224 475 684 656 906 1171 1486 1561 2235 2644 2724 2856 2965 3016 3065 3064 2816
4 14 1 0 0 0 0 0 0 0 0 2 0 0 0 0 0 0 0 0 0 0 0 0 0 10 246 583 1315 982 875 870 941 1196 1451 1592 2358 2563 2823 3067 3137 3125 3017 2666
2 10 0 0 0 0 1 0 0 47 494 142 28 17 0 12 20 56 8 149 198 55 16 0 0 0 0 222 852 1282 1219 1230 1234 1155 1367 1761 2140 2496 2836 3151 3217 3015 2910 2618
10 10 0 0 21 5 0 0 5 356 475 261 110 22 14 8 468 590 500 610 869 801 668 886 101 0 0 3 996 1033 998 1415 1686 1628 1654 1911 2304 2717 3228 3257 3041 2899 2536 2285
3 24 1 0 11 0 0 0 0 369 1290 1139 618 428 335 799 1332 1519 1741 1867 1776 1500 1138 1551 1651 1103 865 1171 638 945 1553 1890 2076 2123 2678 2872 2947 3106 3150 3032 2714 2438 1882 1364
19 40 0 0 0 0 0 0 0 991 1350 1415 1501 1508 1496 1610 1795 1995 2110 2256 2443 2472 2590 2588 2459 2302 1927 2307 2209 2151 2293 2716 3063 3161 3155 3014 2521 2408 1552 993 1179 1541 830 821
2 8 0 0 1 13 1 2 0 21 134 405 1154 1407 1361 1623 1901 2122 2110 2294 2456 2343 2783 3092 3358 3483 3287 3237 3163 3128 3119 3003 2761 2536 2232 1664 1266 361 361 23 33 3 95 481

GFSCGP_con_mlcape_039.txt.gz
CAPE
0 0 0 0 0 0 0 0 0 0 0 0 0 0 107 318 294 452 468 402 377 243 221 292 327 414 380 235 231 300 369 372 310 365 548 868 739 548 628 846 875 806 997 1086
0 0 0 0 0 0 0 0 0 0 0 0 0 0 53 251 228 206 245 325 282 171 103 224 223 326 320 194 211 286 441 446 383 339 543 772 668 556 443 697 817 798 931 1275
0 0 0 0 0 0 0 0 0 0 0 0 0 0 34 191 217 209 152 89 81 143 64 31 143 325 401 256 235 354 418 422 409 410 532 612 462 379 367 580 971 924 971 969
0 0 0 0 0 0 0 0 0 0 0 0 0 0 0 24 68 132 195 171 123 71 47 20 54 169 291 281 253 309 345 389 349 387 479 409 433 409 323 561 699 782 1139 1101
0 0 0 0 0 0 0 0 0 0 0 0 0 0 0 0 0 0 25 107 69 91 60 38 13 66 148 225 202 233 201 357 458 504 506 523 571 514 384 365 595 809 875 937
0 0 0 0 0 0 0 0 0 0 0 0 0 0 0 0 0 0 0 0 18 37 35 40 27 36 107 175 104 249 228 372 509 487 568 648 654 567 523 409 472 590 804 948
0 0 0 0 0 0 0 0 0 0 0 0 0 0 0 0 0 0 0 0 0 11 4 19 9 8 56 163 167 238 269 403 560 580 643 676 691 580 557 345 420 954 1110 1131
0 0 0 0 0 0 0 0 0 0 0 0 0 0 0 0 0 0 0 0 0 0 0 0 0 0 14 75 148 269 290 354 670 745 726 723 717 656 599 497 300 637 939 760
0 0 0 0 0 0 0 0 0 0 0 0 0 0 0 0 0 0 0 0 0 0 0 0 0 0 0 10 70 214 366 370 590 755 808 746 722 694 646 543 341 376 791 833
0 0 0 0 0 0 0 0 0 0 0 0 0 0 0 0 0 0 0 0 0 0 0 0 0 0 0 0 10 125 354 413 495 691 807 807 744 739 758 604 450 455 659 621
0 0 0 0 0 0 0 0 0 0 0 0 0 0 0 0 0 0 0 0 0 0 0 0 0 0 0 12 8 134 382 474 544 681 778 850 889 980 1012 941 598 556 835 576
0 0 0 0 0 0 0 0 0 0 0 0 0 0 0 0 0 0 0 0 0 0 2 4 0 0 0 0 16 195 391 580 584 756 808 776 770 838 991 1108 963 895 967 662
0 0 0 0 0 0 0 0 0 0 0 0 0 0 0 0 0 0 0 0 0 0 0 0 0 0 0 0 32 206 470 593 696 760 934 959 896 831 775 926 1051 1206 1214 1115
0 0 0 0 0 0 0 0 0 0 0 0 0 0 0 0 0 0 0 0 0 0 0 0 0 0 0 0 55 136 540 692 792 834 969 1042 1080 993 852 832 880 1039 1401 1377
0 0 0 0 0 0 0 0 0 0 0 0 0 0 0 0 0 0 0 0 0 0 0 0 20 1 2 0 51 167 467 907 975 987 1084 1080 1192 1199 1144 1070 940 896 1121 1507
0 0 0 0 0 0 0 0 0 0 0 0 0 0 0 0 0 0 0 0 0 0 0 0 0 0 17 38 87 187 321 784 1228 1218 1206 1348 1348 1445 1476 1468 1421 1295 1096 1126
0 0 0 0 0 0 0 0 0 0 0 0 0 0 0 0 0 0 0 0 0 0 0 0 0 0 2 70 162 290 398 683 1296 1372 1501 1621 1629 1635 1728 1858 1854 1779 1632 1447
0 0 0 0 0 0 0 0 0 0 0 0 0 0 0 0 0 0 0 0 0 0 0 0 0 0 0 0 94 324 571 686 1241 1474 1666 1899 1928 1894 1914 1989 2012 2127 2093 1870
0 0 0 0 0 0 0 0 0 0 0 0 0 0 0 0 0 0 0 0 0 0 0 0 0 0 0 0 71 391 692 849 1147 1476 1714 2082 2149 2125 2218 2230 2152 2252 2388 2209
0 0 0 0 0 0 0 0 0 0 0 0 0 0 0 0 0 0 0 0 0 0 0 0 0 0 37 133 326 583 795 954 1023 1480 1668 1957 2228 2270 2360 2351 2373 2379 2466 2347
0 0 0 0 0 0 0 0 0 0 0 0 0 0 0 0 0 0 0 0 0 0 0 0 0 6 15 200 400 485 731 798 1022 1223 1688 2038 2264 2400 2438 2507 2592 2608 2603 2566
1 0 0 0 0 0 0 3 1 0 0 0 0 0 0 0 0 0 0 0 0 0 0 0 0 0 21 375 573 373 392 565 831 1132 1283 1513 1987 2360 2568 2594 2715 2747 2725 2606
0 19 0 0 0 0 0 0 0 0 2 0 17 0 0 0 0 0 0 0 0 0 24 0 0 0 0 256 736 409 296 431 534 795 1009 1110 1295 1917 2337 2538 2687 2806 2806 2626
0 26 17 3 15 0 0 0 0 0 33 810 278 24 14 6 99 118 413 597 642 1060 1204 1726 1602 1429 1330 1710 295 981 1156 989 797 532 724 1006 1137 1541 2207 2563 2779 2889 2818 2458
0 69 6 0 0 0 0 0 0 0 0 707 703 575 821 983 1125 1382 1534 1592 1750 1489 1494 1613 1609 1939 2230 2608 2605 2725 1888 1388 1460 1401 1215 1209 1419 1716 1183 385 405 1659 1472 1887
7 50 77 0 0 0 0 0 0 2 1 143 779 1077 1063 1276 1654 1945 1990 2210 2342 2357 2690 2579 2595 2611 2601 2574 2428 2482 2870 2797 2539 2465 2431 2132 1336 922 667 446 192 66 125 398

GFSCGP_con_mlcape_042.txt.gz
CAPE
0 0 0 0 0 0 0 0 0 0 0 0 0 0 0 164 344 393 324 153 132 106 140 240 275 363 324 336 354 225 239 159 88 74 0 151 323 411 669 565 660 544 671 913
0 0 0 0 0 0 0 0 0 0 0 0 0 0 19 107 131 270 362 318 174 100 129 118 157 235 234 183 263 248 174 212 147 165 196 349 386 361 615 573 689 796 707 864
0 0 0 0 0 0 0 0 0 0 0 0 0 0 0 107 183 281 374 358 305 187 98 74 99 173 297 187 149 194 158 118 205 153 170 278 414 503 587 503 597 614 729 829
0 0 0 0 0 0 0 0 0 0 0 0 0 0 0 3 35 103 157 314 307 219 117 60 78 97 195 254 151 109 131 179 165 237 186 226 306 507 599 574 489 635 730 772
0 0 0 0 0 0 0 0 0 0 0 0 0 0 0 0 9 54 100 85 101 135 83 40 22 58 78 158 156 90 93 171 171 232 312 268 339 372 392 312 265 427 764 921
0 0 0 0 0 0 0 0 0 0 0 0 0 0 0 0 0 0 38 90 106 70 43 32 2 8 15 111 162 66 121 170 237 209 293 339 340 306 313 280 366 355 576 624
0 0 0 0 0 0 0 0 0 0 0 0 0 0 0 0 0 0 0 0 42 112 76 34 22 2 14 66 145 104 147 205 254 252 239 318 347 325 348 400 398 184 292 564
0 0 0 0 0 0 0 0 0 0 0 0 0 0 0 0 0 0 0 0 0 1 26 50 38 5 0 16 83 75 107 157 228 261 237 322 406 409 406 453 445 328 231 413
0 0 0 0 0 0 0 0 0 0 0 0 0 0 0 0 0 0 0 0 0 0 0 0 21 11 0 2 36 52 80 95 152 279 290 353 447 474 423 498 444 451 317 580
0 0 0 0 0 0 0 0 0 0 0 0 0 0 0 0 0 0 0 0 0 0 0 0 0 0 0 0 15 53 50 76 92 297 390 410 430 456 497 515 485 453 420 359
0 0 0 0 0 0 0 0 0 0 0 0 0 0 0 0 0 0 0 0 0 0 0 0 0 1 0 0 0 18 45 102 106 326 482 543 544 568 534 539 491 498 480 421
0 0 0 0 0 0 0 0 0 0 0 0 0 0 0 0 0 0 0 0 0 0 0 0 0 0 0 0 1 0 19 123 188 241 526 627 644 655 554 525 525 519 556 458
0 0 0 0 0 0 0 0 0 0 0 0 0 0 0 0 0 0 0 0 0 0 0 0 0 0 0 0 0 0 7 57 216 317 461 643 718 719 643 604 681 641 642 554
0 0 0 0 0 0 0 0 0 0 0 0 0 0 0 0 0 0 0 0 0 0 0 0 0 0 0 0 0 0 16 58 241 343 491 542 662 692 720 777 843 898 824 714
0 0 0 0 0 0 0 0 0 0 0 0 0 0 0 0 0 0 0 0 0 0 0 0 0 0 0 0 2 3 31 107 333 405 519 641 655 656 679 718 838 987 1079 975
0 0 0 0 0 0 0 0 0 0 0 0 0 0 0 0 0 0 0 0 0 0 0 0 0 0 0 0 0 0 47 164 339 466 482 682 821 835 781 763 741 800 985 1161
0 0 0 0 0 0 0 0 0 0 0 0 0 0 0 0 0 0 0 0 0 0 0 0 0 0 0 0 4 29 74 301 444 510 584 735 894 986 1000 958 877 805 810 979
0 0 0 0 0 0 0 0 0 0 0 0 0 0 0 0 0 0 0 0 0 0 0 0 0 0 0 0 0 10 119 313 568 645 716 902 1044 1073 1181 1178 1139 1085 958 848
0 0 0 0 0 0 0 0 0 0 0 0 0 0 0 0 0 0 0 0 0 0 0 0 0 0 0 0 43 55 142 293 644 843 1017 1074 1213 1214 1255 1392 1440 1418 1361 1261
0 0 0 0 0 0 0 0 0 0 0 0 0 0 0 0 0 0 0 0 0 0 0 0 0 0 0 0 0 2 137 300 506 915 1109 1241 1318 1379 1385 1477 1638 1715 1725 1709
0 0 0 0 0 0 0 0 0 0 0 0 0 0 0 0 0 0 0 0 0 0 0 0 0 0 0 0 0 0 1 214 462 769 1156 1411 1613 1665 1716 1718 1742 1856 1909 2050
0 0 0 0 0 0 0 0 0 0 0 0 0 0 0 0 0 0 0 0 0 0 0 0 0 0 0 0 0 23 80 230 491 787 1193 1403 1646 1878 2014 2022 2076 2127 2102 2124
0 0 0 0 0 0 0 0 0 0 0 0 0 0 0 0 0 0 0 0 0 0 0 0 0 0 0 0 45 117 247 359 680 900 1096 1474 1765 1987 2204 2340 2439 2482 2488 2448
0 0 4 2 0 0 32 0 0 0 0 0 0 10 112 0 0 0 95 700 1074 1615 1219 997 393 522 1048 1448 418 442 596 732 576 500 699 931 1151 1706 2216 2539 2598 2632 2641 2599
0 0 0 6 0 11 41 0 0 0 16 1 14 175 657 457 633 1089 1594 1735 1845 2004 2165 2046 1986 2043 2141 2290 2422 2691 2396 1441 1023 955 857 886 896 725 799 1008 1539 1860 1126 2360
0 0 0 0 0 0 4 0 0 54 20 3 73 848 951 1156 1501 1658 1587 1729 1811 1731 1870 1777 1845 1806 1718 1658 1848 2217 2597 2384 2199 1980 1675 1099 614 456 770 784 230 40 30 0

GFSCGP_con_mlcape_045.txt.gz
CAPE
0 0 0 0 0 0 0 0 0 0 0 0 0 0 0 252 536 573 468 334 191 45 171 285 395 400 390 455 544 579 555 552 508 326 52 3 0 99 590 906 1178 1081 1320 1421
0 0 0 0 0 0 0 0 0 0 0 0 0 0 0 79 184 509 453 410 240 177 151 348 415 470 456 449 504 652 660 557 353 373 165 5 27 396 764 1066 1270 1268 1298 1307
0 0 0 0 0 0 0 0 0 0 0 0 0 0 0 62 392 493 512 459 279 276 112 208 335 362 470 532 579 635 682 703 400 423 457 407 524 726 762 803 1170 1167 1310 1430
0 0 0 0 0 0 0 0 0 0 0 0 0 0 0 7 74 317 480 508 391 269 287 181 221 317 378 468 485 584 685 714 564 565 478 388 189 465 717 883 987 1155 1196 1296
0 0 0 0 0 0 0 0 0 0 0 0 0 0 0 0 31 97 345 471 465 391 330 228 151 157 290 429 441 463 513 616 605 587 535 429 453 626 796 992 1073 1171 1250 1271
0 0 0 0 0 0 0 0 0 0 0 0 0 0 0 0 0 21 192 280 433 424 384 408 290 195 259 311 459 440 471 459 575 564 498 527 418 507 718 841 854 971 984 1059
0 0 0 0 0 0 0 0 0 0 0 0 0 0 0 0 0 0 6 103 179 317 408 419 373 247 279 303 371 467 452 417 512 520 551 577 585 680 684 748 811 825 783 799
0 0 0 0 0 0 0 0 0 0 0 0 0 0 0 0 0 0 0 0 81 213 214 329 421 319 146 260 307 410 406 397 467 489 509 597 699 786 806 855 838 860 880 873
0 0 0 0 0 0 0 0 0 0 0 0 0 0 0 0 0 0 0 0 5 129 224 201 248 285 209 118 252 383 406 348 436 482 513 590 706 734 738 824 966 882 1013 972
0 0 0 0 0 0 0 0 0 0 0 0 0 0 0 0 0 0 0 0 0 4 59 128 299 317 270 165 190 404 429 394 388 438 558 622 673 764 807 904 871 888 1043 1045
0 0 0 0 0 0 0 0 0 0 0 0 0 0 0 0 0 0 0 0 0 0 0 0 62 274 344 257 108 297 419 415 449 473 539 634 700 805 868 925 932 914 975 1064
0 0 0 0 0 0 0 0 0 0 0 0 0 0 0 0 0 0 0 0 0 0 0 0 0 6 135 276 193 180 394 427 433 480 585 647 786 898 871 915 990 989 913 1038
0 0 0 0 0 0 0 0 0 0 0 0 0 0 0 0 0 0 0 0 0 0 0 0 0 0 32 88 148 112 264 384 471 574 625 769 837 920 925 958 1074 1139 1020 1053
0 0 0 0 0 0 0 0 0 0 0 0 0 0 0 0 0 0 0 0 0 0 0 0 0 0 5 42 91 78 187 345 458 611 647 743 874 939 959 1071 1155 1178 1123 1033
0 0 0 0 0 0 0 0 0 0 0 0 0 0 0 0 0 0 0 0 0 0 0 0 0 0 9 18 66 87 126 324 426 678 701 759 938 1056 1162 1246 1213 1258 1289 1177
0 0 0 0 0 0 0 0 0 0 0 0 0 0 0 0 0 0 0 0 0 0 0 0 0 0 16 50 68 101 142 232 419 598 643 807 1054 1180 1164 1292 1328 1339 1340 1370
0 0 0 0 0 0 0 0 0 0 0 0 0 0 0 0 0 0 0 0 0 0 0 0 0 0 0 0 85 98 161 334 466 580 674 895 1085 1137 1261 1351 1413 1408 1471 1612
0 0 0 0 0 0 0 0 0 0 0 0 0 0 0 0 0 0 0 0 0 0 0 0 0 0 0 0 21 134 249 393 541 630 787 1015 1149 1186 1345 1364 1330 1381 1487 1523
0 0 0 0 0 0 0 0 0 0 0 0 0 0 0 0 0 0 0 0 0 0 0 0 0 0 0 0 5 98 277 425 642 664 801 1000 1106 1210 1438 1433 1356 1428 1432 1434
0 0 0 0 0 0 0 0 0 0 0 0 0 0 0 0 0 0 0 0 0 0 0 0 0 0 0 0 28 69 210 447 568 741 822 1069 1195 1314 1382 1445 1564 1646 1592 1483
1 0 0 0 0 0 0 0 0 0 0 0 0 0 0 0 0 0 0 0 0 0 0 0 0 0 0 0 0 5 150 308 554 912 1216 1366 1463 1442 1568 1743 1835 1920 1942 1916
2 1 1 0 0 0 0 0 0 0 0 0 0 0 0 0 0 0 0 0 0 0 0 0 0 0 0 0 0 0 130 307 807 1032 1329 1694 1814 1820 1868 1811 1841 1976 2017 1821
0 0 11 0 0 0 0 0 0 0 0 0 0 0 0 0 0 0 0 0 0 0 0 0 0 0 0 0 30 0 179 509 691 782 1117 1652 1969 2129 2201 2221 2157 2203 2135 1954
1 6 5 6 0 0 0 0 0 0 0 0 2 2 0 7 22 223 35 18 488 874 93 48 361 510 568 587 579 516 505 626 744 963 1293 1657 1864 2103 2379 2550 2588 2584 2715 2604
1 3 5 0 0 0 0 0 3 1 0 0 6 18 31 314 639 15 406 1015 1432 1393 1396 1374 1251 1808 1935 2575 2598 2193 1081 1093 1000 1175 1388 1539 1968 2093 2006 1682 2145 3013 3048 2929
0 0 0 0 0 0 0 0 0 6 11 22 21 61 46 675 910 1165 1434 1720 1843 1769 1779 1761 1552 1462 1590 1973 2327 2305 2409 2048 1637 1387 1248 827 702 843 838 993 981 422 1254 2031

GFSCGP_con_mlcape_048.txt.gz
CAPE
0 0 0 0 0 0 0 0 0 0 0 0 6 23 2 7 405 525 751 688 533 152 87 99 143 103 103 129 209 331 404 630 828 723 407 163 11 23 79 613 1191 1814 2098 2214
0 0 0 0 0 0 0 0 0 0 0 0 0 0 0 0 217 419 702 756 705 449 111 104 145 114 109 212 355 640 723 889 1147 736 399 47 16 0 242 758 1211 1880 1914 2228
0 0 0 0 0 0 0 0 0 0 0 0 0 0 0 0 15 239 514 709 727 637 292 145 159 176 105 146 331 571 1053 1273 1304 759 530 340 94 247 443 780 1150 1701 1944 1954
0 0 0 0 0 0 0 0 0 0 0 0 0 0 0 0 0 76 321 601 674 659 527 155 131 244 87 118 330 658 1219 1539 1607 1063 329 389 9 12 115 694 778 865 1484 1612
0 0 0 0 0 0 0 0 0 0 0 0 0 0 0 0 0 45 215 513 582 622 579 359 110 65 133 281 498 726 1163 1566 1607 1519 760 583 288 0 297 776 1118 1495 1318 1725
0 0 0 0 0 0 0 0 0 0 0 0 0 0 0 0 0 0 50 300 535 521 524 621 161 37 214 363 564 745 1249 1754 1750 1643 1392 1161 808 323 590 1106 1184 1305 1290 1242
0 0 0 0 0 0 0 0 0 0 0 0 0 0 0 0 0 0 0 18 370 563 491 518 591 234 151 307 465 715 1204 1677 1729 1603 1509 1420 1258 1158 1154 1399 1325 1209 865 811
0 0 0 0 0 0 0 0 0 0 0 0 0 0 0 0 0 0 0 0 275 435 549 532 645 604 407 293 632 892 1224 1589 1702 1590 1579 1685 1718 1198 1078 1192 1058 1117 997 740
0 0 0 0 0 0 0 0 0 0 0 0 0 0 0 0 0 0 0 0 0 65 465 634 689 756 760 708 756 1125 1384 1638 1652 1567 1740 1698 1749 1478 1128 1320 1717 1347 1390 992
0 0 0 0 0 0 0 0 0 0 0 0 0 0 0 0 0 0 0 0 0 0 94 462 711 754 835 865 915 1152 1494 1677 1428 1456 1751 1648 1776 1826 1666 1783 1714 1693 1645 1578
0 0 0 0 0 0 0 0 0 0 0 0 0 0 0 0 0 0 0 0 0 0 14 451 622 676 826 904 886 1149 1455 1575 1572 1555 1628 1707 1688 1686 1881 1712 1912 1989 1975 2053
0 0 0 0 0 0 0 0 0 0 0 0 0 0 0 0 0 0 0 0 0 0 0 93 331 560 639 749 860 870 1101 1333 1450 1520 1728 1631 1672 1720 1677 1827 1939 2078 2005 2219
0 0 0 0 0 0 0 0 0 0 0 0 0 0 0 0 0 0 0 0 0 0 0 0 0 6 199 580 941 741 851 1051 1254 1534 1533 1686 1673 1655 1741 1924 2006 2110 2082 2189
0 0 0 0 0 0 0 0 0 0 0 0 0 0 0 0 0 0 0 0 0 0 0 0 0 0 0 152 920 1257 909 889 1117 1303 1464 1656 1851 1588 1704 2022 2100 2115 2228 2209
0 0 0 0 0 0 0 0 0 0 0 0 0 0 0 0 0 0 0 0 0 0 0 0 4 23 199 303 858 1410 1134 998 973 1335 1485 1599 1841 2043 2010 2074 2173 2274 2330 2344
0 0 0 0 0 0 0 0 0 0 0 0 0 0 0 0 0 0 0 0 0 0 0 0 0 0 315 604 895 1081 1161 1030 1073 1412 1523 1691 1957 2182 2072 2134 2244 2332 2340 2465
0 0 0 0 0 0 0 0 0 0 0 0 0 0 0 0 0 0 0 0 0 0 0 0 0 0 97 713 800 941 1167 1028 1172 1373 1656 1836 2017 2133 2214 2233 2281 2324 2367 2404
0 0 0 0 0 0 0 0 0 0 0 0 0 0 0 0 0 0 0 0 0 0 0 0 0 0 26 121 169 874 941 1176 1210 1422 1552 1916 2046 2090 2261 2323 2302 2425 2498 2394
0 0 0 0 0 0 0 0 0 0 0 0 0 0 0 0 0 0 0 0 0 0 0 0 0 0 0 0 12 400 913 1049 1221 1489 1427 1771 2029 2078 2258 2276 2286 2606 2439 2512
0 0 0 0 0 0 0 0 0 0 0 0 0 0 0 0 0 0 0 0 0 0 0 0 0 0 0 0 0 264 911 1128 1257 1469 1520 1860 2103 2267 2231 2315 2512 2477 2448 2336
0 0 0 0 0 0 0 0 0 0 0 0 0 0 0 1 0 0 0 0 0 0 0 0 0 0 0 0 84 277 846 894 1030 1661 1755 2046 2342 2455 2501 2603 2567 2479 2403 2239
24 1 0 0 0 0 0 0 0 6 0 0 0 0 0 0 7 53 98 22 0 0 0 0 0 0 0 112 257 393 543 510 1793 1837 1831 2143 2483 2387 2186 2602 2615 2615 2610 2562
3 9 18 0 0 0 0 0 0 0 0 0 0 0 0 0 0 0 292 460 283 177 40 0 1 0 45 316 462 273 547 1534 1652 1870 2129 2385 2530 2523 2248 2633 2693 2576 2654 2410
1 6 12 17 0 0 0 0 0 0 0 0 0 0 0 0 0 0 470 826 680 622 93 278 64 49 756 1341 1337 1006 1325 1809 1967 2068 2158 2432 2760 2825 2712 2620 2706 2652 2598 2680
4 33 25 12 5 4 7 0 0 0 6 0 0 0 0 0 0 0 714 1239 895 545 1981 1366 1332 2018 2323 2399 2377 2050 1922 1949 1778 2093 2352 2619 2761 2703 3000 2568 2434 2947 2851 2683
0 0 0 0 0 2 1 0 0 0 0 0 0 0 0 0 0 88 1193 1584 1921 1857 1864 2148 2423 2914 3504 3294 2770 3086 2301 2199 2417 2624 2694 2691 2763 2956 3073 2374 1713 292 936 1744

GFSCGP_con_mlcape_051.txt.gz
CAPE
0 0 0 0 0 0 0 0 0 19 57 81 92 122 115 289 412 549 830 811 511 273 134 159 160 98 66 82 177 412 584 839 862 735 657 384 130 120 5 0 427 949 1571 1934
0 0 0 0 0 0 0 0 0 13 55 68 94 84 94 83 156 265 542 811 779 456 217 87 124 93 53 73 243 576 810 1216 1029 819 662 201 112 8 18 58 747 1315 1742 2036
0 0 0 0 0 0 0 0 0 4 28 78 26 26 44 46 21 178 327 704 791 721 384 104 125 66 26 88 348 639 1021 1213 1331 909 790 502 218 120 49 125 623 1211 1693 1861
0 0 0 0 0 0 0 0 0 0 9 51 2 23 4 24 4 26 285 578 751 827 650 265 97 117 68 48 262 733 1404 1585 1608 1582 718 448 125 0 2 111 438 912 1507 1688
0 0 0 0 0 0 0 0 0 0 0 0 3 4 28 15 15 16 95 274 516 753 737 493 165 92 43 31 96 527 1515 1810 1689 1853 1151 649 457 0 42 138 570 985 1713 1685
0 0 0 0 0 0 0 0 0 0 0 0 0 0 0 19 48 42 57 100 333 603 645 646 313 69 58 25 60 261 1226 1965 2339 2423 1789 1381 752 349 0 208 555 985 1145 1323
0 0 0 0 0 0 0 0 0 0 0 0 0 0 0 0 3 12 47 76 242 452 589 642 491 208 60 87 65 234 1128 2043 2533 2524 2287 1500 1612 1250 605 816 857 1098 772 751
0 0 0 0 0 0 0 0 0 0 0 0 0 0 0 0 0 0 7 23 80 375 482 602 710 357 189 170 282 480 1165 2062 2583 2576 2560 2538 2017 1332 970 803 1228 1131 909 722
0 0 0 0 0 0 0 0 0 0 0 0 0 0 0 0 0 0 0 0 17 155 383 562 703 692 349 372 647 916 1274 2031 2646 2518 2653 2746 2583 1951 1287 1019 1539 1301 1599 875
0 0 0 0 0 0 0 0 0 0 0 0 0 0 0 0 0 0 0 0 0 134 369 408 534 784 717 519 739 1080 1371 2156 2467 2542 2661 2791 2809 2600 1987 1800 1866 1744 1618 1806
0 0 0 0 0 0 0 0 0 0 0 0 0 0 0 0 0 0 0 0 0 17 266 368 300 654 1001 846 719 1143 1586 1888 2493 2663 2638 2749 2749 2773 2760 2240 2270 2152 2632 2505
0 0 0 0 0 0 0 0 0 0 0 0 0 0 0 0 0 0 0 0 0 0 0 38 214 622 810 1089 1033 1096 1277 1658 2391 2457 2540 2671 2705 2780 2661 2694 2300 2640 2489 2864
0 0 0 0 0 0 0 0 0 0 0 0 0 0 0 0 0 0 0 0 0 0 0 1 14 504 773 928 1322 1354 1510 1468 1728 2304 2366 2572 2709 2732 2604 2629 2819 2676 2858 2903
0 0 0 0 0 0 0 0 0 0 0 0 0 0 0 0 0 0 0 0 0 0 0 6 41 353 673 883 1271 1558 1429 1304 1621 1948 2223 2413 2716 2749 2725 2636 2797 2838 2960 3037
0 0 0 0 0 0 0 0 0 0 0 0 0 0 0 0 0 0 0 0 0 0 0 0 1 30 115 482 956 1730 1419 1519 1300 1882 2147 2358 2651 3000 2925 2785 2696 3006 2991 3144
0 0 0 0 0 0 0 0 0 0 0 0 0 0 0 0 0 0 0 0 0 0 0 0 0 0 62 74 423 1063 1965 1457 1709 1849 2052 2452 2675 2986 3179 3059 2966 3014 3025 3050
0 0 0 0 0 0 0 0 0 0 0 0 0 0 0 0 0 0 0 0 0 0 0 0 0 0 2 49 551 979 1502 2155 1932 1693 2384 2414 2748 2950 3249 3332 3248 3242 3171 3169
0 0 0 0 0 0 0 0 0 0 0 0 0 0 0 0 0 0 0 0 0 0 0 0 0 0 0 15 181 859 1042 2039 2135 2193 1928 2588 2707 2935 3204 3439 3415 3403 3417 3312
0 0 0 0 0 0 0 0 0 0 0 0 0 0 0 0 0 0 0 0 0 0 0 0 0 0 0 0 0 113 1283 1440 2133 2166 2236 2314 2814 2978 3274 3353 3505 3491 3466 3526
0 0 0 0 0 0 0 0 0 0 0 0 0 0 0 0 0 0 2 0 2 3 0 1 0 0 0 0 0 0 454 1443 2036 2190 2373 2491 2938 3143 3110 3285 3537 3523 3609 3522
0 0 0 0 0 0 0 0 2 0 78 70 25 20 19 9 96 226 70 48 118 94 44 16 15 0 0 0 0 0 26 1166 1518 2264 2470 2854 2907 3233 3339 3499 3562 3598 3520 3024
15 0 0 0 0 0 0 0 3 24 1 0 0 0 2 0 0 0 0 0 51 432 432 201 40 32 5 0 55 206 470 1002 2142 2348 2513 2879 3159 3052 3018 3589 3772 3666 3538 3424
0 12 2 0 0 0 0 0 0 0 0 0 0 0 0 0 0 0 0 0 132 826 1009 729 355 234 300 282 413 652 870 2116 2236 2785 2853 2962 3330 3468 3026 3560 3793 3551 3554 3081
5 0 1 0 0 0 0 0 0 0 0 0 0 0 0 0 0 0 0 0 240 1186 1470 1234 764 413 419 584 847 1429 2009 3050 2791 2928 2963 3201 3517 3563 3463 3292 3399 3288 3083 3180
1 1 3 1 0 0 0 0 0 0 0 0 0 0 0 0 0 0 0 0 562 1562 1539 1202 1532 1576 935 1393 2257 2044 2088 2255 2800 2771 2719 3127 3084 3212 3471 2819 1802 2953 2787 2270
18 23 13 2 1 2 1 0 0 0 0 0 0 0 0 0 0 0 0 0 1008 1668 2104 1992 2095 2255 2787 3021 3335 3085 2740 2777 2856 2847 2723 2589 2448 3222 3075 2672 1183 17 93 633

GFSCGP_con_mlcape_054.txt.gz
CAPE
0 0 0 0 0 0 2 0 0 7 0 57 44 124 22 0 0 89 350 186 123 134 250 307 234 219 286 373 575 421 734 596 1072 1128 1046 1054 483 404 319 147 155 1494 1668 1868
0 0 0 0 0 0 0 0 0 0 30 29 43 199 51 2 7 194 318 290 221 156 102 266 275 221 221 341 494 664 726 703 1363 1097 1197 818 709 435 232 145 178 992 1303 1739
0 0 0 0 0 0 0 0 0 0 48 4 50 39 122 144 483 521 474 461 469 335 230 170 274 255 191 373 596 757 779 1471 1264 1150 1036 954 667 403 369 154 194 944 1396 2180
0 0 0 0 0 0 0 0 0 4 53 34 43 15 63 116 159 158 386 666 559 540 391 153 210 197 240 360 573 898 970 1255 1407 1211 918 792 473 295 114 220 385 1079 1572 1724
0 0 0 0 0 0 0 0 0 0 0 1 44 30 8 8 56 38 127 407 442 658 555 328 133 145 201 295 645 824 1206 1217 1691 963 1340 714 577 239 321 215 226 802 1953 1609
0 0 0 0 0 0 0 0 0 0 0 0 0 1 1 10 7 43 22 208 480 458 678 578 264 157 166 274 562 883 1353 1397 1591 1788 923 1553 736 544 119 326 377 1009 1258 1835
0 0 0 0 0 0 0 0 0 0 0 0 0 0 0 25 28 35 33 74 273 642 742 745 491 246 247 299 414 687 1399 1770 1816 1960 1876 810 1818 694 637 319 435 697 1381 1505
0 0 0 0 0 0 0 0 0 0 0 0 0 0 0 0 12 72 108 75 110 301 804 835 735 385 263 247 391 604 1210 1755 2106 1828 2469 2044 1406 2124 635 585 959 557 1372 1061
0 0 0 0 0 0 0 0 0 0 0 0 0 0 0 0 0 0 0 101 157 187 568 768 940 564 330 305 433 450 974 1595 1903 2150 2387 2765 1937 1388 2081 773 807 1623 1073 1113
0 0 0 0 0 0 0 0 0 0 0 0 0 0 0 0 0 0 0 0 64 179 411 720 877 807 486 335 432 473 912 1417 1980 2326 2425 2543 2857 1839 1340 1939 874 687 1600 2020
0 0 0 0 0 0 0 0 0 0 0 0 0 0 0 0 0 0 0 0 0 152 296 548 766 1001 716 445 450 588 681 1586 2129 2548 2738 2688 2680 2921 2129 1464 1859 1195 1404 1341
0 0 0 0 0 0 0 0 0 0 0 0 0 0 0 0 0 0 0 0 0 0 235 516 796 959 1054 833 650 767 930 1177 2234 2692 2823 2824 2822 2936 2841 2101 1895 2085 2088 2683
0 0 0 0 0 0 0 0 0 0 0 0 0 0 0 0 0 0 0 0 0 0 234 597 583 799 1107 1201 1035 1004 1231 1363 1804 2599 2959 2943 2895 2975 2997 2900 2257 2428 2534 2276
0 0 0 0 0 0 0 0 0 0 0 0 0 0 0 0 0 0 0 0 0 0 1 596 657 486 1016 1343 1352 1290 1335 1506 1720 2183 2808 3016 3004 3100 3188 3129 2985 2673 2506 2942
0 0 0 0 0 0 0 0 0 0 0 0 0 0 0 0 0 0 0 0 0 0 6 97 301 598 956 1588 1615 1633 1601 1573 1653 1998 2458 2856 2969 3027 3096 3124 3120 3211 3080 2789
0 0 0 0 0 0 0 0 0 0 0 0 0 0 1 0 0 0 0 0 0 0 0 0 0 18 646 1417 1752 1885 1785 2042 1803 2001 2131 2667 2891 3053 3205 3207 3226 3156 3291 3263
0 0 0 0 0 0 0 0 0 0 0 0 0 0 10 0 0 0 0 0 0 0 0 0 0 0 16 341 1665 1985 2006 1960 2100 2053 2323 2555 2879 3016 3187 3444 3361 3349 3268 3417
0 0 0 0 0 0 0 0 0 0 0 0 0 0 0 2 0 0 0 0 0 0 0 0 0 0 0 9 181 763 1680 2522 2034 1997 2329 2656 2907 3044 3281 3423 3630 3545 3496 3414
0 0 0 0 0 0 0 0 0 0 0 0 0 0 0 0 1 0 0 0 0 0 0 0 0 0 0 5 5 867 864 1357 2437 2407 2413 2387 2822 3211 3344 3499 3666 3825 3727 3751
0 0 0 0 0 0 0 0 0 0 0 55 0 0 0 0 0 125 296 201 175 247 209 128 79 33 11 0 0 1275 1056 1572 1959 2151 2391 2796 2601 3078 3406 3534 3744 3922 3968 3839
0 0 0 0 0 0 0 0 0 0 137 2 12 6 120 23 76 69 4 0 12 200 408 590 350 128 49 82 41 0 806 1843 1748 2241 2667 2643 2817 2887 3420 3667 3805 3980 4048 3952
8 0 0 0 0 0 0 0 13 18 0 0 0 0 0 0 0 0 0 0 0 102 451 919 888 682 387 182 87 366 49 94 2128 2486 2741 2734 3144 2922 3402 3693 3853 4042 4113 3997
0 4 11 2 0 0 0 0 0 0 0 0 0 0 0 0 0 0 0 0 0 43 306 1394 1631 1545 791 734 602 872 393 993 2427 2570 2696 2868 3150 3552 3111 3649 3843 4050 4121 4080
0 0 0 0 0 0 0 0 0 0 0 0 0 0 0 0 0 0 0 0 0 0 14 1235 2517 1679 1569 1131 536 1296 1395 2333 1937 3013 3006 3218 3468 3615 3655 3443 3938 4114 4058 4050
0 0 0 0 0 0 0 0 0 0 0 0 0 0 0 0 0 0 0 0 0 0 0 1358 2093 2315 2694 2325 1434 1475 1965 2118 1812 3858 3709 3694 3742 3832 4115 2807 2320 3759 3452 2928
4 3 5 0 0 0 0 0 0 0 0 0 0 0 0 0 0 0 0 0 0 0 0 1008 1431 2017 2972 3535 3269 3598 3839 3226 2632 2987 3629 3688 3404 3723 3807 2333 1005 4 344 608

GFSCGP_con_mlcape_057.txt.gz
CAPE
0 0 0 0 0 0 0 0 2 2 26 43 101 13 0 105 146 218 195 66 205 459 484 460 591 535 325 200 125 59 230 463 392 509 311 655 323 537 77 46 760 849 946 1199
0 0 0 0 0 0 0 0 0 0 0 62 184 100 33 19 26 41 94 202 132 225 234 391 250 246 226 172 9 202 138 598 449 688 427 811 821 308 177 19 103 1028 1329 1645
0 0 0 0 0 0 0 0 0 0 0 61 156 119 36 0 2 21 173 131 156 132 155 254 129 119 80 265 124 0 340 649 636 742 670 464 774 385 265 61 0 699 1042 1138
0 0 0 0 0 0 0 0 0 0 11 59 17 55 60 17 13 0 88 232 104 103 116 215 135 144 165 211 319 63 342 564 811 844 837 543 207 386 374 67 21 38 1145 1565
0 0 0 0 0 0 0 0 0 0 0 2 43 43 42 70 0 7 63 318 17 147 80 153 166 169 146 216 328 273 194 620 910 885 696 695 447 317 105 280 24 160 680 733
0 0 0 0 0 0 0 0 0 0 0 0 0 25 25 43 16 79 171 398 286 262 135 126 239 160 158 328 440 466 287 484 733 885 836 448 493 342 255 43 42 195 852 1089
0 0 0 0 0 0 0 0 0 0 0 0 0 6 0 24 33 140 389 554 316 340 255 151 261 178 220 310 460 615 507 446 884 727 553 1005 589 390 89 62 131 224 851 1400
0 0 0 0 0 0 0 0 0 0 0 0 0 0 0 0 0 19 385 462 559 491 382 289 180 221 174 217 439 639 645 534 649 1031 725 430 995 1011 372 321 43 165 859 1144
0 0 0 0 0 0 0 0 0 0 0 0 0 0 0 0 0 0 14 450 553 557 566 439 233 190 154 210 344 582 767 676 708 771 1037 921 426 1193 1189 256 507 601 420 1041
0 0 0 0 0 0 0 0 0 0 0 0 0 0 0 0 0 0 0 7 183 472 692 588 363 226 180 167 267 402 863 918 965 1013 1159 1220 1060 480 1169 1272 343 227 720 978
0 0 0 0 0 0 0 0 0 0 0 0 0 0 0 0 0 0 0 0 55 209 720 726 515 291 229 164 262 375 540 1101 1306 1421 1160 1524 1794 1456 753 1329 1424 392 188 734
0 0 0 0 0 0 0 0 0 0 0 0 0 0 0 0 0 0 0 0 13 87 824 837 731 413 298 227 203 365 589 932 1215 1350 1656 1396 1780 2356 1798 1034 1069 1452 593 312
0 0 0 0 0 0 0 0 0 0 0 0 0 0 0 0 0 0 0 0 0 51 692 876 900 576 437 308 273 397 446 830 1096 1468 1567 1955 1741 1917 2393 2103 1316 1093 1331 900
32 0 0 0 0 0 0 0 0 0 0 0 0 0 0 0 0 0 0 0 0 0 395 770 990 788 617 462 353 431 435 574 1256 1349 1733 1793 2206 2261 2278 2574 2316 1531 1429 1419
0 0 0 0 0 0 0 0 0 0 0 0 0 0 0 0 0 0 0 0 0 0 198 706 870 1035 891 731 491 438 523 560 677 1734 1868 2022 2233 2485 2451 2377 2574 2471 1668 1911
0 0 0 0 0 0 0 0 0 0 0 0 0 0 0 0 0 6 0 0 0 90 219 523 657 937 1064 1056 882 692 646 788 957 1013 2024 2255 2592 2617 2570 2601 2585 2769 2681 1992
0 0 0 0 0 0 0 0 1 0 0 0 0 0 0 0 0 0 0 0 0 0 0 0 0 114 959 1166 1263 1205 1126 1003 1157 1380 1399 2219 2577 2737 2783 2867 2877 2847 2822 2868
0 0 0 0 0 0 0 0 0 0 0 0 0 6 5 1 34 1 0 0 0 0 0 0 0 0 0 1296 1545 1427 1422 1551 1414 1443 1754 1759 2347 2710 2815 2858 2954 2890 2924 2941
0 0 0 0 0 0 0 0 0 5 25 3 118 111 75 132 23 118 125 151 154 158 203 191 40 10 0 0 240 2019 1742 1741 1944 1972 1899 2013 2355 2656 2865 2857 2959 3058 3052 3072
0 0 0 0 0 0 0 0 0 0 3 0 0 162 199 16 1 7 4 27 178 348 462 594 611 398 20 12 0 756 2239 2153 2032 2037 2398 2543 2491 2664 2763 3007 3057 3264 3251 3191
0 0 0 0 0 0 0 0 0 0 0 0 0 0 32 0 0 0 0 0 97 116 368 783 996 1133 1143 437 40 0 584 1990 2377 2363 1878 2172 2626 2794 3044 3064 3249 3316 3484 3538
18 5 1 0 0 0 0 0 0 0 0 0 0 0 0 0 0 0 0 0 0 0 49 357 878 1499 1940 1451 603 44 109 421 170 1052 2426 2392 2452 2766 3172 3333 3426 3534 3591 3648
0 1 1 0 0 0 0 0 0 0 0 0 0 0 0 0 0 0 0 0 0 0 0 10 615 1593 2054 2236 1779 970 407 500 531 815 1924 2536 2533 2672 2645 3220 3529 3635 3722 3731
0 0 0 0 0 0 0 0 0 0 0 0 0 0 0 0 0 0 0 0 0 0 0 0 0 290 1357 1799 2319 2473 1374 1108 1607 1247 2124 3144 2956 2908 2733 2979 3342 3660 3799 3882
0 0 0 0 0 0 0 0 0 0 0 0 0 0 0 0 0 0 0 0 0 0 0 0 0 0 584 1294 2618 3517 2966 1932 1200 1237 2046 2489 3284 3039 3181 2195 2300 3513 3349 3359
0 1 2 3 1 2 0 0 0 0 0 0 0 0 0 0 0 0 0 0 0 0 0 0 0 0 191 1107 2082 2599 3348 3563 3564 2809 1989 3850 3734 3522 3077 2179 1338 138 772 1019

GFSCGP_con_mlcape_060.txt.gz
CAPE
0 0 0 0 0 0 0 0 0 0 41 111 41 8 0 0 49 395 437 356 228 113 117 145 79 34 0 17 166 7 4 25 24 32 89 33 182 274 317 77 289 346 530 1097
0 0 0 0 0 0 0 0 0 0 0 49 133 104 60 3 0 134 468 471 357 242 169 143 22 0 0 24 113 66 27 15 61 61 27 79 43 91 213 81 108 428 638 996
0 0 0 0 0 0 0 0 0 0 0 7 35 37 26 0 0 88 147 243 269 308 270 241 192 136 61 40 6 22 88 61 118 182 53 43 129 4 199 116 0 429 740 1043
0 0 0 0 0 0 0 0 0 0 0 0 35 0 2 0 12 37 23 35 57 59 283 263 258 241 170 118 7 0 133 160 174 342 172 73 1 87 126 62 0 38 821 1284
0 0 0 0 0 0 0 0 0 0 0 0 1 1 22 39 6 5 29 39 50 44 68 257 261 311 328 206 18 74 164 228 253 406 310 207 151 179 303 110 45 4 292 1051
0 0 0 0 0 0 0 0 0 0 0 0 0 0 0 0 0 0 0 15 28 98 47 74 95 209 184 188 103 24 190 289 341 433 432 327 218 90 109 179 126 28 29 521
0 0 0 0 0 0 0 0 0 0 0 0 0 0 0 0 0 0 0 0 9 150 45 50 55 0 32 189 217 31 145 295 443 409 470 424 339 223 29 89 26 81 44 300
0 0 0 0 0 0 0 0 0 0 0 0 0 0 0 0 17 6 5 2 9 153 76 22 55 59 20 85 193 162 78 204 409 447 398 462 404 391 244 101 91 0 33 334
0 0 0 0 0 0 0 0 0 0 0 0 0 0 0 0 0 0 0 0 9 171 112 43 70 119 63 133 201 258 187 138 395 394 457 479 539 395 254 208 47 10 74 329
0 0 0 0 0 0 0 0 0 0 0 0 0 0 0 0 0 0 0 6 118 267 292 179 105 181 124 126 225 325 324 213 207 489 410 328 411 706 805 306 181 186 71 170
0 0 0 0 0 0 0 0 0 0 0 0 0 0 0 0 0 0 0 82 258 417 419 319 185 180 150 116 257 384 471 369 339 396 603 567 433 254 444 1005 630 190 187 456
0 3 0 0 0 0 0 0 0 0 0 0 0 0 0 0 0 0 0 5 228 465 461 433 330 177 179 150 225 375 526 607 462 467 482 638 771 742 396 292 964 932 491 147
0 1 0 0 0 0 0 0 0 0 0 0 0 0 0 0 0 0 0 0 33 510 603 550 389 195 223 180 171 302 503 677 672 691 675 690 882 1011 958 635 411 753 874 610
3 3 1 0 0 0 0 0 0 0 0 0 0 0 0 0 0 0 0 0 0 399 591 626 464 276 236 216 143 240 368 663 865 969 1011 863 818 1231 1501 1331 950 571 640 899
2 0 0 0 0 0 0 0 0 0 0 0 0 0 0 0 0 0 0 0 0 214 567 697 588 381 328 276 176 175 296 456 830 1031 1077 1063 1109 1056 1417 1723 1645 1276 868 797
1 0 0 0 0 0 0 0 0 0 0 0 0 0 0 0 0 2 0 0 0 184 682 795 726 498 401 352 276 150 276 410 708 927 984 1088 1274 1505 1370 1468 1725 1898 1690 1330
0 0 0 0 0 0 0 0 0 0 0 0 0 0 0 0 0 0 26 6 0 166 629 873 797 645 527 429 369 265 309 342 741 943 963 1222 1404 1535 1775 1800 1835 1901 1934 1817
0 0 0 0 0 0 0 0 0 0 0 0 0 0 0 95 94 87 129 83 16 26 83 200 497 658 678 538 426 348 324 457 487 754 1220 1345 1605 1761 1909 2080 2095 2110 2197 2270
0 0 0 0 0 0 0 0 0 0 0 0 0 116 248 119 77 153 199 278 383 483 323 39 2 183 497 750 847 651 512 564 636 668 699 1334 1755 1937 2148 2297 2360 2388 2517 2548
0 0 0 0 0 0 0 0 0 0 0 0 0 0 32 33 19 8 0 3 54 246 665 985 1153 1093 382 49 842 1255 1121 973 882 926 1031 1084 1413 1969 2171 2304 2453 2588 2678 2693
0 0 0 0 0 1 0 0 0 0 0 0 0 0 0 0 0 0 0 0 0 0 223 951 1302 1436 1636 1230 211 497 1798 1740 1648 1575 1351 1421 1518 1600 2049 2360 2574 2598 2755 2807
0 2 0 0 0 1 0 0 0 0 0 0 0 0 0 0 0 0 0 0 0 0 0 0 431 1138 1276 1653 1785 1348 844 805 918 2254 2165 2125 2113 2036 2213 2387 2579 2736 2798 2956
1 1 0 0 0 0 0 0 0 0 0 0 0 0 0 0 0 0 0 0 0 0 0 0 0 29 688 1285 2146 2103 2815 1573 509 584 740 1819 2283 2482 2678 2648 2658 2850 3001 3081
0 1 0 0 0 0 0 0 0 0 0 0 0 0 0 0 0 0 0 0 0 0 0 0 0 0 5 596 1284 2343 2813 2996 1716 1015 692 1182 1696 2381 2544 2896 2937 2977 3139 3218
4 2 1 0 0 0 0 0 0 0 0 0 0 0 0 0 0 0 0 0 0 0 0 0 0 0 0 15 656 1303 2295 2272 2887 2717 2077 1642 2019 2090 2610 2546 2489 3067 3210 3179
2 1 1 3 1 1 1 0 0 0 0 0 0 0 0 0 0 0 0 0 0 0 0 0 0 0 0 0 0 176 1212 1924 1805 1843 2663 2747 2773 2206 2808 2162 1448 161 608 1213

GFSCGP_con_mlcape_063.txt.gz
CAPE
0 0 0 0 0 0 0 0 0 0 0 0 36 49 41 305 221 137 107 109 107 92 89 128 77 24 0 0 0 0 0 5 16 94 145 181 142 320 352 178 598 407 944 1030
0 0 0 0 0 0 0 0 0 0 0 12 50 34 15 172 273 310 169 137 129 103 70 39 79 71 32 0 0 0 0 0 12 157 222 81 0 84 200 172 124 345 408 942
0 0 0 0 0 0 0 0 0 0 0 111 67 54 4 2 148 333 295 208 147 73 63 42 14 57 18 1 1 0 0 0 7 133 53 75 12 2 96 114 47 188 425 748
0 0 0 0 0 0 0 0 0 0 0 0 9 0 0 0 25 0 83 361 252 139 85 0 87 35 25 0 0 39 0 0 0 18 24 1 0 0 3 26 47 27 445 619
0 0 0 0 0 0 0 0 0 0 0 0 10 0 0 0 0 0 1 152 371 253 200 97 1 24 0 0 0 0 3 9 0 13 3 0 0 0 0 0 21 0 207 635
0 0 0 0 0 0 0 0 0 0 0 0 0 0 0 0 0 0 0 25 90 195 241 230 138 54 16 8 0 0 0 41 25 27 32 13 1 0 0 0 0 1 0 308
0 0 0 0 0 0 0 0 0 0 0 0 0 0 0 0 0 0 0 30 73 62 88 133 228 144 116 111 53 8 0 38 89 100 83 52 12 0 3 0 0 0 1 35
0 0 0 0 0 0 0 0 0 0 0 0 0 0 0 0 0 0 3 17 52 64 47 86 124 232 163 182 137 35 21 31 84 128 124 115 58 19 13 9 5 24 41 93
0 0 0 0 0 0 0 0 0 0 0 0 0 0 0 0 0 0 0 0 0 7 30 70 113 106 129 231 242 90 81 73 84 103 134 165 131 94 35 19 20 0 10 89
0 0 0 0 0 0 0 0 0 0 0 0 0 0 0 0 0 0 0 1 0 0 27 50 46 84 37 136 202 131 33 119 181 182 159 141 148 121 147 57 40 5 5 35
0 0 0 0 0 0 0 0 0 0 0 0 0 0 0 0 0 0 0 0 2 7 24 33 48 48 68 41 114 205 95 12 108 264 239 196 213 236 214 165 106 135 37 5
0 0 0 0 0 0 0 0 0 0 0 0 0 0 0 0 0 0 0 0 0 0 47 71 36 44 67 60 104 187 181 89 40 127 189 209 235 283 389 446 179 105 70 89
0 0 0 0 0 0 0 0 0 0 0 0 0 0 0 0 0 0 0 0 0 3 91 118 103 64 49 79 90 167 224 170 76 35 159 294 280 233 177 271 624 583 315 167
3 0 0 0 0 0 0 0 0 0 0 0 0 0 0 0 0 0 0 0 0 0 54 184 232 187 71 86 88 157 224 260 226 158 158 252 423 450 394 273 190 354 575 514
0 0 0 0 0 0 0 0 0 0 0 0 0 0 0 0 0 0 0 0 0 0 0 190 279 326 165 96 82 98 181 302 402 309 327 346 347 486 602 606 539 347 396 519
0 0 0 0 0 0 0 0 0 0 0 0 0 0 0 0 0 0 0 0 0 0 33 167 302 376 276 159 124 82 138 285 457 487 466 452 493 547 689 852 867 842 647 517
0 0 0 0 0 0 0 0 0 0 0 0 0 0 0 0 7 40 24 2 0 0 152 195 355 435 341 194 135 113 124 207 450 562 617 717 781 738 742 983 1293 1313 1111 997
0 0 0 0 0 0 0 0 0 0 0 0 0 4 10 52 117 50 15 27 23 8 203 302 489 512 372 241 167 119 60 185 331 578 741 884 949 1016 1150 1098 1144 1326 1547 1472
0 0 0 0 0 0 0 0 0 0 0 0 0 0 9 120 141 136 0 3 60 341 554 401 371 422 356 308 238 139 94 193 367 512 711 872 1030 1040 1208 1442 1405 1410 1567 1768
0 1 0 0 0 11 0 0 0 0 0 0 0 0 0 0 0 0 0 0 10 109 638 1004 612 376 419 331 327 268 245 271 352 509 733 902 1000 1157 1324 1378 1561 1680 1885 1859
0 0 0 0 0 2 2 0 0 0 0 0 0 0 0 0 0 0 0 0 0 0 50 448 1021 950 829 596 558 511 432 480 482 417 476 684 1188 1325 1540 1725 1880 2010 2124 2263
0 0 0 0 0 0 0 0 1 0 0 0 0 0 0 0 0 0 0 0 0 0 0 3 512 1129 1733 2115 1777 1355 989 723 797 809 790 815 863 1177 1548 1708 1920 2129 2336 2431
0 0 0 0 0 0 0 4 0 0 0 0 0 0 0 0 0 0 0 0 0 0 0 0 0 18 596 1405 2157 1981 1998 838 713 1658 1973 1694 1420 1341 1310 1659 1922 2227 2385 2450
0 0 1 1 0 0 0 0 0 0 0 0 0 0 0 0 0 0 0 0 0 0 0 0 0 0 0 157 862 1864 2101 2280 2054 1611 1461 1841 2082 2264 2101 2021 2086 2276 2494 2563
1 0 0 0 0 0 0 0 0 0 0 0 0 0 0 0 0 0 0 0 0 0 0 0 0 0 0 0 0 76 947 1608 1766 1682 1926 2155 2259 2106 2155 2554 2460 2659 2695 2678
2 1 1 0 1 3 1 0 0 0 0 0 0 0 0 0 0 0 0 0 0 0 0 0 0 0 0 0 0 0 7 193 435 1008 1108 1123 1527 2093 2659 2213 1549 371 883 1255

GFSCGP_con_mlcape_069.txt.gz
CAPE
0 0 0 0 0 0 0 0 0 0 0 0 0 104 214 269 87 104 133 54 49 3 37 66 104 142 112 96 11 0 0 4 45 0 0 84 136 426 880 523 789 891 1107 1389
0 0 0 0 0 0 0 0 0 0 0 0 0 0 89 251 197 183 78 57 55 30 50 115 135 123 108 109 33 0 0 0 24 0 52 297 392 463 991 667 835 952 1226 1359
0 0 0 0 0 0 0 0 0 0 0 0 0 0 1 181 378 313 174 82 40 39 54 93 145 146 96 74 73 0 0 0 0 21 165 227 290 267 504 642 521 678 1091 1256
0 0 0 0 0 0 0 0 0 0 0 0 0 0 1 98 118 225 298 239 179 85 62 76 91 142 141 98 111 41 6 0 0 0 40 115 165 167 314 651 638 593 850 947
0 0 0 0 0 0 0 0 0 0 0 0 0 0 0 4 95 136 308 302 266 211 136 93 121 101 106 66 55 36 30 7 0 0 32 185 369 393 421 423 529 485 539 674
0 0 0 0 0 0 0 0 0 0 0 0 0 0 0 0 0 17 298 347 275 239 201 178 112 92 70 40 0 0 14 0 11 19 9 45 164 340 219 197 213 436 529 676
0 0 0 0 0 0 0 0 0 0 0 0 0 0 0 0 0 0 26 254 378 265 217 221 175 77 91 83 48 47 30 34 12 40 42 53 101 227 155 236 192 161 194 366
0 0 0 0 0 0 0 0 0 0 0 0 0 0 0 0 0 0 36 88 156 378 306 308 286 205 137 140 149 105 112 90 25 33 70 80 132 176 146 235 226 172 105 91
0 0 0 0 0 0 0 0 0 0 0 0 0 0 0 0 0 0 0 0 19 47 380 396 374 304 222 176 149 112 161 164 117 58 97 94 89 86 151 223 236 206 236 58
0 0 0 0 0 0 0 0 0 0 0 0 0 0 0 0 0 0 0 0 0 8 47 309 407 366 320 249 171 129 100 159 199 134 142 203 227 248 234 268 202 219 249 193
0 0 0 0 0 0 0 0 0 0 0 0 0 0 0 0 0 0 0 0 0 1 26 125 473 485 404 245 212 177 86 129 177 169 195 210 308 333 313 249 284 311 271 288
0 0 0 0 0 0 0 0 0 0 0 0 0 0 0 0 0 0 0 0 0 33 33 106 356 506 471 416 272 197 142 119 140 196 241 242 327 370 346 317 331 343 318 305
0 0 0 0 0 0 0 0 0 0 0 0 0 0 0 0 0 0 0 0 0 0 33 110 120 284 498 566 479 371 263 180 157 194 248 293 353 414 388 399 432 366 367 330
0 0 0 0 0 0 0 0 0 0 0 0 0 0 0 0 0 0 0 0 0 0 0 28 76 122 301 399 597 506 460 325 261 255 307 397 440 455 467 492 514 444 432 422
12 0 0 0 0 0 0 0 0 0 0 0 0 0 0 0 0 0 0 0 0 0 0 0 13 67 148 307 424 610 562 488 366 382 444 533 565 582 618 697 638 593 538 543
0 0 0 0 0 0 0 0 0 0 0 0 0 0 0 0 0 0 0 0 0 0 0 0 9 59 122 185 322 518 618 587 442 465 525 633 674 684 681 721 745 788 691 579
4 0 0 0 0 0 0 0 0 0 0 0 0 0 0 0 0 0 0 0 0 0 0 9 109 40 176 202 271 386 587 654 497 463 522 660 759 774 748 783 783 820 886 987
0 0 0 0 0 0 19 0 0 0 0 0 0 0 0 0 0 0 0 0 0 0 0 0 25 240 141 266 314 431 533 634 589 491 485 576 740 742 790 798 795 740 707 735
2 5 0 0 0 0 1 0 4 2 0 0 0 0 0 0 0 0 0 0 0 0 0 0 293 510 10 268 437 492 581 687 631 571 573 592 626 705 859 919 931 917 950 926
0 8 1 2 4 6 2 3 0 0 3 0 0 0 0 0 11 0 0 0 0 0 0 54 795 381 81 395 427 557 654 710 659 693 694 752 748 752 808 869 906 1004 1105 1138
2 6 0 11 13 0 2 1 0 2 3 1 0 0 0 0 0 0 0 0 0 0 1 29 727 817 645 509 571 589 708 640 810 921 961 945 888 887 955 1017 1119 1243 1386 1554
4 4 2 6 9 3 2 0 1 1 4 3 1 0 0 0 0 0 0 0 0 0 0 0 90 345 865 614 586 608 638 809 802 930 966 1045 1093 1106 1287 1361 1421 1455 1510 1591
6 0 9 0 0 2 4 4 3 8 8 3 3 1 0 0 0 0 0 0 0 0 0 0 1 86 198 737 984 759 966 634 706 819 911 1056 1195 1304 1398 1512 1626 1845 2023 1883
0 2 0 0 0 3 4 3 9 6 2 4 3 1 0 0 0 0 0 0 0 0 0 0 0 0 3 105 316 651 1134 1003 651 642 843 1035 1182 1336 1478 1682 1766 1830 1959 2162
0 0 0 0 1 2 7 7 8 1 1 6 7 5 1 0 0 0 0 0 0 0 0 0 0 0 0 0 0 56 394 1395 1857 1735 1493 916 1047 1104 1641 1699 1849 1972 2129 2220
1 0 0 0 4 3 6 7 12 1 1 4 3 2 4 1 0 0 0 0 0 0 0 0 0 0 0 0 0 0 0 77 681 1162 1490 1771 2521 2318 1938 1824 1583 731 918 1198

GFSCGP_con_mlcape_072.txt.gz
CAPE
0 0 0 0 0 0 0 0 0 0 10 20 78 365 664 522 564 589 566 400 174 199 209 226 170 42 0 10 50 17 0 0 22 0 0 134 284 490 830 1117 1406 1749 1763 1882
0 0 0 0 0 0 0 0 0 0 0 0 34 103 284 711 497 601 653 551 212 205 224 235 224 164 0 0 34 24 0 7 137 0 0 35 247 517 789 982 1345 1558 1718 1933
0 0 0 0 0 0 0 0 0 0 0 0 11 61 49 140 527 372 548 619 352 170 249 234 266 239 131 2 64 61 29 16 107 0 0 411 663 855 983 979 959 1203 1575 1780
0 0 0 0 0 0 0 0 0 0 0 0 0 14 29 12 312 371 418 494 472 265 207 312 251 289 252 81 84 116 142 51 33 81 68 455 306 178 108 411 534 677 1338 1456
0 0 0 0 0 0 0 0 0 0 0 0 43 48 49 66 146 309 462 463 421 372 257 215 370 370 326 290 109 184 224 161 18 151 97 410 423 0 77 176 680 1124 1282 1498
0 0 0 0 0 0 0 0 0 0 0 0 0 0 1 58 109 336 404 482 507 467 376 351 286 351 439 316 169 94 249 374 251 84 57 144 205 117 239 366 309 479 622 843
0 0 0 0 0 0 0 0 0 0 0 0 0 0 0 13 51 101 258 488 538 543 560 483 391 308 350 424 321 188 394 710 541 386 91 87 381 731 884 890 573 290 201 271
0 0 0 0 0 0 0 0 0 0 0 0 0 0 0 0 0 1 1 75 247 420 533 603 562 460 364 413 410 331 538 786 611 557 524 497 651 479 648 781 484 475 253 142
0 0 0 0 0 0 0 0 0 0 0 0 0 0 0 0 0 0 0 0 55 254 371 481 596 582 508 440 481 499 660 963 866 473 928 917 835 633 359 709 791 650 614 432
0 0 0 0 0 0 0 0 0 0 0 0 0 0 0 0 0 0 0 0 0 2 153 337 476 597 611 554 501 483 679 951 861 644 760 742 830 872 739 668 819 884 688 752
0 0 0 0 0 0 0 0 0 0 0 0 0 0 0 0 0 0 0 0 0 0 0 138 419 591 687 663 651 642 611 759 819 812 838 872 783 809 874 642 845 1148 1174 1025
0 0 0 0 0 0 0 1 0 7 0 0 0 0 0 0 0 0 0 0 0 0 0 24 303 676 740 773 719 745 700 649 797 898 1120 962 989 973 784 966 908 1082 1263 1367
0 0 0 0 0 0 0 1 0 12 5 1 0 0 0 0 0 0 0 0 0 0 0 15 84 451 805 821 879 794 768 680 596 811 853 894 964 940 992 1078 1152 1077 1244 1380
0 0 0 0 0 0 0 0 0 0 3 0 0 22 0 0 0 0 0 0 0 0 0 2 96 239 796 965 1087 1019 819 733 547 522 662 964 1192 1206 1009 1246 1367 1337 1379 1471
15 11 1 0 0 0 0 0 0 0 0 0 0 4 0 4 0 0 5 0 0 2 2 2 88 164 485 965 1188 1203 927 930 797 759 712 1057 1362 1410 1496 1556 1560 1521 1519 1478
37 8 2 0 0 0 0 0 0 0 0 0 0 0 0 0 0 0 19 0 0 8 24 60 77 5 104 547 1137 1394 1291 1085 1127 1155 1017 1179 1568 1591 1577 1706 1705 1697 1632 1632
21 14 15 1 0 0 0 0 0 0 0 0 0 0 0 0 0 0 0 0 0 0 17 96 140 298 105 221 700 1207 1460 1294 1317 1493 1343 1429 1625 1689 1699 1672 1775 1778 1776 1799
22 18 18 11 3 0 0 76 0 1 0 0 0 0 0 0 9 0 0 0 0 0 0 70 179 205 352 297 309 847 1069 1443 1575 1571 1627 1659 1765 1782 1857 1846 1929 1970 1886 1930
22 7 24 13 2 0 1 0 0 1 25 4 0 0 0 0 0 0 0 0 0 0 0 9 133 279 484 673 344 547 911 1299 1474 1597 1686 1765 1771 1837 1902 1917 1978 1973 2044 2043
29 16 13 19 18 16 24 1 0 0 4 0 2 1 0 0 0 5 0 0 0 0 0 7 238 626 1225 1175 642 540 967 1345 1634 1697 1646 1753 1810 1907 1939 2045 2034 2026 1968 1885
3 27 9 19 25 10 10 0 0 0 2 4 6 6 4 0 0 0 0 0 0 0 0 0 317 902 1606 844 532 855 1099 1377 1692 1490 1416 1556 1668 1983 2041 2140 2136 2149 2002 1906
2 2 10 9 33 6 1 1 0 1 2 6 6 7 10 4 0 0 0 0 0 0 0 0 82 650 1622 990 602 1383 1412 1397 1594 1524 1479 1687 1802 1645 1693 2034 2140 2157 2207 2263
8 33 30 37 16 58 5 10 7 4 4 2 3 3 6 7 3 0 0 0 0 0 0 0 0 248 955 1629 1058 1290 1466 1518 1591 1650 1742 1792 1870 1803 1697 2055 2189 2181 2285 2194
0 1 0 1 67 20 0 6 7 7 6 3 3 3 5 9 1 0 0 0 0 0 0 0 0 0 0 318 1114 1607 1711 1584 1677 1789 1914 1975 2099 2083 1907 2105 2280 2265 2204 2228
0 0 0 0 5 0 3 5 5 4 14 2 2 1 2 8 2 1 0 0 0 0 0 0 0 0 0 0 0 257 1580 1499 1504 1765 1868 1992 2092 2052 2277 2187 2200 2234 2296 2306
1 0 0 0 2 3 2 5 3 4 3 6 2 0 0 0 5 4 0 0 0 0 0 0 0 0 0 0 0 0 9 1206 2156 2017 1723 1666 1627 1878 1875 2011 2074 1219 993 1116

GFSCGP_con_mlcape_075.txt.gz
CAPE
0 0 0 0 0 0 0 0 0 0 7 1 36 186 83 451 588 716 713 604 363 459 410 297 194 102 0 0 44 41 104 195 300 390 211 363 297 577 593 562 1225 1430 1540 1505
0 0 0 0 0 0 0 0 0 0 0 26 61 66 367 540 525 588 647 714 407 467 361 391 250 146 22 0 48 99 165 288 283 158 115 205 350 325 484 566 1051 1388 1404 1776
0 0 0 0 0 0 0 0 0 0 0 1 48 77 277 539 636 633 680 739 484 307 476 405 363 259 107 0 60 162 253 384 331 23 102 176 425 612 504 998 973 1253 1333 1541
0 0 0 0 0 0 0 0 0 0 0 0 7 39 73 478 262 473 525 793 592 114 475 498 501 370 217 9 52 202 241 439 439 260 0 230 314 218 308 533 401 1054 1113 1264
0 0 0 0 0 0 0 0 0 0 0 0 1 0 7 64 143 368 439 584 685 380 292 463 518 438 366 111 33 100 400 476 300 327 42 172 379 142 202 122 1025 1080 1274 1214
0 0 0 0 0 0 0 0 0 0 0 0 0 0 1 11 30 228 417 480 555 633 367 446 504 497 475 393 92 134 518 631 545 567 229 536 270 270 2 90 695 669 969 1160
0 0 0 0 0 0 0 0 0 0 0 0 0 0 23 39 68 93 358 492 535 551 567 461 496 491 534 517 414 240 591 946 812 683 301 748 1000 495 600 683 210 257 179 271
0 0 0 0 0 0 0 0 0 0 0 0 0 0 0 1 45 25 238 455 529 610 585 595 570 562 576 610 737 632 744 1150 1068 628 425 371 801 295 141 965 422 180 155 145
0 0 0 0 0 0 0 0 0 0 0 0 0 0 0 0 0 0 6 323 538 690 691 708 706 658 597 656 942 892 882 1177 1247 771 716 753 655 348 202 842 1170 938 670 251
0 0 0 13 8 2 0 0 0 0 0 0 0 0 0 0 0 2 0 48 166 493 515 597 825 776 670 604 711 1034 1023 1312 1431 862 1149 1025 896 883 919 1328 1558 1112 950 899
0 0 0 0 17 10 0 0 0 7 0 0 0 0 0 0 0 0 0 0 31 93 299 359 477 703 813 747 642 786 1087 1357 1471 1266 1063 950 1112 940 992 1134 1474 1283 1414 1418
0 0 0 0 0 0 0 10 0 18 6 0 0 8 0 0 0 0 0 18 6 8 98 135 352 524 747 870 857 820 831 869 1247 1279 1214 1171 1401 1293 1363 1154 1115 1420 1630 1918
0 0 0 0 0 0 0 0 5 2 14 38 11 8 0 3 0 3 1 8 12 21 16 1 67 448 685 903 1052 984 917 873 923 1331 1316 1452 1468 1561 1422 1483 1366 1339 1620 1979
0 0 0 0 0 0 3 0 6 22 22 3 25 41 35 13 38 73 71 74 42 12 0 0 55 279 758 1021 1338 1388 1087 990 953 984 1066 1432 1735 1763 1571 1592 1676 1678 1896 2120
0 6 1 0 0 0 0 0 11 20 1 9 18 33 38 27 8 85 72 39 4 0 36 0 51 208 467 980 1598 1622 1257 1343 1154 1241 1103 1420 1874 1910 1898 1707 1851 2028 2089 2178
26 22 4 12 0 0 0 0 0 0 0 0 0 0 0 0 6 21 17 78 70 35 74 145 167 241 462 795 1250 1753 1591 1616 1438 1484 1222 1289 1801 2111 2027 1892 1962 2135 2196 2231
102 37 30 28 12 1 0 0 0 0 0 0 0 0 0 0 1 124 118 0 24 4 38 118 304 416 413 321 855 1496 1884 1649 1614 1865 1491 1394 1838 2140 2200 2136 2178 2301 2341 2419
55 48 26 17 24 5 0 5 14 34 0 0 0 0 0 3 21 4 16 0 0 0 0 0 70 333 443 346 306 724 1349 1953 1891 1830 2122 1676 1945 2246 2402 2469 2503 2546 2622 2452
37 32 22 15 6 8 6 60 49 19 0 74 0 0 0 17 0 0 0 0 0 0 0 0 0 100 442 623 604 472 1111 1711 2084 2212 2165 2144 2101 2327 2648 2590 2692 2806 2857 2858
31 33 33 18 17 15 58 7 1 21 0 34 11 2 0 0 2 34 0 0 0 0 0 0 0 169 531 777 1143 871 758 1466 2201 2138 2324 2549 2339 2578 2793 2840 2736 2873 2965 2836
44 50 13 16 9 23 82 43 0 14 16 1 3 4 0 0 0 0 0 0 0 0 0 0 0 134 934 1349 1972 1724 1123 1304 1958 2073 2363 2705 2684 2771 2949 3074 3129 3131 2947 2423
12 44 69 31 29 16 136 18 17 52 2 0 0 2 3 4 3 1 0 0 0 0 0 0 0 5 233 1656 2555 2046 1515 1681 1976 2164 2407 2531 2829 2634 2668 3122 3271 3188 3160 2989
10 1 4 48 38 98 178 85 7 5 8 3 0 6 12 11 7 7 0 0 0 0 0 0 0 0 0 22 1756 1322 1803 2002 2042 2341 2438 2584 2610 2724 2534 3036 3263 3002 3152 2533
11 0 0 5 4 108 98 76 69 1 3 9 8 13 7 5 14 12 1 3 0 0 0 0 0 0 0 0 0 138 813 1858 2045 2395 2608 2639 2645 2699 2559 2690 2877 2623 2471 2574
0 1 0 0 8 0 15 0 1 0 3 4 4 13 4 3 1 13 9 3 0 0 0 0 2 3 2 0 0 0 0 336 2104 2174 2236 2484 2462 2438 2665 2563 2413 2506 2346 2211
0 0 0 0 1 2 0 3 4 6 4 5 6 12 5 7 0 0 9 2 0 0 0 0 7 0 0 0 0 0 0 0 731 1986 2308 2413 2387 2588 2539 2310 2154 1368 1651 1362

GFSCGP_con_mlcape_078.txt.gz
CAPE
0 0 0 0 0 0 0 0 0 0 0 0 0 163 75 0 0 0 429 372 358 278 290 281 188 109 0 0 30 314 163 551 543 612 626 751 538 944 708 901 1636 1666 1366 1618
0 0 0 0 0 0 0 0 0 0 0 0 29 208 50 1 3 0 88 426 342 348 267 309 206 149 21 0 74 114 209 499 342 932 617 667 837 612 808 1197 1342 951 1576 1667
0 0 0 0 0 0 0 0 0 0 0 0 20 258 53 0 27 130 350 476 337 435 317 333 199 186 64 2 215 51 512 679 410 562 361 464 515 690 457 1471 1231 1535 1328 1770
0 0 0 0 0 0 0 0 0 0 0 0 0 0 261 45 5 450 515 219 248 226 465 400 211 312 109 39 268 262 599 803 241 457 173 227 462 611 407 349 1452 1311 1563 1681
0 0 0 0 0 0 0 0 0 0 0 0 0 0 6 559 334 32 0 295 226 25 431 428 443 318 206 133 259 493 415 951 320 225 481 266 496 304 1057 628 703 1468 1391 1661
0 0 0 0 0 0 0 0 0 0 0 0 0 0 0 303 99 1 3 320 408 80 116 410 537 390 392 229 175 523 476 701 519 89 519 427 262 685 470 469 1068 1487 1163 1380
0 0 0 0 0 0 0 0 0 0 0 0 0 0 0 33 300 34 18 442 494 311 172 371 397 537 464 341 174 398 578 495 623 470 182 1045 178 384 866 298 1252 642 1310 1155
0 0 0 0 0 0 0 0 0 0 0 0 0 0 0 0 0 431 589 498 573 594 253 411 589 597 584 617 303 263 735 617 665 820 31 411 950 273 565 1154 210 749 575 767
0 0 0 0 0 0 0 0 0 0 0 0 0 0 0 0 0 7 11 107 275 29 539 482 722 728 812 722 695 356 776 885 830 572 790 107 1226 1196 424 774 1156 307 462 937
0 0 0 0 2 2 0 0 0 0 0 0 0 0 0 0 0 39 52 9 20 46 68 640 599 780 837 818 952 772 834 1061 1096 728 860 498 355 900 696 93 1029 1108 1359 690
0 0 0 0 0 0 9 0 0 1 0 0 0 0 0 0 0 0 134 40 0 13 51 568 781 698 825 951 948 1151 949 1292 1455 1352 842 701 567 494 234 809 621 1259 894 1112
0 0 0 0 0 0 5 1 0 9 1 1 0 0 17 2 0 0 0 106 30 2 26 23 492 838 882 972 1034 1251 1237 1440 1585 1553 1241 830 817 611 468 57 1560 1558 1953 1920
0 0 0 0 0 0 0 0 0 0 0 8 8 0 0 0 0 0 0 3 140 147 195 204 338 888 1011 1019 1015 1144 1279 1271 1641 1793 1508 1283 1068 1026 769 406 887 1773 1256 1569
0 0 0 0 0 0 0 0 0 0 0 0 0 3 79 48 63 168 184 151 114 115 82 110 133 540 880 1187 1118 1125 1151 1305 1376 1811 1734 1484 1348 1353 1192 1182 686 1139 1882 1686
0 0 0 0 0 0 0 0 0 0 0 0 0 31 0 0 31 66 272 183 83 71 186 242 293 291 253 1049 1299 1325 1344 1143 1351 1391 1657 1745 1624 1432 1639 1641 1711 1364 1299 1730
17 3 6 0 0 0 0 0 0 0 0 0 0 0 0 0 0 35 218 235 200 180 153 118 196 316 304 525 1473 1446 1527 1382 1320 1355 1539 1613 1817 1799 1688 1740 1885 1857 1615 1812
5 6 23 2 4 0 0 0 0 0 0 0 0 0 0 1 0 6 26 42 0 0 18 24 6 18 90 198 620 1959 1776 1599 1691 1700 1641 1650 1795 2034 2027 2069 1942 1990 1950 1925
7 32 25 0 3 4 0 0 3 0 0 0 0 0 0 4 2 11 4 12 0 0 0 0 0 0 0 63 518 742 2274 1788 2014 1949 2149 1841 1735 2011 2296 2181 2182 2039 2167 2255
19 28 28 18 6 0 0 118 70 51 0 115 18 10 8 106 7 17 0 0 0 0 0 0 0 0 0 53 363 585 640 1848 1880 1969 2176 2240 1823 2065 2345 2451 2320 2288 2257 2356
47 93 36 9 18 4 45 3 11 0 7 0 0 0 0 13 0 10 0 0 0 0 0 0 0 0 18 359 755 1158 1488 922 2530 2001 2222 2502 2144 2037 2357 2554 2514 2528 2545 2570
1 1 32 30 6 8 16 21 5 0 28 8 0 0 1 0 0 0 0 0 0 0 0 0 0 0 0 0 16 861 2613 2657 1605 2682 2238 2490 2787 2202 2490 2786 2829 2856 2824 2848
4 2 4 15 13 10 66 40 23 45 0 0 0 0 0 0 4 0 0 0 0 1 0 0 0 0 0 0 0 10 899 1062 2836 2151 2635 2588 2643 2845 2712 2925 3164 3050 3080 3074
6 0 0 0 3 4 0 0 0 17 8 8 0 0 0 0 0 10 12 0 0 1 0 0 0 0 0 0 0 1 0 72 800 2060 2888 2624 2931 3071 2808 3000 3154 3328 3236 3196
8 0 0 0 0 0 0 0 7 0 0 0 1 0 0 0 0 2 4 2 1 0 0 0 0 0 0 0 0 0 0 0 513 3209 2886 2933 3074 3186 3105 2965 3186 3366 3360 3345
2 1 2 0 2 0 0 0 7 3 6 5 5 7 2 0 3 3 4 3 2 3 0 0 0 2 0 0 0 0 0 1 115 2639 3044 3110 3151 2969 3176 2836 3280 3376 3349 3240
0 0 0 0 0 2 0 2 2 3 4 3 4 4 4 10 10 0 7 9 8 0 0 0 0 5 0 0 0 0 0 0 0 765 1627 2636 2803 2860 2818 2931 2674 2078 2878 2285

GFSCGP_con_mlcape_081.txt.gz
CAPE
0 0 0 0 0 0 0 0 0 0 0 0 0 218 576 387 213 325 315 268 210 123 194 29 6 0 0 14 3 41 117 179 271 323 38 496 591 551 496 869 1005 1308 1506 1050
0 0 0 0 0 0 0 0 0 0 0 0 30 92 381 111 57 228 149 92 189 153 163 301 23 1 0 0 26 14 140 184 318 275 177 416 421 603 392 663 1409 1391 1490 1112
0 0 0 0 0 0 0 0 0 0 0 0 66 136 107 18 0 0 26 13 60 151 99 302 74 0 0 0 15 73 266 139 378 185 116 386 744 103 1010 794 1205 1027 1561 1192
0 0 0 0 0 0 0 0 0 0 0 0 0 13 112 47 24 9 14 29 85 148 197 285 160 2 0 0 0 198 283 146 408 228 24 206 342 263 672 1097 843 1232 1068 1414
0 0 0 0 0 0 0 0 0 0 0 0 0 0 0 85 61 52 53 0 0 90 219 188 120 111 0 0 0 66 382 204 103 547 40 105 176 228 627 546 607 991 1083 1524
0 0 0 0 0 0 0 0 0 0 0 0 0 0 0 59 53 27 228 71 124 223 286 193 157 129 19 4 0 0 354 192 76 45 302 23 54 227 675 179 478 966 1071 1327
0 0 0 0 0 0 0 0 0 0 0 0 0 0 0 0 114 133 228 534 204 193 385 277 180 113 71 8 88 0 229 233 79 2 143 231 2 114 388 751 935 868 716 934
0 0 0 0 0 0 0 0 0 0 0 0 0 0 0 0 107 330 271 375 5 320 470 393 292 174 197 53 169 172 54 296 174 0 0 180 209 47 303 1124 919 803 725 576
0 0 0 0 0 0 0 0 0 0 0 0 0 0 0 0 0 52 36 0 33 475 71 437 381 308 223 154 78 310 149 133 245 86 0 29 431 1 105 286 914 802 768 821
0 0 0 0 0 0 0 0 0 0 0 0 0 0 0 0 0 30 147 124 442 345 129 138 210 410 318 292 135 198 348 151 296 201 27 0 171 317 65 95 657 664 232 565
0 0 0 0 0 0 0 0 0 0 0 0 0 0 0 32 0 62 211 362 530 130 144 327 311 312 102 411 340 173 483 328 316 202 258 0 0 484 413 434 148 787 654 1507
0 0 0 0 0 0 0 0 0 0 0 0 0 0 0 3 49 0 193 180 277 105 393 342 184 407 68 0 553 315 525 493 410 310 310 254 0 84 327 393 192 180 563 823
0 0 0 0 0 0 0 0 0 0 0 0 0 0 0 21 6 43 259 295 257 394 321 138 2 200 268 0 275 625 473 602 629 611 311 415 259 0 219 151 201 199 539 698
0 0 0 0 0 0 0 0 0 0 0 0 0 0 0 0 0 8 75 140 248 258 128 6 0 0 0 13 166 681 600 837 891 838 683 478 396 320 26 16 0 436 667 1372
0 0 0 0 0 0 0 0 0 0 0 0 0 0 0 0 0 1 9 10 16 73 33 0 18 7 2 82 155 629 909 778 1094 1126 1028 813 571 438 515 213 116 0 1150 963
0 0 0 0 0 0 0 0 0 0 0 0 0 0 0 0 0 0 0 0 0 0 0 0 0 49 51 285 333 595 844 977 1173 1298 1284 1118 972 783 684 717 571 254 1 1455
0 0 0 0 0 0 0 0 0 0 0 0 0 4 0 0 0 0 0 0 0 0 0 0 0 0 0 99 61 201 39 140 1011 1316 1419 1390 1188 1122 968 1017 951 972 619 167
0 0 6 0 0 0 0 0 0 0 0 4 22 26 37 3 0 0 0 0 0 0 0 0 0 0 6 72 199 82 6 0 342 1139 1382 1466 1486 1294 1212 1083 1200 1271 1441 1184
11 16 3 0 0 0 0 33 5 0 1 0 0 0 0 0 0 0 0 0 0 0 0 0 0 0 0 0 0 85 2 0 606 1565 1288 1420 1429 1515 1497 1268 1257 1395 1429 1614
0 0 1 0 0 0 20 31 1 0 0 0 0 0 0 0 0 0 0 0 0 0 0 0 0 0 0 0 0 15 36 429 809 999 1979 1604 1468 1549 1619 1722 1541 1693 1641 1531
0 0 0 0 6 20 0 17 3 0 0 1 5 0 0 0 0 0 0 0 0 0 0 0 0 0 0 0 0 0 0 6 0 58 486 2363 1842 1610 1725 1818 1951 1856 1902 1834
0 0 0 0 0 2 0 1 1 3 0 0 0 0 0 0 0 0 0 0 0 0 0 0 0 0 0 0 0 0 0 0 0 0 140 2010 2398 1932 1901 1918 2111 2091 2039 2045
2 0 0 0 0 0 0 0 0 0 1 0 0 0 0 0 0 0 0 0 0 0 0 0 0 0 0 0 0 0 0 0 0 0 170 1648 2439 2318 2018 2097 2193 2310 2281 2274
0 0 0 0 0 0 0 0 0 0 1 0 0 0 0 0 0 0 0 0 0 0 0 0 0 0 0 0 0 0 0 0 0 1 199 1991 2537 2597 2349 2403 2366 2557 2530 2461
0 0 0 0 0 0 0 0 0 2 2 2 0 0 0 0 0 0 3 0 0 0 3 0 0 0 0 0 0 0 0 0 0 0 0 1231 2672 2609 2670 2631 2643 2620 2736 2726
0 0 0 0 0 0 0 1 4 0 1 7 3 1 0 2 1 0 0 2 0 0 0 0 0 14 0 0 0 0 0 0 0 0 1 0 730 1676 2716 2450 2436 1978 2510 2625

GFSCGP_con_mlcape_084.txt.gz
CAPE
0 0 0 0 0 0 0 0 0 0 0 0 9 196 232 54 389 357 307 248 163 49 28 0 0 0 60 52 25 70 32 56 295 175 131 579 404 667 687 461 860 1227 1131 1281
0 0 0 0 0 0 0 0 0 0 0 0 5 100 386 105 323 92 25 266 233 100 3 0 3 0 0 0 0 37 17 0 114 107 35 390 393 546 343 660 824 1174 1196 1045
0 0 0 0 0 0 0 0 0 0 0 9 175 235 379 400 422 314 39 276 252 93 56 0 0 0 9 0 0 12 14 2 6 103 18 329 596 477 332 684 1082 1223 1351 889
0 0 0 0 0 0 0 0 0 0 0 0 5 4 143 172 104 141 352 311 226 99 85 72 0 0 12 0 0 63 62 51 43 26 0 317 497 196 557 406 921 1154 1318 868
0 0 0 0 0 0 0 0 0 0 0 0 0 0 0 69 35 28 222 194 12 144 132 115 34 0 0 7 22 110 73 106 100 12 0 140 258 169 383 670 776 773 1259 1024
0 0 0 0 0 0 0 0 0 0 0 0 0 0 0 24 79 1 11 51 68 217 194 195 160 0 0 0 27 125 86 84 135 44 0 4 96 198 377 583 760 901 863 1031
0 0 0 0 0 0 0 0 0 0 0 0 0 0 0 0 5 17 19 11 83 287 240 252 264 18 0 0 0 178 102 60 131 115 4 0 33 70 334 491 603 519 781 1056
0 0 0 0 0 0 0 0 0 0 0 0 0 0 0 0 0 15 77 63 0 0 188 288 313 87 0 4 0 146 179 62 45 142 80 2 0 10 170 527 412 478 659 838
0 0 0 0 0 0 0 0 0 0 0 0 0 0 0 0 0 39 72 106 75 227 169 298 352 162 11 2 0 0 202 94 52 10 0 10 24 0 2 606 791 539 570 548
0 0 0 0 0 0 0 0 0 0 0 0 0 0 0 0 0 0 45 115 234 255 424 457 335 207 92 6 50 25 50 154 77 11 0 0 0 75 6 62 636 802 519 487
0 0 0 0 0 0 0 0 0 0 0 0 0 0 0 0 18 13 4 28 234 109 380 425 371 272 158 159 98 87 25 107 211 130 32 0 0 26 184 25 68 717 639 605
0 0 0 0 0 0 0 0 0 0 0 0 0 0 0 0 19 19 123 90 68 275 313 434 417 360 201 178 196 230 249 59 131 211 135 7 0 0 152 188 1 14 760 732
0 0 0 0 0 0 0 0 0 0 0 0 0 0 0 0 9 0 32 121 38 39 13 12 153 92 243 67 106 233 336 354 122 224 202 149 0 0 9 202 241 33 130 727
0 0 0 0 0 0 0 0 0 0 0 0 0 0 0 0 0 0 0 0 0 0 0 9 2 24 14 1 15 62 202 444 354 248 176 238 151 0 0 60 52 240 221 239
0 0 0 0 0 0 0 0 0 0 0 0 0 0 27 0 0 0 0 0 0 0 0 0 0 4 4 0 0 46 110 159 514 343 252 211 289 161 0 0 43 0 218 293
0 0 0 0 0 0 0 0 0 0 0 0 0 0 0 0 0 0 0 0 0 0 0 0 0 0 0 0 117 87 200 239 553 555 409 209 293 272 151 0 0 0 0 221
0 0 0 0 0 0 0 0 0 0 0 0 0 0 0 8 0 0 0 0 0 0 0 0 0 0 0 0 6 66 76 98 436 812 714 663 295 361 293 306 58 4 0 0
0 0 0 0 0 0 0 0 4 13 0 0 0 0 0 0 0 0 0 0 0 0 0 0 0 0 0 0 0 5 98 17 46 96 475 907 884 531 429 399 447 275 191 35
0 0 0 0 0 0 0 0 2 1 0 0 0 0 0 0 0 0 0 0 0 0 0 0 0 0 0 0 0 0 6 11 0 20 9 203 923 927 818 743 688 656 575 525
0 0 0 0 0 0 0 0 0 0 0 0 0 0 0 0 0 0 0 0 0 0 0 0 0 0 0 0 0 0 0 0 0 0 0 0 76 1179 1103 1068 973 954 919 969
0 0 0 0 0 0 0 0 0 4 0 0 0 0 0 0 0 0 0 0 0 0 0 0 0 0 0 0 0 0 0 0 0 0 0 3 1 304 1414 1238 1149 1077 1133 1093
0 0 0 0 0 0 0 0 0 0 0 0 1 0 0 0 0 0 0 0 0 0 0 0 0 0 0 0 0 0 0 0 0 0 0 4 10 269 1582 1420 1370 1145 1191 1285
0 0 0 0 0 0 0 0 0 0 0 0 0 0 0 0 0 0 0 0 0 0 0 0 0 0 0 0 0 0 0 0 0 0 0 10 44 357 1607 1541 1555 1605 1413 1490
0 0 0 0 0 0 0 0 0 0 0 0 0 1 0 1 0 0 0 0 0 0 0 0 0 0 0 0 0 0 0 0 0 0 0 0 18 1426 1986 1667 1680 1830 1763 1645
0 0 0 0 0 0 0 0 0 0 0 0 0 1 2 2 1 0 0 0 0 0 0 0 0 0 0 0 0 0 0 0 0 0 0 0 0 437 1883 1894 1932 2008 1988 1863
0 0 0 0 0 0 0 0 0 0 0 1 0 0 0 1 0 2 0 0 0 0 0 0 0 0 0 0 0 0 0 0 0 0 0 0 0 1 346 1776 2007 1557 1883 1887

GFSCGP_con_mlcape_087.txt.gz
CAPE
0 0 0 0 0 0 0 0 0 0 0 0 0 0 159 52 502 332 204 39 71 97 6 0 0 0 0 0 0 86 148 201 428 329 421 583 682 745 659 681 588 629 986 899
0 0 0 0 0 0 0 0 0 0 0 0 0 0 130 54 443 303 249 107 81 69 23 0 0 7 3 15 0 91 131 128 370 208 297 566 531 585 521 609 701 1122 1006 1029
0 0 0 0 0 0 0 0 0 0 0 63 23 2 167 41 217 519 182 181 156 106 21 1 0 36 18 26 0 79 97 90 153 167 72 320 344 441 473 583 648 907 1172 993
0 0 0 0 0 0 0 0 0 0 0 0 19 0 12 131 32 200 489 134 262 185 46 4 0 0 50 38 0 0 41 55 33 49 18 103 464 347 481 472 703 905 1250 992
0 0 0 0 0 0 0 0 0 0 0 0 0 0 0 178 217 188 231 246 155 297 132 7 0 0 66 40 18 0 0 0 0 0 0 0 300 379 438 386 655 998 1132 1154
0 0 0 0 0 0 0 0 0 0 0 0 0 0 0 0 0 46 175 140 245 233 184 34 1 0 0 9 39 24 0 0 0 0 0 0 165 370 254 386 451 741 1025 1099
0 0 0 0 0 0 0 0 0 0 0 0 0 0 0 0 0 18 49 70 126 297 162 144 29 3 0 21 37 91 46 0 5 0 0 0 8 213 213 258 571 625 694 1126
0 0 0 0 0 0 0 0 0 0 0 0 0 0 0 0 0 0 0 18 31 122 196 135 119 11 2 31 49 114 79 12 22 18 0 0 0 6 87 213 371 712 762 851
0 0 0 0 0 0 0 0 0 0 0 0 0 0 0 0 0 0 0 0 0 11 64 179 204 29 0 0 51 112 77 37 30 29 4 0 0 0 0 119 390 616 654 834
0 0 0 0 0 0 0 0 0 0 0 0 0 0 0 2 7 0 0 8 0 0 10 70 263 216 1 0 0 80 94 13 0 48 69 27 0 0 0 7 243 675 569 481
0 0 0 0 0 0 0 0 0 0 0 0 0 0 0 1 1 0 2 7 8 21 10 59 155 241 111 1 0 4 160 79 22 17 49 0 0 0 0 0 0 146 792 648
0 0 0 0 0 0 0 0 0 0 0 0 0 0 0 0 0 9 0 0 0 1 38 178 189 153 90 47 40 9 30 144 63 24 0 0 0 0 0 0 0 17 145 589
0 0 0 0 0 0 0 0 0 0 0 0 0 0 0 0 0 0 0 0 0 0 0 31 32 5 63 43 4 19 1 0 88 78 4 0 0 0 0 0 0 0 44 107
0 0 0 0 0 0 0 0 0 0 0 0 0 0 1 0 0 0 0 0 0 0 0 0 0 0 0 2 10 1 58 47 2 96 97 38 0 0 0 0 0 0 0 56
0 0 0 0 0 0 0 0 0 0 0 0 0 0 0 1 0 1 1 0 0 0 0 0 0 0 0 0 46 81 25 46 214 47 111 136 83 0 0 0 0 0 0 1
0 0 0 0 0 0 0 0 0 0 0 0 0 0 0 0 0 0 0 1 0 0 0 0 0 0 0 0 0 0 12 85 145 297 159 136 124 109 0 0 0 0 0 0
0 0 0 0 0 0 0 0 0 0 0 0 0 0 0 0 0 0 0 0 0 0 0 0 0 0 0 0 0 0 20 8 98 195 201 240 136 162 170 20 0 0 0 0
0 0 0 0 0 0 0 0 0 0 0 0 0 0 0 0 0 0 0 0 0 0 0 0 0 0 0 0 0 0 0 59 31 457 492 411 302 244 239 209 82 0 0 0
0 0 0 0 0 0 0 0 0 0 0 0 0 0 0 0 0 0 0 0 0 0 0 0 0 0 0 0 0 0 0 0 3 23 1 1 0 119 478 327 281 249 26 0
0 0 0 0 0 0 0 0 0 0 0 0 0 0 0 0 0 0 0 0 0 0 0 0 0 0 0 0 0 0 0 0 0 0 4 2 0 0 0 477 438 340 319 192
0 0 0 0 0 0 0 0 0 0 0 0 0 0 0 0 0 0 0 0 0 0 0 0 0 0 0 0 0 0 0 0 0 0 0 2 1 1 0 0 221 555 510 468
0 0 0 0 0 0 0 0 0 0 0 0 0 0 0 0 0 0 0 0 0 0 0 0 0 0 0 0 0 0 0 0 0 0 0 0 0 1 0 0 216 787 744 702
0 0 0 0 0 0 0 0 0 0 0 0 0 0 0 0 0 0 0 0 0 0 0 0 0 0 0 0 0 0 0 0 0 0 0 0 0 1 0 1 54 706 990 917
0 0 0 0 0 0 0 0 0 0 0 0 0 0 0 0 0 0 0 0 0 0 0 0 0 0 0 0 0 0 0 0 0 0 0 0 0 0 5 13 299 600 1185 1049
0 0 0 0 0 0 0 0 0 0 0 0 0 0 0 1 0 0 0 0 0 0 0 0 0 0 0 0 0 0 0 0 0 0 0 0 0 0 1 17 428 1147 1337 1343
0 0 0 0 0 0 0 0 0 0 0 0 0 0 0 0 2 0 3 0 0 0 0 0 0 0 0 0 0 0 0 0 0 0 0 0 0 0 0 2 75 1163 1183 1260

GFSCGP_con_mlcape_090.txt.gz
CAPE
0 0 0 0 0 0 0 0 0 0 0 22 0 0 0 224 402 365 361 212 157 108 56 0 0 0 0 0 0 0 0 56 176 216 301 392 418 539 556 550 593 85 328 579
0 0 0 0 0 0 0 0 0 0 0 0 0 0 1 169 409 465 332 267 195 139 79 15 0 0 0 0 0 0 4 45 198 257 324 380 387 495 489 523 541 638 878 816
0 0 0 0 0 0 0 0 0 0 0 3 2 0 27 133 354 499 407 269 125 108 87 16 0 0 0 0 34 0 0 29 207 209 245 235 363 376 460 573 408 736 857 890
0 0 0 0 0 0 0 0 0 0 0 0 0 0 0 174 193 480 463 318 235 118 55 8 0 0 0 0 0 37 0 14 162 159 232 328 289 310 354 399 515 615 1052 875
0 0 0 0 0 0 0 0 0 0 0 0 0 0 0 82 212 162 419 427 264 212 144 12 3 0 22 0 0 32 51 12 100 169 84 171 219 229 328 355 420 572 802 982
0 0 0 0 0 0 0 0 0 0 0 0 0 0 0 0 0 74 62 114 260 220 240 101 0 0 0 2 0 0 51 10 33 109 71 46 76 182 249 328 371 430 678 910
0 0 0 0 0 0 0 0 0 0 0 0 0 0 0 0 0 0 0 0 41 158 155 133 27 0 13 0 0 0 63 54 0 46 8 0 0 110 236 247 292 371 523 817
0 0 0 0 0 0 0 0 0 0 0 0 0 0 0 0 0 0 0 0 0 20 196 127 28 1 20 27 0 0 43 53 38 0 0 0 0 4 234 272 114 238 482 630
0 0 0 0 0 0 0 0 0 0 0 0 0 0 0 0 0 0 0 0 0 0 84 184 158 1 0 19 30 36 0 0 33 31 0 0 0 0 66 198 136 192 342 645
0 0 0 0 0 0 0 0 0 0 0 0 0 0 0 0 0 0 0 0 0 0 14 184 174 80 0 2 18 15 39 0 14 28 0 0 0 0 0 0 75 149 274 552
0 0 0 0 0 0 0 0 0 0 0 0 0 0 0 0 1 1 2 1 1 10 43 57 146 103 3 0 5 0 13 35 9 41 43 2 0 0 0 0 0 20 246 499
0 0 0 0 0 0 0 0 0 0 0 0 0 0 0 0 0 3 0 1 2 2 4 24 69 112 69 1 0 0 28 32 35 46 51 33 0 0 0 0 0 0 43 158
0 0 0 0 0 0 0 0 0 0 0 0 0 0 0 0 0 4 5 0 0 0 1 2 0 8 38 17 3 0 3 63 8 11 0 0 2 0 3 0 0 0 0 0
0 0 0 0 0 0 0 0 0 0 0 0 0 0 0 0 1 0 3 2 0 0 0 1 2 3 3 1 9 11 2 0 73 33 0 0 0 0 0 0 0 0 0 0
0 0 0 0 0 0 0 0 0 0 0 0 0 0 0 0 0 0 0 1 0 0 0 0 0 0 0 0 0 0 30 44 15 39 69 36 2 0 0 0 0 0 0 0
0 0 0 0 0 0 0 0 0 0 0 0 0 0 1 0 0 0 0 0 0 0 0 0 0 0 0 0 0 0 0 3 24 132 71 98 76 38 0 0 0 0 0 0
0 0 0 0 0 0 0 0 0 0 0 0 0 0 0 0 0 0 0 0 0 0 0 0 0 0 0 0 0 0 0 1 8 75 193 168 142 138 99 4 0 0 0 0
0 0 0 0 0 0 0 0 0 0 0 0 0 0 0 0 0 0 0 0 0 0 0 0 0 0 0 0 0 0 0 0 0 2 172 276 234 215 153 113 11 0 0 0
0 0 0 0 0 0 0 0 0 0 0 0 0 0 0 0 0 0 0 0 0 0 0 0 0 0 0 0 0 0 0 0 0 0 3 2 12 269 297 243 218 117 0 0
0 0 0 0 0 0 0 0 0 0 0 0 0 0 0 0 0 0 0 0 0 0 0 0 0 0 0 0 0 0 0 0 0 0 0 3 2 1 1 231 292 248 170 109
0 0 0 0 0 0 0 0 0 0 0 0 0 0 0 0 0 0 0 0 0 0 0 0 0 0 0 0 0 0 0 0 0 0 0 0 2 3 2 1 0 95 222 317
0 0 0 0 0 0 0 0 0 0 0 0 0 0 0 0 0 0 0 0 0 0 0 0 0 0 0 0 0 0 0 0 0 0 0 0 0 4 4 0 0 0 98 303
0 0 0 0 0 0 0 0 0 0 0 0 0 0 0 0 0 0 0 0 0 0 0 0 0 0 0 0 0 0 0 0 0 0 0 0 0 1 1 3 0 0 28 173
0 0 0 0 0 0 0 0 0 0 0 0 0 0 0 0 0 0 0 0 0 0 0 0 0 0 0 0 0 0 0 0 0 0 0 0 0 0 0 2 4 0 40 112
0 0 0 0 0 0 0 0 0 0 0 0 0 0 0 0 0 0 0 0 0 0 0 0 0 0 0 0 0 0 0 0 0 0 0 0 0 0 0 0 1 3 1 365
0 0 0 0 0 0 0 0 0 0 0 0 0 0 0 0 0 0 1 1 1 0 1 0 0 0 0 0 0 0 0 0 0 0 0 0 0 0 0 0 0 0 0 22

GFSCGP_con_mlcape_093.txt.gz
CAPE
0 0 0 0 0 0 0 0 0 0 1 149 0 0 83 382 463 559 318 217 129 76 62 104 181 157 84 0 0 51 92 364 484 544 523 729 875 1164 1063 1309 1146 825 580 1153
0 0 0 0 0 0 0 0 0 0 0 1 0 0 15 237 503 627 579 312 213 134 77 75 129 118 103 0 0 72 140 396 480 648 847 1093 1191 1189 1251 1298 1196 798 896 1252
0 0 0 0 0 0 0 0 0 0 0 18 9 1 44 226 639 703 620 456 306 265 165 95 117 65 94 90 0 18 119 282 498 681 786 825 914 958 1070 1048 1125 772 756 925
0 0 0 0 0 0 0 0 0 0 0 0 4 0 9 206 328 602 657 501 380 339 267 168 107 56 60 107 43 123 159 236 420 593 756 744 701 474 918 1033 1100 1139 1151 871
0 0 0 0 0 0 0 0 0 0 0 0 0 0 0 401 197 33 313 625 478 249 271 244 127 111 84 82 80 119 240 232 292 475 700 863 781 850 837 934 1026 1185 1465 1599
0 0 0 0 0 0 0 0 0 0 0 0 0 0 0 0 0 0 4 50 379 364 186 235 164 74 106 96 129 107 177 284 282 362 538 698 787 642 731 761 860 1023 1021 1479
0 0 0 0 0 0 0 0 0 0 0 0 0 0 0 3 3 2 0 9 6 92 384 290 194 97 71 119 132 153 187 202 295 253 421 516 625 733 663 638 746 878 1123 1358
0 0 0 0 0 0 0 0 0 0 0 0 0 0 0 0 2 3 2 1 0 4 58 462 298 193 88 186 204 90 154 148 230 285 347 502 504 505 643 894 841 922 1002 1216
0 0 0 0 0 0 0 0 0 0 0 0 0 0 0 0 0 0 2 1 3 123 5 240 477 267 138 187 235 222 193 186 217 285 355 345 379 281 341 774 877 792 954 1215
0 0 0 0 0 0 0 0 0 0 0 0 0 0 0 0 1 0 2 6 4 28 107 77 436 359 132 120 261 238 251 240 220 312 352 295 247 177 199 434 814 744 669 875
0 0 0 0 0 0 0 0 0 0 0 0 0 0 11 4 4 2 2 3 6 5 18 99 345 494 133 88 194 224 244 293 320 378 408 346 223 147 213 99 494 848 759 764
0 0 0 0 0 0 0 0 0 0 0 0 0 0 12 5 4 8 1 1 3 4 4 3 14 6 121 128 94 148 157 251 314 356 430 452 404 261 159 118 0 307 730 861
0 0 0 0 0 0 0 0 0 0 0 0 0 0 5 1 0 2 4 2 0 1 0 1 1 1 2 0 72 163 202 189 238 243 170 296 428 377 285 219 158 70 172 520
0 0 0 0 0 0 0 0 0 0 0 0 0 0 4 0 0 0 2 4 2 1 0 0 0 0 0 1 0 0 168 277 360 305 224 285 348 517 375 463 434 240 137 106
0 0 0 0 0 0 0 0 0 0 0 0 0 1 2 1 0 0 0 0 2 3 1 0 0 0 0 0 0 0 0 18 322 539 419 411 493 497 476 357 494 565 422 251
0 0 0 0 0 0 0 0 0 0 0 0 1 3 1 0 0 0 0 0 0 0 3 2 0 0 0 0 0 0 0 1 39 219 393 483 523 455 372 323 278 337 428 453
0 0 0 0 0 0 0 0 0 0 0 0 0 0 1 0 0 0 0 0 0 0 0 0 0 0 0 0 2 0 0 0 2 0 17 441 499 550 506 393 289 263 273 365
0 0 0 0 0 0 0 0 0 0 0 0 0 0 0 0 0 0 0 0 0 0 0 0 0 0 0 0 0 1 0 0 0 0 0 1 8 469 685 621 495 398 339 313
0 0 0 0 0 0 0 0 0 0 0 0 0 0 0 0 0 0 0 0 0 0 0 0 0 0 0 0 0 0 3 0 0 0 0 0 0 2 12 496 519 507 300 308
0 0 0 0 0 0 0 0 0 0 0 0 0 0 0 0 0 0 0 0 0 0 0 0 0 0 0 0 0 0 0 0 0 0 0 0 0 0 0 0 12 355 388 152
0 0 0 0 0 0 0 0 0 0 0 0 0 0 0 0 0 0 0 0 0 0 0 0 0 0 0 0 0 0 0 0 0 0 0 0 0 0 0 2 2 0 64 347
0 0 0 0 0 0 0 0 0 0 0 0 0 0 0 0 0 0 0 0 0 0 0 0 0 0 0 0 0 0 0 0 0 0 0 0 0 0 0 0 0 0 3 15
0 0 0 0 0 0 0 0 0 0 0 0 0 0 0 0 0 0 0 0 0 0 0 0 0 0 0 0 0 0 0 0 0 0 0 0 0 0 0 0 0 0 2 14
0 0 0 0 0 0 0 0 0 0 0 0 0 0 0 0 0 0 0 0 0 0 0 0 0 0 0 0 0 0 0 0 0 4 0 0 0 0 0 0 0 0 3 5
0 0 0 0 0 0 0 0 0 0 0 0 0 0 0 0 0 0 0 0 0 0 0 0 0 0 0 0 0 0 0 0 0 1 1 0 0 0 0 0 0 0 0 2
0 0 0 0 0 0 0 0 0 0 0 0 0 0 0 0 0 0 0 0 0 1 1 0 1 1 0 0 0 0 0 0 0 2 1 0 0 0 0 0 0 0 0 0

GFSCGP_con_mlcape_099.txt.gz
CAPE
0 0 0 0 0 0 69 13 3 93 76 122 48 17 294 780 638 714 238 54 53 96 141 16 18 10 2 0 87 255 359 737 977 772 580 838 1322 1451 1432 1196 1451 1577 1468 1515
0 0 0 0 0 0 40 61 44 149 261 88 50 10 32 466 531 537 694 356 210 200 170 30 117 34 3 0 7 235 592 947 897 582 703 1030 1143 1413 1436 1221 1383 1640 1241 1326
0 0 0 0 0 0 41 54 15 6 273 8 4 37 103 180 346 671 623 536 477 259 134 108 186 140 41 1 79 242 722 1091 1072 1068 1449 1286 1537 1170 1410 1410 1297 1293 1267 1164
0 0 0 0 0 0 0 18 21 37 0 28 0 9 68 171 640 895 745 586 545 296 298 143 195 230 124 18 11 288 720 1179 1241 1258 1254 1095 807 722 1023 1084 909 1183 1274 1296
0 0 0 0 0 0 15 39 8 0 0 76 4 43 46 101 274 670 833 821 630 429 429 150 183 281 157 109 11 289 651 1248 1258 1313 1656 1219 1244 935 1485 1300 1453 1271 1476 1362
0 0 0 0 1 0 24 24 10 0 0 26 74 6 14 104 147 491 737 922 771 688 456 393 270 355 258 170 142 201 741 1287 1389 1556 1390 1535 595 1254 857 1236 1407 1277 970 1280
4 0 7 0 27 0 14 13 1 0 0 2 50 31 69 75 60 85 120 206 637 831 901 680 497 471 399 205 180 291 854 1305 1405 1344 1548 1653 1564 1428 1665 1307 1185 1042 1012 706
0 1 0 0 5 17 5 0 0 0 0 0 11 121 88 61 3 1 0 11 149 363 847 829 668 569 483 335 247 321 954 1446 1615 1570 1558 1809 1815 1319 809 1153 648 688 721 948
13 3 0 0 0 0 4 0 0 11 8 1 58 104 91 79 55 7 5 4 32 380 775 821 741 678 595 542 402 534 1003 1528 1825 1703 1853 1834 2021 1832 765 811 991 1123 786 1794
6 0 0 0 0 0 0 0 0 0 9 9 91 59 95 21 3 2 3 5 8 164 497 583 378 586 687 636 615 712 1038 1470 1873 1922 1819 1816 1864 2050 1826 1049 1075 648 983 852
0 2 0 0 0 0 0 0 0 14 0 43 44 165 58 0 0 4 4 5 6 6 37 176 183 127 471 443 298 752 1059 1493 1832 1854 1814 1767 1729 1930 2049 1610 1297 1215 1203 1318
0 0 0 0 0 0 0 0 0 0 0 0 11 30 3 6 3 0 2 1 1 1 4 3 2 0 1 0 5 583 471 1281 1362 1467 1581 1646 1748 1777 1770 1795 1445 1345 1307 1407
0 0 6 0 0 0 0 0 0 0 10 34 2 26 35 1 10 3 2 0 0 0 0 0 0 0 3 1 0 12 171 214 414 1462 1560 1590 1723 1783 1601 1609 1644 1399 1426 1403
0 0 0 0 0 0 0 0 0 0 0 10 47 43 37 3 7 3 3 3 2 0 0 0 0 0 0 0 0 0 1 1 98 912 932 1473 1566 1739 1623 1518 1587 1692 1543 1469
0 0 0 0 0 0 0 0 0 0 0 2 285 72 40 37 6 2 1 1 1 0 0 0 0 0 0 0 0 0 0 1 0 254 839 904 1140 1273 1514 1570 1519 1601 1771 1675
0 0 0 0 0 0 0 0 0 0 0 6 120 4 23 13 26 8 4 1 2 0 0 0 0 0 0 0 0 0 0 0 0 1 5 38 807 1015 1378 1387 1568 1719 1613 1838
0 0 0 0 0 0 0 0 0 0 0 2 71 0 4 4 6 6 4 2 0 0 0 0 0 0 0 0 0 0 0 0 0 0 2 5 5 42 720 1319 1557 1596 1601 1673
0 0 0 0 0 0 0 0 0 0 0 0 116 3 0 4 0 0 0 0 0 0 0 0 0 0 0 0 0 0 1 1 0 0 0 0 0 3 5 36 1113 1184 1444 1556
0 0 0 0 0 0 0 0 0 0 0 2 43 36 3 3 1 2 0 0 0 0 0 0 0 0 0 0 0 0 0 0 5 5 0 0 0 0 3 6 1 77 766 1059
0 0 0 0 0 0 19 0 0 0 0 0 48 52 12 21 20 9 0 0 0 0 0 0 0 0 0 0 0 0 0 0 0 0 2 3 0 0 0 0 1 3 2 206
0 0 0 0 1 22 0 0 0 0 14 0 1 19 31 27 1 0 0 0 0 0 0 0 0 0 0 0 0 0 0 0 0 0 0 0 2 0 0 0 0 2 4 4
10 14 18 10 8 21 0 0 0 13 10 6 9 14 7 0 0 0 0 0 0 0 0 0 0 0 0 0 0 0 0 0 0 0 0 0 0 0 0 0 0 0 0 0
0 16 51 38 87 20 0 0 0 0 0 0 0 0 0 0 0 0 0 0 0 0 0 0 0 0 0 0 0 0 0 0 0 0 0 0 0 0 0 0 0 0 0 0
3 0 0 4 0 0 0 0 0 0 1 0 0 0 0 0 0 0 0 0 0 0 0 0 0 0 0 0 0 0 0 0 0 0 0 0 0 0 0 0 0 0 0 0
24 24 0 0 2 0 0 0 0 0 0 0 0 0 0 0 0 0 0 0 0 0 0 0 0 0 0 0 0 0 0 0 0 0 0 0 0 0 0 0 0 0 0 0
18 6 9 4 14 10 0 4 1 0 0 0 0 0 0 0 0 0 0 0 0 0 0 0 0 0 0 0 0 0 2 1 1 0 0 0 0 0 0 0 0 0 0 0

GFSCGP_con_mlcape_102.txt.gz
CAPE
0 0 0 0 0 0 3 63 50 49 357 189 96 13 24 37 488 127 70 40 46 80 59 8 4 2 25 79 152 209 796 586 1032 913 682 900 1086 1323 1012 1095 1194 1202 1481 1253
0 0 0 0 0 0 0 17 74 114 142 101 60 8 11 74 120 249 48 27 52 93 37 2 1 7 3 0 155 214 926 585 1198 554 1038 1148 513 1185 1109 1360 1421 1439 1341 1328
0 0 0 0 0 0 0 2 0 86 41 0 0 24 1 0 0 197 258 130 95 84 88 9 10 7 0 0 124 265 1023 615 1129 760 1142 257 349 1201 1161 991 1379 1387 1304 1245
0 0 0 0 0 0 0 78 0 283 11 1 94 51 28 34 19 60 314 463 227 151 73 25 23 19 0 0 38 375 1237 790 963 891 995 1125 836 665 1129 1183 1209 1246 1049 1315
0 0 0 0 0 0 0 36 1 7 10 23 49 29 2 27 17 15 384 677 541 196 99 65 38 43 17 0 54 367 1033 1115 1124 1081 687 667 361 0 590 413 1154 1115 1166 1021
0 0 0 0 0 0 0 0 25 4 0 45 25 78 57 1 104 380 614 658 587 404 157 138 66 54 34 0 0 377 809 1244 1010 1332 1157 817 620 319 626 588 760 1205 983 1371
0 0 0 0 0 0 0 7 34 21 0 0 91 104 108 22 1 17 221 267 339 567 285 192 160 162 136 40 40 428 727 1396 1496 1251 1410 1253 1004 610 418 783 1175 932 887 1116
0 4 0 0 1 44 28 22 47 11 4 0 161 119 84 49 13 0 28 67 185 468 207 434 290 155 246 205 133 521 1028 1373 1486 1714 1683 1588 1366 1165 988 964 1119 373 257 488
5 46 21 0 0 2 14 1 18 31 0 14 324 131 124 5 20 11 1 1 37 177 618 306 490 254 125 425 338 623 984 1369 1610 1555 1756 1980 1910 1460 737 676 438 698 690 513
0 27 41 0 0 0 0 8 0 0 0 35 335 195 174 73 30 45 14 0 0 5 99 488 276 260 525 454 523 823 1292 1577 1808 2030 2017 2075 2166 2003 1259 1729 850 1166 1255 884
0 5 0 0 0 0 0 0 0 0 0 16 200 116 132 62 7 7 6 0 0 1 1 2 23 43 232 121 81 50 661 1939 1557 2066 2206 2031 2116 2272 2170 1794 1076 774 1195 773
0 0 0 0 0 0 0 0 0 0 0 0 0 68 31 35 51 0 0 0 0 0 0 2 1 2 3 41 3 0 2 94 712 1332 1610 1722 2156 2177 2216 2038 1785 1324 1117 1121
0 0 8 0 0 0 0 0 0 0 0 1 16 64 64 24 4 4 0 0 0 0 0 2 2 4 3 5 1 0 0 0 238 995 1193 1632 1782 1597 2005 2330 2138 1840 1522 1403
0 0 0 0 0 0 0 0 0 0 0 0 290 93 33 24 0 1 2 0 0 0 0 0 0 2 3 2 0 0 0 0 15 251 331 881 1368 1546 1606 1765 2004 1944 1774 1685
0 0 0 0 0 0 0 0 0 0 0 13 303 167 89 20 21 0 1 0 0 0 0 0 0 0 0 0 0 0 0 0 0 7 4 64 316 824 970 1308 1344 1644 1912 1978
0 0 0 0 0 0 0 0 0 0 0 510 290 133 56 38 30 4 1 0 0 0 0 0 0 0 0 0 0 0 0 0 0 0 0 1 10 68 172 701 1053 1254 1512 1945
0 13 0 0 0 0 0 0 0 0 0 89 160 149 43 6 4 3 2 1 0 0 0 0 0 0 0 0 0 0 0 0 0 0 0 0 2 4 1 10 161 834 1064 1214
0 0 0 0 2 0 0 0 0 0 0 66 216 137 87 64 10 0 1 1 0 0 0 0 0 0 0 0 0 0 0 1 0 0 0 0 0 0 0 0 2 10 232 1039
0 0 0 0 0 0 1 0 0 0 0 349 223 144 80 45 2 0 0 0 0 0 0 0 0 0 0 0 0 0 0 0 0 0 0 0 0 0 0 0 0 0 0 27
0 0 0 0 0 0 0 0 0 0 0 15 201 140 20 0 6 3 0 0 0 0 0 0 0 0 0 0 0 0 0 0 0 0 0 0 0 0 0 0 0 0 0 0
0 0 0 0 0 71 0 0 0 0 16 33 218 185 121 58 0 0 0 0 0 0 0 0 0 0 0 0 0 0 0 0 0 0 0 0 0 0 0 0 0 0 0 0
51 4 3 0 0 27 23 0 0 59 26 7 38 45 0 0 0 0 0 0 0 0 0 0 0 0 0 0 0 0 0 0 0 0 0 0 0 0 0 0 0 0 0 0
0 55 50 100 125 104 0 2 7 42 50 42 6 0 0 0 0 0 0 0 0 0 0 0 0 0 0 0 0 0 0 0 0 0 0 0 0 0 0 0 0 0 0 0
6 0 19 45 142 81 12 0 0 9 0 0 0 0 0 0 0 0 0 0 0 0 0 0 0 0 0 0 0 0 0 0 0 0 0 0 0 0 0 0 0 0 0 0
26 13 3 0 0 0 0 0 0 0 0 0 0 0 0 0 0 0 0 0 0 0 0 0 0 0 0 0 0 0 0 0 0 0 0 0 0 0 0 0 0 0 0 0
29 40 47 41 29 10 15 4 0 0 0 0 0 0 0 0 0 0 0 0 0 0 0 0 0 0 0 0 0 0 0 0 0 0 0 0 0 0 0 0 0 0 0 0

GFSCGP_con_mlcape_105.txt.gz
CAPE
0 0 0 0 0 0 0 7 47 127 362 170 72 2 0 1 66 96 130 47 20 15 21 4 0 0 82 72 0 457 301 655 338 623 739 782 676 868 542 244 970 1166 1247 821
0 0 0 0 0 0 0 0 11 301 287 83 126 44 0 19 51 80 134 27 24 21 16 4 0 0 57 73 43 424 466 509 254 797 958 987 751 1064 826 883 962 1139 1192 1012
0 0 0 0 0 0 0 0 2 135 7 5 38 46 21 2 13 67 56 136 26 13 2 0 0 0 50 66 149 503 407 466 415 680 676 364 410 927 948 992 1124 1108 1127 1268
0 0 0 0 0 0 0 1 182 92 8 0 110 0 0 0 9 21 28 130 50 25 3 1 0 0 46 60 190 435 480 252 751 1281 548 69 372 584 721 832 1016 1077 921 1326
0 0 0 0 0 0 0 164 203 11 0 9 27 49 1 0 0 0 32 23 18 18 11 18 0 0 0 35 167 390 662 371 538 991 1013 590 387 138 455 799 1018 1058 1080 1449
0 0 0 0 0 0 0 0 38 110 3 68 146 143 84 8 0 0 4 0 18 61 48 63 24 0 21 62 194 409 660 569 777 823 764 647 11 0 330 628 1050 995 943 988
0 0 0 0 0 0 0 0 0 2 3 0 104 131 41 24 0 0 0 0 181 151 72 89 112 71 65 94 211 276 746 759 771 1072 719 670 354 503 612 430 578 904 1005 1110
0 0 0 0 0 0 0 0 0 2 0 0 46 90 48 30 22 49 28 16 167 264 160 193 296 74 20 96 227 310 628 624 688 913 1048 942 569 572 229 451 861 1067 878 828
0 0 0 0 0 0 0 0 0 1 6 6 196 230 224 81 6 52 87 91 79 56 126 225 212 303 139 50 260 362 472 667 762 849 1325 946 992 339 268 414 837 843 319 480
7 0 0 9 12 0 0 0 0 0 0 10 97 230 184 100 45 6 8 15 10 28 73 136 55 284 346 259 339 513 532 589 1109 894 1345 1195 1220 1104 1235 1460 1311 903 767 448
0 0 8 2 0 0 0 0 0 0 0 0 31 90 214 66 10 2 0 0 3 17 17 4 22 40 200 62 141 178 86 47 9 69 428 1067 1201 1246 1143 1027 1041 909 667 467
0 0 0 0 0 0 0 0 0 0 0 1 175 102 44 0 0 0 1 0 0 4 8 3 4 1 3 8 0 0 1 16 0 0 144 762 1237 1287 1088 963 1660 961 905 695
0 0 0 0 0 0 0 0 0 0 0 1 4 68 60 1 0 0 0 0 0 0 0 0 1 1 1 0 0 0 0 0 0 7 153 755 1208 1402 1195 1301 1417 1583 1297 1018
0 0 0 0 0 0 0 0 0 0 0 62 77 80 49 10 0 0 0 0 0 0 0 0 0 0 0 1 1 0 0 0 1 0 63 235 467 871 1025 1382 1810 1988 1703 1407
0 0 0 0 0 0 0 0 0 0 0 1 13 17 55 7 0 2 0 0 0 0 0 0 1 0 0 0 0 0 0 0 0 3 19 24 123 150 386 815 1164 1482 1829 1751
0 0 0 0 0 0 0 0 0 0 294 227 34 34 25 3 0 2 0 0 0 0 0 0 0 0 0 0 0 0 0 0 0 0 8 9 96 52 24 79 343 1024 1148 1201
0 0 0 0 0 0 0 0 0 0 0 331 114 73 25 18 0 0 0 0 0 0 0 0 0 0 0 0 0 0 0 0 0 0 0 0 0 0 0 0 24 152 339 808
0 0 0 0 0 0 0 0 0 0 0 257 197 105 99 39 4 0 0 0 0 0 0 0 0 0 0 0 0 0 0 0 0 0 0 0 0 0 0 0 0 0 4 131
0 0 0 0 0 0 0 1 0 0 446 527 266 155 67 55 18 0 0 0 0 0 0 0 0 0 0 0 0 0 0 0 0 0 0 0 0 0 0 0 0 0 0 0
0 0 0 0 0 0 0 0 0 0 222 552 345 221 34 0 3 0 0 0 0 0 0 0 0 0 0 0 0 0 0 0 0 0 0 0 0 0 0 0 0 0 0 0
0 0 0 0 0 14 0 0 0 0 28 104 304 83 38 5 0 0 0 0 0 0 0 0 0 0 0 0 0 0 0 0 0 0 0 0 0 0 0 0 0 0 0 0
35 0 0 0 0 1 0 0 14 89 124 196 22 0 0 0 0 0 0 0 0 0 0 0 0 0 0 0 0 0 0 0 0 0 0 0 0 0 0 0 0 0 0 0
0 14 38 25 77 7 0 0 0 27 65 58 1 0 0 0 0 0 0 0 0 0 0 0 0 0 0 0 0 0 0 0 0 0 0 0 0 0 0 0 0 0 0 0
1 0 9 28 28 63 0 0 0 0 0 0 0 0 0 0 0 0 0 0 0 0 0 0 0 0 0 0 0 0 0 0 0 0 0 0 0 0 0 0 0 0 0 0
36 14 6 0 0 0 0 0 0 0 0 0 0 0 0 0 0 0 0 0 0 0 0 0 0 0 0 0 0 0 0 0 0 0 0 0 0 0 0 0 0 0 0 0
6 2 17 49 5 0 0 0 1 0 0 0 0 0 0 0 0 0 0 0 0 0 0 0 0 0 0 0 0 0 0 0 0 0 0 0 0 0 0 0 0 0 0 0

GFSCGP_con_mlcape_108.txt.gz
CAPE
0 0 0 0 0 0 0 0 162 236 190 191 88 44 48 146 76 0 104 140 52 71 68 58 196 178 117 91 174 479 314 531 452 473 222 134 79 476 622 699 893 1120 1089 875
0 0 0 0 0 0 0 0 1 172 78 125 90 38 42 103 80 1 74 166 48 92 58 64 167 143 106 67 213 260 297 495 484 776 590 633 672 711 600 576 978 972 1080 660
0 0 0 0 0 0 0 0 0 0 147 30 76 18 22 84 33 15 92 96 103 75 33 74 167 162 109 112 290 287 374 298 336 864 697 558 587 816 805 707 892 1040 1043 946
0 0 0 0 0 0 0 0 0 45 9 0 9 0 28 11 65 69 104 111 98 39 51 78 130 161 119 125 323 374 373 344 414 604 671 440 590 661 679 624 797 992 1023 1129
0 0 0 0 0 0 0 2 118 177 36 2 0 2 1 3 45 35 75 68 101 47 17 1 114 133 149 167 281 379 402 392 662 1068 622 360 509 536 736 858 983 989 942 1098
0 0 0 0 0 0 22 256 203 86 40 0 11 17 27 13 28 56 86 62 143 19 54 2 128 141 151 214 305 322 305 336 637 872 883 182 290 445 643 754 857 923 977 1102
0 0 0 0 0 0 0 228 29 32 7 1 6 22 18 14 27 48 103 67 43 2 9 157 62 131 140 224 271 345 327 445 436 716 858 541 141 130 653 638 858 895 819 919
0 0 0 0 0 0 0 0 0 0 0 0 1 0 18 38 14 1 5 21 24 28 2 165 45 122 120 151 225 402 353 487 498 737 785 513 178 440 487 554 742 741 760 924
0 0 0 0 0 0 0 0 0 0 0 0 59 96 112 34 0 30 2 85 86 84 164 167 197 159 133 148 214 273 444 523 550 872 700 664 393 501 482 347 568 855 825 743
0 0 0 0 0 0 0 0 0 0 0 0 36 83 55 62 31 33 16 0 5 3 140 169 113 232 184 194 336 333 643 524 460 620 897 962 598 307 128 0 470 764 665 558
0 0 0 0 0 0 0 0 0 0 0 0 13 45 83 47 0 0 0 11 64 73 30 25 62 128 167 164 168 214 195 218 105 128 349 578 1032 1025 642 1075 1101 1010 585 489
0 0 0 0 0 0 0 0 0 0 0 12 78 72 2 0 0 0 0 0 11 50 98 40 4 65 127 75 38 39 11 20 0 0 47 122 412 846 1093 1239 974 806 732 452
0 0 0 0 0 0 0 0 0 0 0 7 2 120 6 0 0 0 0 2 3 2 7 3 2 3 69 20 11 0 0 3 35 29 16 57 293 339 947 866 1013 960 711 637
0 0 0 0 0 0 0 0 0 0 0 37 78 74 6 1 1 0 0 0 1 1 2 0 0 1 2 16 5 0 0 3 10 0 1 85 105 273 621 957 750 854 1018 785
0 0 0 0 0 0 0 0 0 0 0 0 41 7 21 0 0 0 0 0 0 2 2 0 0 0 0 0 0 0 0 1 0 2 0 18 27 104 197 214 271 695 845 1184
0 0 0 0 0 0 0 0 0 91 66 60 95 66 22 4 0 0 0 0 0 0 0 2 0 0 0 0 0 0 0 0 0 0 5 3 21 14 30 65 91 97 362 977
0 0 0 0 0 0 0 0 0 55 110 105 7 38 30 9 0 0 0 0 0 0 0 0 0 0 0 0 0 0 0 0 0 0 0 0 0 0 0 2 3 18 49 218
0 0 0 0 0 0 0 0 0 19 240 166 72 63 34 49 0 0 0 0 0 0 0 0 0 0 0 0 0 0 0 0 0 0 0 0 0 0 0 0 0 0 0 11
0 0 0 0 0 0 0 0 2 27 236 265 138 105 41 1 0 0 0 0 0 0 0 0 0 0 0 0 0 0 0 0 0 0 0 0 0 0 0 0 0 0 0 0
0 0 0 0 0 0 0 0 0 55 2 324 270 159 43 0 0 0 0 0 0 0 0 0 0 0 0 0 0 0 0 0 0 0 0 0 0 0 0 0 0 0 0 0
0 0 0 0 0 0 0 0 0 0 0 348 259 148 16 0 0 0 0 0 0 0 0 0 0 0 0 0 0 0 0 0 0 0 0 0 0 0 0 0 0 0 0 0
0 0 0 0 0 0 0 0 0 0 0 18 191 15 0 0 0 0 0 0 0 0 0 0 0 0 0 0 0 0 0 0 0 0 0 0 0 0 0 0 0 0 0 0
0 1 5 0 0 0 0 0 9 96 76 5 3 0 0 0 0 0 0 0 0 0 0 0 0 0 0 0 0 0 0 0 0 0 0 0 0 0 0 0 0 0 0 0
0 0 16 3 0 0 0 0 0 0 0 0 0 0 0 0 0 0 0 0 0 0 0 0 0 0 0 0 0 0 0 0 0 0 0 0 0 0 0 0 0 0 0 0
0 2 0 0 0 0 0 0 0 0 0 0 0 0 0 0 0 0 0 0 0 0 0 0 0 0 0 0 0 0 0 0 0 0 0 0 0 0 0 0 0 0 0 0
0 1 3 0 0 0 0 0 0 0 0 0 0 0 0 0 0 0 0 0 0 0 0 0 0 0 0 0 0 0 0 0 0 0 0 0 0 0 0 0 0 0 0 0

GFSCGP_con_mlcape_111.txt.gz
CAPE
0 0 0 0 0 0 0 0 8 186 190 184 76 33 39 60 25 13 48 66 67 85 143 161 213 392 352 232 224 231 281 246 227 232 0 12 206 158 501 631 714 933 1015 798
0 0 0 0 0 0 0 0 17 159 137 121 81 63 65 129 95 35 24 88 78 134 138 166 209 318 220 238 202 168 295 267 250 383 130 94 89 269 491 529 795 879 915 736
0 0 0 0 0 0 0 0 0 31 169 152 87 54 54 74 64 45 4 54 66 55 71 164 194 244 144 226 273 275 224 315 368 616 412 424 504 570 581 483 700 855 992 633
0 0 0 0 0 0 0 0 0 0 49 11 6 1 62 67 36 18 16 47 104 55 59 189 208 185 95 121 194 260 226 360 357 651 464 458 408 385 577 368 725 807 942 927
0 0 0 0 0 0 0 0 0 6 26 0 0 0 0 32 28 7 0 4 97 56 32 168 137 123 93 77 181 246 235 265 356 517 494 438 386 372 481 558 677 864 868 832
0 0 0 0 0 0 75 169 158 105 36 5 2 0 22 28 28 3 7 46 57 40 41 69 113 139 77 131 225 240 253 288 344 502 438 383 378 418 462 609 689 770 830 825
0 0 0 0 0 0 0 59 44 19 31 0 8 4 29 60 36 56 11 56 82 69 30 113 78 108 115 161 217 260 244 278 488 647 684 376 167 314 377 570 699 640 644 767
0 0 0 0 0 0 0 0 0 0 0 1 45 26 40 33 33 80 75 102 78 95 62 53 121 118 124 199 228 248 237 236 402 625 727 451 277 144 416 533 640 723 741 775
0 0 0 0 0 0 0 0 0 0 0 1 6 86 87 20 4 22 68 45 47 47 115 34 135 155 75 146 287 273 265 244 344 574 639 561 74 9 155 439 547 696 626 696
0 0 0 0 0 0 0 0 0 0 0 0 1 15 94 14 24 19 19 10 11 30 76 11 33 91 167 145 267 614 373 335 364 732 648 688 444 342 241 350 354 499 640 596
0 0 0 0 0 0 0 0 0 0 0 0 0 18 24 34 0 3 22 7 0 28 51 161 138 117 132 162 225 341 287 300 296 465 596 655 656 603 359 55 46 350 466 527
0 0 0 0 0 0 0 0 0 0 0 0 6 0 16 34 1 10 24 27 3 13 54 0 11 41 112 128 102 51 3 83 153 181 225 263 393 513 706 763 696 1009 787 453
0 0 0 5 1 0 0 0 0 0 0 0 0 0 3 1 0 3 15 26 2 2 0 0 20 87 91 64 37 3 2 25 34 1 29 18 23 258 565 946 1130 1034 675 611
0 0 0 0 0 0 0 0 0 0 0 0 3 12 44 8 0 0 1 3 1 1 0 0 0 19 56 19 21 10 17 20 0 0 11 0 18 97 323 521 910 967 827 658
0 0 0 0 0 0 0 0 0 0 0 0 3 18 70 7 0 0 0 1 1 1 0 1 0 1 13 8 14 7 2 14 0 18 33 39 36 7 94 211 357 436 558 866
0 0 0 0 0 0 0 0 0 0 29 5 71 10 13 2 0 0 1 2 1 2 2 1 1 0 0 0 1 0 0 4 25 32 8 1 1 8 16 53 96 114 197 271
0 0 0 0 0 0 0 0 0 148 223 76 11 62 40 0 5 4 3 0 0 0 0 0 0 0 1 1 2 1 0 0 0 0 0 0 0 0 1 0 1 0 6 48
0 0 0 0 0 0 0 0 0 285 305 226 86 83 40 7 0 0 0 0 0 0 0 0 0 0 0 0 0 0 0 0 0 0 0 0 0 0 0 0 0 0 0 0
0 0 0 0 0 0 0 0 0 38 230 268 160 98 7 0 0 0 0 0 0 0 0 0 0 0 0 0 0 0 0 0 0 0 0 0 0 0 0 0 0 0 0 0
0 0 0 0 0 0 0 0 0 21 0 291 224 120 39 0 0 0 0 0 0 0 0 0 0 0 0 0 0 0 0 0 0 0 0 0 0 0 0 0 0 0 0 0
0 0 0 0 0 0 0 0 0 0 0 382 340 182 39 13 0 0 0 0 0 0 0 0 0 0 0 0 0 0 0 0 0 0 0 0 0 0 0 0 0 0 0 0
0 0 0 0 0 0 0 0 0 0 0 290 306 174 22 0 0 0 0 0 0 0 0 0 0 0 0 0 0 0 0 0 0 0 0 0 0 0 0 0 0 0 0 0
0 0 0 0 0 0 0 25 67 64 46 86 107 2 0 0 0 0 0 0 0 0 0 0 0 0 0 0 0 0 0 0 0 0 0 0 0 0 0 0 0 0 0 0
0 0 9 0 0 0 0 0 11 44 68 56 40 1 0 0 0 0 0 0 0 0 0 0 0 0 0 0 0 0 0 0 0 0 0 0 0 0 0 0 0 0 0 0
0 0 0 0 0 0 0 0 0 0 0 0 0 0 0 0 0 0 0 0 0 0 0 0 0 0 0 0 0 0 0 0 0 0 0 0 0 0 0 0 0 0 0 0
0 0 0 0 0 0 0 0 0 0 0 0 0 0 0 0 0 0 0 0 0 0 0 0 0 0 0 0 0 0 0 0 0 0 0 0 0 0 0 0 0 0 0 0

GFSCGP_con_mlcape_114.txt.gz
CAPE
0 0 0 0 0 0 0 0 0 213 153 132 60 58 0 13 28 9 32 33 97 109 113 193 240 280 320 287 252 186 77 2 0 27 0 0 198 200 351 576 667 755 980 840
0 0 0 0 0 0 0 0 27 225 225 124 80 68 79 88 39 5 30 2 41 79 131 171 221 278 277 251 135 109 40 9 109 96 0 0 149 129 374 464 670 727 753 682
0 0 0 0 0 0 0 0 0 93 224 170 110 29 45 72 43 17 38 43 60 125 147 206 180 236 247 231 107 129 180 181 188 241 47 144 249 283 450 448 580 759 863 666
0 0 0 0 0 0 0 0 0 0 0 0 63 0 0 85 35 52 14 34 42 97 145 181 169 206 183 179 143 140 178 202 199 405 260 249 284 352 428 408 553 657 834 813
0 0 0 0 0 0 0 0 0 0 0 5 0 0 0 79 93 44 12 30 37 71 66 139 172 189 171 162 166 157 177 166 294 509 374 423 400 382 394 442 543 687 745 789
0 0 0 0 0 0 87 21 26 14 2 0 0 0 0 3 40 51 17 7 6 84 13 57 135 101 108 80 165 229 188 198 307 476 415 342 276 297 400 388 527 735 688 682
0 0 0 0 0 0 4 0 0 11 10 2 0 0 0 1 22 55 17 0 2 72 31 22 32 103 85 108 153 185 209 219 246 415 385 378 275 359 412 413 493 542 662 696
0 0 0 0 0 0 0 0 0 0 0 0 29 0 0 1 14 49 32 1 5 76 57 31 29 56 76 85 167 201 218 209 331 383 521 420 255 226 303 423 588 576 496 611
0 0 0 0 0 0 0 0 0 0 0 0 17 48 46 7 26 84 50 4 5 38 63 57 55 107 80 97 174 221 213 204 336 462 555 423 133 125 244 386 525 597 591 667
0 0 0 0 0 0 0 0 0 0 0 0 4 33 20 34 17 97 97 61 22 41 118 108 53 92 109 97 139 260 245 206 255 412 519 431 285 38 73 156 364 577 654 588
0 0 0 0 0 0 0 0 0 0 0 0 0 0 63 72 30 18 55 69 77 97 111 55 55 52 99 130 126 256 305 219 265 412 487 516 496 409 265 116 161 335 491 558
0 0 0 0 0 0 0 0 0 0 0 0 0 0 9 79 10 20 2 27 3 24 60 156 126 97 41 70 160 194 129 139 140 220 358 304 332 370 531 454 223 109 256 344
0 0 0 0 0 0 0 0 0 0 0 0 0 0 68 101 56 30 22 2 4 1 5 33 51 66 66 47 66 28 21 40 25 15 36 0 16 110 328 458 544 577 686 588
0 0 0 0 0 0 0 0 0 0 0 0 0 0 52 114 87 27 68 53 37 22 4 5 28 17 46 12 27 14 19 1 0 0 0 0 0 0 39 280 565 791 840 713
0 0 0 0 0 0 0 0 0 0 0 0 0 0 34 97 80 56 63 41 25 12 2 1 6 11 11 2 43 16 39 9 5 0 0 0 3 0 34 168 258 411 709 729
0 0 0 0 0 0 0 0 0 0 0 32 0 0 105 67 10 56 88 75 39 4 2 0 1 5 1 9 25 16 0 0 0 0 0 0 5 4 1 2 66 172 252 309
0 0 0 0 0 0 0 0 0 1 171 159 1 30 157 105 80 115 113 53 12 1 0 0 3 2 2 1 3 2 0 0 0 0 0 0 0 0 0 1 8 12 16 7
0 0 0 0 0 9 0 0 0 179 214 186 111 96 145 112 45 57 45 8 1 0 0 0 0 1 3 2 1 0 0 0 0 0 0 0 0 0 0 0 0 0 0 0
0 0 0 0 0 0 0 0 0 0 8 200 160 150 104 59 11 0 0 0 0 0 0 0 0 0 0 0 0 0 0 0 0 0 0 0 0 0 0 0 0 0 0 0
0 0 0 0 0 0 0 0 0 0 0 171 255 200 157 86 86 5 0 0 0 0 0 0 0 0 0 0 0 0 0 0 0 0 0 0 0 0 0 0 0 0 0 0
0 0 0 0 0 0 0 0 0 0 0 263 287 168 128 131 38 0 0 0 0 0 0 0 0 0 0 0 0 0 0 0 0 0 0 0 0 0 0 0 0 0 0 0
0 0 0 0 0 0 0 0 0 0 1 289 342 155 58 0 0 0 0 0 0 0 0 0 0 0 0 0 0 0 0 0 0 0 0 0 0 0 0 0 0 0 0 0
0 0 0 0 0 0 0 0 1 0 8 198 354 29 0 0 0 0 0 0 0 0 0 0 0 0 0 0 0 0 0 0 0 0 0 0 0 0 0 0 0 0 0 0
0 0 2 0 0 0 0 1 2 1 15 8 72 14 0 0 0 0 0 0 0 0 0 0 0 0 0 0 0 0 0 0 0 0 0 0 0 0 0 0 0 0 0 0
0 0 0 0 0 0 0 0 0 9 37 89 8 18 10 0 0 0 0 0 0 0 0 0 0 0 0 0 0 0 0 0 0 0 0 0 0 0 0 0 0 0 0 0
0 0 0 0 0 0 0 0 0 0 0 3 22 7 0 0 0 0 0 0 0 0 0 0 0 0 0 0 0 0 0 0 0 0 0 0 0 0 0 0 0 0 0 0

GFSCGP_con_mlcape_117.txt.gz
CAPE
0 0 0 0 0 0 0 0 0 183 306 274 190 149 186 171 92 18 0 64 206 204 259 311 293 368 524 599 594 613 575 297 2 137 322 415 559 759 857 1160 1265 1359 1274 1430
0 0 0 0 0 0 0 0 185 320 325 273 186 164 166 194 111 67 29 12 107 148 201 316 325 419 501 505 537 524 491 319 142 72 248 329 611 639 961 1039 1223 1258 1420 1301
0 0 0 0 0 0 0 0 94 166 328 253 188 150 139 159 117 51 42 44 54 122 171 295 355 454 502 503 445 420 420 149 112 271 204 207 513 541 734 877 1041 1140 1353 1221
0 0 0 0 0 0 0 0 0 7 46 2 130 6 95 131 87 38 31 44 40 87 170 226 320 453 464 463 459 395 353 61 363 562 286 217 354 484 640 700 751 953 1364 1362
0 0 0 0 0 0 0 0 0 0 0 0 25 8 0 9 135 63 32 46 40 32 72 248 288 375 411 486 421 374 394 399 464 635 526 465 284 299 601 837 679 850 1256 1501
0 0 0 0 0 0 5 0 0 1 0 0 0 0 0 36 129 148 103 58 62 61 68 144 212 292 348 383 393 382 419 418 492 567 743 693 421 436 438 718 847 942 1300 1377
0 0 0 0 0 0 99 4 0 0 0 0 0 0 16 31 40 212 172 74 77 76 64 126 185 233 270 273 344 336 396 426 442 659 733 625 571 630 627 684 424 699 1147 1159
0 0 0 0 0 0 0 0 0 0 0 0 28 5 25 60 46 69 214 136 67 30 85 168 147 224 246 206 317 346 384 519 531 579 751 732 687 619 865 999 935 822 930 741
0 0 0 0 0 0 0 0 0 2 0 22 35 43 118 85 124 125 229 116 50 84 109 123 171 170 259 197 253 351 373 398 585 627 666 770 693 457 586 751 1001 1046 815 693
0 0 0 0 0 0 0 0 0 2 2 0 0 27 49 61 144 222 220 153 47 107 130 166 205 268 270 202 316 392 361 335 505 488 735 666 651 475 377 480 805 1101 993 1120
0 0 0 0 0 0 0 0 0 0 0 0 1 26 225 209 157 262 246 143 129 104 104 236 184 276 352 282 236 553 431 393 463 528 568 619 548 575 452 476 566 803 1066 1155
0 0 0 0 0 0 0 0 0 0 0 0 3 0 139 226 214 218 259 263 209 152 202 252 264 251 207 292 345 397 603 466 528 336 515 656 644 542 784 624 397 496 684 857
0 0 0 0 0 0 0 0 0 0 7 15 0 0 114 285 186 135 184 230 225 212 234 253 211 220 315 149 105 181 229 279 334 375 445 484 454 507 768 981 1051 814 938 1005
0 0 0 0 1 0 0 0 0 0 8 46 0 11 36 238 264 185 182 197 91 82 69 92 172 218 150 123 59 79 68 95 109 146 53 99 87 104 106 368 1062 1200 1285 1042
0 0 0 0 0 0 0 0 2 0 0 32 57 67 98 234 270 203 228 139 31 17 40 48 47 89 79 42 54 40 40 23 13 5 0 0 5 12 87 147 383 1056 1385 1379
0 0 0 0 0 0 0 0 2 32 1 44 41 137 208 488 321 268 191 127 116 63 39 14 5 16 28 23 27 2 3 1 6 0 0 0 14 3 0 79 230 461 740 857
0 0 0 0 0 0 0 0 0 70 181 194 119 200 282 330 368 254 166 121 64 6 3 4 2 0 1 1 5 1 0 0 0 0 0 0 0 16 14 4 19 56 188 371
0 0 0 0 0 3 1 0 0 14 175 357 317 213 330 342 292 211 253 149 2 1 4 2 2 2 2 2 2 2 0 0 0 0 0 0 0 0 1 2 1 2 3 29
0 0 0 0 0 0 0 0 0 0 0 7 206 310 303 314 249 269 162 1 0 0 1 1 3 4 4 4 5 1 2 0 0 0 0 0 0 0 0 0 0 0 0 0
0 0 0 0 0 0 0 0 0 0 0 18 374 365 372 293 247 33 0 0 0 0 0 0 0 1 0 0 0 0 0 0 0 0 0 0 0 0 0 0 0 0 0 0
0 0 0 0 0 0 0 0 0 0 0 66 499 486 502 512 428 4 0 0 0 0 0 0 0 0 0 0 0 0 0 0 0 0 0 0 0 0 0 0 0 0 0 0
0 0 0 0 0 0 0 0 0 0 23 203 600 564 492 43 43 3 0 0 0 0 0 0 0 0 0 0 0 0 0 0 0 0 0 0 0 0 0 0 0 0 0 0
0 0 0 0 0 0 0 3 19 65 160 318 590 299 59 0 0 0 0 0 0 0 0 0 0 0 0 0 0 0 0 0 0 0 0 0 0 0 0 0 0 0 0 0
0 0 50 0 2 18 0 1 23 47 99 90 375 152 39 1 0 0 0 0 0 0 0 0 0 0 0 0 0 0 0 0 0 0 0 0 0 0 0 0 0 0 0 0
19 0 24 12 0 0 1 0 0 23 195 274 47 17 16 2 0 0 0 0 0 0 0 0 0 0 0 0 0 0 0 0 0 0 0 0 0 0 0 0 0 0 0 0
2 37 55 114 23 14 2 0 0 0 5 203 167 17 0 0 0 0 0 0 0 0 0 0 0 0 0 0 0 0 0 0 0 0 0 0 0 0 0 0 0 0 0 0

GFSCGP_con_mlcape_120.txt.gz
CAPE
0 0 0 3 0 0 133 84 138 371 462 299 170 169 57 92 22 7 49 135 244 265 345 369 366 441 517 606 642 593 690 740 510 717 552 571 668 878 986 1018 1485 1673 1565 1991
0 0 0 13 0 0 0 2 167 323 538 498 191 172 369 249 20 0 13 41 216 232 303 435 461 456 607 640 715 776 865 1033 358 556 665 591 708 734 853 1032 1420 1364 1514 1788
0 0 0 0 0 0 0 0 212 188 357 385 379 287 365 395 285 10 3 33 102 228 307 495 560 496 593 757 713 787 923 988 878 487 675 862 1036 692 763 1051 1204 1309 1304 1467
0 0 0 0 0 0 2 0 104 357 186 124 304 170 421 412 391 110 32 9 5 82 294 347 556 591 603 715 727 685 956 1011 740 677 566 495 429 573 772 988 992 1103 1240 1294
0 0 0 0 0 0 0 0 0 0 0 0 100 36 213 374 415 329 242 17 15 38 152 329 365 546 662 729 670 458 867 835 526 1046 843 610 642 433 546 741 1018 1046 1352 1510
0 0 0 0 0 0 0 0 0 0 0 0 4 6 213 199 271 286 304 226 82 47 114 233 345 478 671 685 687 454 637 1011 969 1121 742 694 799 638 713 795 842 929 894 1116
0 0 0 0 0 0 0 0 2 1 2 0 24 4 48 213 239 227 478 322 169 84 39 172 307 479 631 654 729 496 598 909 1024 1118 898 724 719 917 894 844 802 788 788 776
0 0 0 0 0 0 0 4 12 34 39 39 85 6 70 185 309 410 507 393 337 233 83 91 292 513 648 578 700 597 719 774 999 957 1171 934 689 573 750 844 696 597 603 988
0 0 0 0 0 0 0 0 0 24 46 71 146 74 454 341 316 317 391 491 354 343 119 96 152 413 494 540 641 695 708 982 1049 856 1164 1259 877 583 664 979 1122 936 831 539
0 0 0 0 0 0 0 0 0 0 52 38 104 91 124 480 378 475 503 570 532 342 97 158 226 362 522 510 552 711 794 1016 999 805 957 906 975 1096 1074 882 1090 1249 1056 793
0 1 0 0 0 0 0 0 0 0 0 37 48 89 494 581 495 616 606 637 632 505 368 284 415 473 544 540 466 611 809 945 899 949 691 891 792 1005 1281 919 1165 1427 1254 1171
0 1 39 6 0 0 0 0 0 0 0 9 24 130 553 712 592 772 716 711 633 525 514 468 425 536 788 707 499 742 918 860 872 893 940 684 785 669 765 964 933 1371 1484 1653
0 2 26 13 0 0 0 0 0 2 9 35 11 4 698 676 662 795 784 652 618 493 511 494 485 584 525 686 777 790 928 964 971 1006 793 696 696 748 738 831 707 1039 1229 1215
0 30 7 25 42 24 0 0 0 0 0 5 39 84 273 638 679 685 675 491 591 605 624 534 567 654 606 627 409 505 704 781 893 922 797 868 864 883 856 1205 1028 1104 1047 1071
1 12 9 0 0 0 0 0 0 0 0 12 23 40 67 623 838 714 528 375 401 510 380 442 522 508 322 347 362 295 371 361 437 369 495 555 522 666 731 793 1222 1469 1271 787
0 0 0 0 0 0 0 0 0 0 21 25 43 87 469 873 939 617 686 503 473 380 325 305 354 276 198 179 196 173 90 64 116 120 126 140 179 203 226 364 503 1026 1464 1442
0 0 0 6 0 0 0 0 0 53 171 165 196 555 752 914 690 656 553 531 467 349 316 344 376 275 231 119 12 0 0 1 0 4 69 61 140 166 243 196 240 261 534 1247
0 0 0 14 38 21 83 29 6 38 134 460 340 390 516 786 711 477 481 342 255 202 83 9 1 8 22 27 6 2 0 0 0 0 0 1 2 6 47 147 177 226 274 338
0 10 28 0 3 32 38 33 12 11 34 32 34 379 716 623 417 447 536 526 383 164 5 3 4 3 3 5 5 4 0 0 2 1 1 2 2 0 0 3 20 97 169 214
0 12 72 68 13 23 59 3 0 33 41 121 297 556 559 608 584 441 321 346 183 3 4 4 4 3 2 3 4 6 0 0 2 2 0 0 0 0 0 0 0 13 21 1
0 15 24 77 31 16 0 2 10 16 170 210 593 800 730 572 659 164 58 32 26 3 5 3 1 0 0 1 0 1 0 0 0 0 0 0 0 0 0 0 0 0 0 14
1 6 4 8 15 16 47 73 50 310 289 270 643 993 973 514 321 64 3 5 2 1 1 0 0 0 0 0 0 0 0 0 0 0 0 0 0 0 0 0 0 0 0 0
85 14 78 1 131 227 225 292 280 418 561 564 783 994 633 619 261 1 1 0 1 0 0 0 0 0 0 0 0 0 0 0 0 0 0 0 0 0 0 0 0 0 0 0
292 233 127 150 161 252 240 299 200 630 730 564 962 840 663 567 280 15 2 0 0 0 0 0 0 0 0 0 0 0 0 0 0 0 0 0 0 0 0 0 0 0 0 0
370 352 407 371 453 310 199 181 208 507 859 822 821 776 694 511 260 17 0 0 0 0 0 0 0 0 0 0 0 0 0 0 0 0 0 0 0 0 0 0 0 0 0 0
249 319 277 236 576 437 462 163 209 237 485 645 633 652 650 445 67 0 0 0 0 0 0 0 0 0 0 0 0 0 0 0 0 0 0 0 0 0 0 0 0 0 0 0

GFSCGP_con_mlcape_123.txt.gz
CAPE
0 0 0 19 22 6 9 30 22 267 585 303 156 86 83 69 89 96 65 130 124 88 115 122 180 202 253 303 512 657 633 779 792 665 502 568 484 555 503 720 1277 1526 1364 1566
0 0 0 21 40 0 6 95 158 160 529 368 216 142 115 59 40 24 29 50 79 117 164 138 216 219 241 361 496 625 793 937 910 837 708 791 638 775 812 961 747 1171 1193 1645
0 0 0 23 33 0 2 29 111 211 391 357 223 188 166 54 81 0 1 5 66 121 83 206 265 209 289 246 544 772 1034 1044 814 753 970 1076 1051 864 995 1207 944 1038 1197 1196
0 0 6 3 2 0 5 0 11 5 213 148 316 176 330 216 158 0 0 15 50 75 207 174 188 299 201 312 331 607 879 1146 1042 983 854 914 636 643 693 637 1017 1161 993 1043
0 0 0 0 0 4 2 0 3 177 197 68 136 71 0 462 434 157 16 0 47 1 154 154 155 200 309 258 242 421 861 1131 1025 1132 1064 898 887 895 852 925 1340 1616 1181 1113
13 2 0 0 0 0 0 0 0 0 27 11 46 90 103 390 513 529 155 20 4 0 55 169 192 112 239 256 234 231 619 1117 1025 1378 1252 1265 881 928 795 827 1232 916 1002 1145
2 0 0 0 0 0 0 0 5 19 51 29 36 53 298 128 340 624 330 218 21 0 13 51 125 213 329 418 181 254 572 964 1076 1152 1101 1107 1339 1090 774 1296 907 1022 720 666
7 0 0 0 0 0 0 1 78 87 90 85 72 60 325 242 340 447 642 413 235 2 6 7 187 170 355 311 202 263 745 958 885 928 1124 1254 1115 1016 1173 1177 955 448 467 872
5 9 0 0 0 0 0 0 25 14 0 11 8 132 427 229 389 390 410 685 504 172 36 6 109 304 494 280 403 393 805 1034 894 716 1177 1344 1127 1066 936 1307 1443 964 787 808
14 21 0 0 0 0 0 0 0 0 7 43 112 127 6 219 234 336 435 746 563 476 185 40 53 184 390 366 665 566 729 1162 910 625 729 824 920 1115 983 1079 1397 1209 1096 642
10 2 2 0 0 0 0 0 0 4 11 20 40 278 324 389 346 451 551 598 716 585 493 110 87 167 479 619 712 727 868 1170 1100 747 557 643 654 795 1273 909 1004 1343 1471 1098
0 9 19 5 0 0 2 0 0 0 0 0 0 1 26 187 519 581 628 791 811 730 636 184 65 239 418 298 859 831 951 1061 1128 953 892 606 638 734 966 1222 1252 1317 1427 1290
11 4 81 12 5 0 0 2 3 0 5 9 37 218 718 659 554 733 804 846 965 901 551 435 566 593 756 891 912 871 1114 1198 1112 1080 1097 1013 770 552 735 1079 1085 1313 1310 1387
0 2 32 0 5 2 1 0 0 8 23 19 22 562 591 530 706 1018 1008 1032 963 893 773 793 708 583 761 889 953 918 938 1121 1309 1166 1109 1142 1082 806 584 996 1103 1236 1400 1128
0 9 25 0 0 0 4 17 1 0 0 4 6 26 79 257 663 912 1185 1210 1078 823 766 656 804 737 810 955 862 896 932 1058 1185 1120 1243 958 964 1065 900 1057 1190 1104 911 1047
0 0 0 0 0 0 0 0 12 21 13 1 0 2 64 209 913 1097 797 837 987 1093 971 922 769 823 759 799 779 663 725 859 1013 1159 1083 1065 1083 991 1048 1167 1340 1437 1371 1289
0 2 16 0 0 11 2 0 10 25 78 76 64 744 590 446 1446 1244 899 691 864 735 625 740 820 749 607 423 246 211 167 182 288 349 345 351 444 492 621 779 713 1015 1525 1598
44 24 19 52 101 55 42 47 39 59 98 111 103 111 503 1061 1058 919 846 690 588 609 471 293 301 269 209 49 28 16 11 25 0 0 0 15 92 172 299 404 521 470 745 1232
3 30 96 50 86 0 3 86 93 66 70 22 60 126 953 1084 913 738 790 839 746 488 166 22 11 4 12 28 9 1 1 3 0 0 0 0 0 1 0 46 123 245 340 347
0 2 38 100 103 93 8 9 6 40 69 182 202 237 871 810 641 977 1025 297 225 58 4 6 5 3 0 0 3 1 3 6 4 1 2 4 3 3 0 0 0 6 51 173
6 0 9 19 40 103 41 0 0 0 267 132 286 376 803 781 765 874 564 141 56 3 5 7 3 2 2 1 0 2 3 2 3 1 2 0 0 0 0 0 0 0 14 0
15 74 38 47 62 59 23 0 1 280 265 229 226 478 929 734 723 366 131 55 3 3 3 3 2 2 1 1 0 0 3 0 0 0 0 0 0 0 2 1 1 0 0 26
58 87 149 113 251 147 52 171 182 271 307 372 385 704 1064 897 437 84 4 3 3 1 0 0 0 0 0 0 0 0 0 0 0 0 0 0 0 0 0 0 0 0 2 21
184 243 97 76 17 113 94 187 200 230 290 514 636 842 923 596 291 5 5 0 0 0 0 0 0 0 0 0 0 0 0 0 0 0 0 0 0 0 0 0 0 0 0 0
213 25 75 92 95 91 225 182 212 368 460 708 848 783 786 599 402 169 5 1 0 0 0 0 0 0 0 0 0 0 0 0 0 0 0 0 0 0 0 0 0 0 0 0
2 117 151 224 351 180 355 324 206 249 390 599 810 793 837 666 451 281 56 1 0 0 0 0 0 0 0 0 0 0 0 0 0 0 0 0 0 0 0 0 0 0 0 0